GFSCGP_250_rhum_000.txt.gz
RH
19 18 19 24 27 23 22 22 22 28 26 21 21 41 70 89 89 83 59 22 24 47 35 38 43 51 53 58 64 72 88 100 100 100 82 86 40 42 47 41 51 61 64 72
16 16 21 24 20 22 21 22 25 29 26 18 22 44 84 82 82 76 51 24 22 54 55 71 82 84 89 91 94 96 100 99 93 92 57 35 41 46 53 58 62 62 60 54
18 20 23 23 20 22 22 24 26 29 26 18 27 40 77 82 69 66 48 25 19 40 68 80 96 99 100 100 96 91 86 85 75 56 42 36 41 47 48 50 53 56 57 52
17 20 15 18 20 22 21 24 29 31 26 19 50 66 76 77 70 73 42 26 21 22 48 61 79 94 98 100 100 96 86 72 54 47 45 45 51 42 42 45 45 49 52 48
14 13 13 14 18 21 21 25 28 29 25 19 43 64 80 84 64 67 35 24 24 26 39 51 70 88 99 100 86 52 41 40 40 39 48 57 56 52 47 45 49 51 53 54
14 14 14 19 19 21 22 24 28 28 24 22 28 75 90 83 69 58 32 31 33 35 29 42 66 80 77 47 43 46 49 48 48 49 48 47 48 52 58 64 64 62 58 56
12 13 14 17 18 20 26 25 25 27 26 23 33 99 100 92 70 61 35 34 37 40 38 36 41 44 45 52 53 54 50 46 46 52 60 62 63 61 57 52 50 50 51 52
13 12 14 16 17 22 27 26 22 27 26 23 36 100 100 93 66 65 38 37 34 39 47 52 55 57 57 60 61 57 57 59 58 63 67 77 79 68 67 66 65 66 70 73
13 16 19 19 19 24 29 28 26 29 26 24 52 100 100 99 68 70 45 37 42 45 50 52 55 56 69 83 77 84 89 86 87 80 71 70 76 70 66 68 69 67 65 65
15 16 17 19 23 27 29 27 28 26 25 34 61 100 100 100 92 74 54 43 48 55 53 57 67 80 93 94 90 84 74 71 76 77 78 78 73 72 70 66 63 59 56 53
28 28 26 26 29 32 28 29 29 26 24 48 74 100 100 100 100 86 63 56 50 50 50 58 73 80 82 87 85 80 89 94 82 76 74 69 65 60 60 65 66 67 65 62
28 30 27 27 26 25 29 31 29 29 39 64 88 100 100 100 100 100 80 65 65 66 70 73 73 67 64 70 82 88 85 83 82 78 74 73 75 71 67 65 70 78 88 85
37 37 34 31 32 36 36 38 33 30 54 94 100 100 100 100 100 100 100 92 83 82 94 100 100 95 91 92 88 80 76 72 66 74 76 66 62 66 78 78 90 97 86 72
40 41 46 50 44 38 33 31 41 100 100 99 100 100 100 100 100 100 100 100 100 100 100 100 95 85 75 62 57 66 71 74 63 57 61 69 87 98 100 96 83 69 60 54
88 80 79 66 45 44 48 92 100 100 100 100 100 100 100 100 100 100 100 100 100 93 79 68 63 59 62 72 76 68 63 65 81 97 100 100 90 71 58 54 51 48 45 42
100 100 100 100 97 100 100 100 100 100 100 100 100 100 100 100 100 95 84 73 63 63 63 64 62 65 61 51 45 56 80 89 81 66 54 52 57 51 50 45 44 39 35 34
100 99 100 100 100 100 100 100 100 100 100 100 100 99 93 83 74 64 61 61 62 54 52 58 67 54 45 63 70 68 69 59 53 51 50 49 51 46 43 39 37 34 30 27
100 98 93 97 90 95 97 98 99 95 97 98 92 89 85 83 82 77 68 58 60 73 81 60 47 57 72 84 83 72 57 50 45 44 43 42 42 38 33 31 30 26 23 20
94 96 100 100 100 100 100 99 98 92 89 100 100 97 91 90 84 70 61 71 76 60 52 51 51 58 59 61 55 48 42 38 37 40 43 44 45 43 32 34 28 22 16 12
100 100 100 100 100 100 100 100 100 100 100 95 93 88 78 69 73 82 81 70 51 51 50 46 48 51 46 39 39 37 37 46 52 51 54 46 36 34 22 19 15 13 10 6
88 94 96 99 100 100 100 100 96 88 81 83 77 68 63 66 66 57 47 60 62 51 54 47 41 35 36 40 46 57 57 56 62 58 52 40 25 16 13 10 6 6 6 6
53 68 78 79 76 74 68 63 66 69 72 72 68 63 60 68 73 79 71 63 50 43 41 38 35 33 39 44 53 50 55 70 68 61 40 19 11 9 7 6 7 7 6 4
72 73 67 66 64 72 74 76 76 72 70 72 89 100 93 77 67 54 43 41 42 34 32 30 32 36 52 70 68 71 80 64 58 34 14 9 7 7 7 7 6 4 4 3
86 81 99 89 81 85 91 96 99 99 90 92 91 72 60 53 43 34 31 26 22 24 32 37 42 57 68 76 68 69 68 60 27 12 7 8 8 8 7 5 4 4 3 3
77 85 87 84 81 84 83 92 97 92 77 61 53 50 47 45 30 22 22 23 24 29 39 47 53 64 73 70 74 76 46 22 12 10 9 8 8 6 5 4 4 4 4 3
93 100 100 99 94 88 74 64 60 55 47 46 48 48 42 34 28 29 26 25 32 54 57 56 66 72 88 88 78 45 27 14 10 9 9 8 6 4 4 4 4 5 4 4

GFSCGP_250_rhum_003.txt.gz
RH
18 20 26 31 43 45 28 21 24 24 20 14 14 22 45 46 89 99 100 99 82 52 24 18 28 31 28 29 23 30 34 40 46 58 70 83 100 100 86 86 87 48 41 46
18 19 24 28 37 33 28 28 30 27 24 15 14 25 50 49 96 100 100 93 70 42 23 22 40 37 34 43 48 54 64 70 75 84 90 89 86 88 88 76 45 39 43 46
20 22 22 28 34 34 31 40 33 26 24 21 17 29 42 75 87 88 86 83 65 38 23 22 37 48 54 67 82 96 99 100 97 92 88 90 91 86 68 52 40 37 42 48
20 21 21 25 33 34 31 38 25 24 23 23 20 30 43 51 94 73 63 74 60 40 26 22 22 33 51 58 79 88 88 91 97 97 85 80 79 72 50 40 38 40 48 50
17 18 18 24 31 30 34 26 25 23 22 23 22 30 47 52 76 77 63 67 56 45 25 23 24 25 33 61 79 92 90 98 100 94 87 62 47 46 51 53 55 56 50 49
22 20 20 28 30 29 21 24 27 24 21 28 24 35 46 69 82 74 66 69 59 44 24 26 29 30 28 40 50 68 89 93 73 47 56 65 72 72 75 89 95 92 89 87
19 20 20 26 26 22 20 24 25 25 22 32 24 38 41 70 68 79 68 62 50 50 29 28 30 32 29 27 29 40 47 46 56 62 65 65 66 78 86 85 87 88 90 95
17 13 18 21 21 22 21 22 24 23 22 28 26 45 52 82 71 70 87 65 56 56 40 33 31 34 36 38 41 53 62 61 64 66 64 67 71 69 69 75 83 84 86 89
14 18 24 26 24 22 21 22 22 22 21 26 28 38 44 61 62 61 75 86 72 59 51 42 39 41 42 48 56 58 60 62 63 67 75 76 76 72 70 77 81 79 77 76
14 18 20 20 20 18 18 21 21 20 22 27 30 32 42 45 54 53 67 81 90 68 63 49 46 47 50 56 60 61 63 67 71 72 69 67 73 89 93 83 75 67 58 59
14 14 16 16 16 17 18 18 20 20 22 29 28 32 35 40 45 74 87 76 90 89 79 67 58 59 63 61 57 67 76 76 80 93 99 100 91 72 63 62 65 67 69 74
14 15 14 15 16 17 16 17 17 19 25 31 29 32 30 34 39 66 100 100 92 99 100 89 80 73 76 83 85 83 97 100 94 85 78 67 61 62 64 65 69 76 82 97
19 18 17 16 15 16 17 18 20 19 26 32 28 30 28 31 52 91 100 100 100 100 100 100 100 100 100 97 95 100 94 82 75 72 67 61 64 62 64 88 100 100 95 80
22 20 20 19 24 21 23 22 21 27 33 30 30 31 29 35 76 100 100 100 100 100 100 100 100 100 94 97 100 88 76 69 60 59 61 58 61 80 90 98 90 81 62 55
28 26 25 22 21 19 17 20 28 32 29 30 35 35 30 79 100 100 100 100 100 100 100 100 100 100 93 79 71 65 54 54 58 59 54 58 66 74 66 53 48 42 38 35
33 31 34 33 32 32 31 31 30 29 36 43 41 56 100 100 100 100 100 100 100 100 100 88 80 70 62 60 59 46 48 54 58 55 58 54 50 49 41 39 44 48 49 44
53 59 53 49 41 40 42 46 49 48 44 53 99 100 100 100 100 100 100 99 92 79 65 59 58 57 51 46 46 52 63 65 63 51 46 40 36 36 49 51 55 58 50 41
58 43 50 52 52 48 72 78 64 72 95 100 100 100 100 95 97 97 85 72 62 54 58 57 56 54 51 61 74 76 67 48 46 38 34 35 42 48 58 62 61 49 40 28
100 99 90 83 90 95 91 94 100 100 100 100 100 99 99 89 81 68 66 62 64 66 63 55 56 71 80 71 63 50 40 34 31 34 39 40 50 55 67 60 40 29 18 14
89 100 100 100 100 100 100 98 83 81 85 87 82 86 86 82 79 74 70 67 61 58 66 87 93 82 64 47 38 34 34 33 31 38 44 48 54 62 57 37 21 16 13 10
88 80 91 83 90 99 100 100 97 100 100 100 100 100 100 98 83 70 66 74 92 100 99 85 69 52 45 37 36 35 32 33 39 53 62 64 69 52 36 19 11 9 7 6
100 100 100 100 100 99 100 100 100 100 100 100 97 83 70 68 66 72 98 100 92 86 70 57 50 39 40 45 40 34 38 45 55 61 68 60 45 36 18 11 9 7 7 6
94 92 82 86 97 100 97 93 97 93 84 73 64 68 76 87 94 87 80 74 63 61 58 47 47 57 46 37 35 40 52 62 69 70 55 46 39 18 9 8 7 7 6 4
69 89 100 100 100 79 75 86 76 66 67 70 88 88 76 71 72 71 76 68 66 59 48 57 48 38 33 34 42 52 61 69 78 65 56 45 21 12 9 8 8 6 4 3
62 58 62 71 84 88 89 85 92 98 96 88 82 73 68 78 92 70 67 64 60 56 52 42 38 32 32 38 49 58 71 82 66 64 44 26 14 8 9 9 6 4 4 3
84 92 98 90 73 72 77 81 88 85 78 79 83 93 91 75 68 62 58 57 60 49 40 35 33 34 37 45 53 68 76 68 66 42 25 12 8 8 8 6 5 6 4 4

GFSCGP_250_rhum_006.txt.gz
RH
18 20 24 27 30 33 40 44 32 41 24 25 25 24 21 18 22 32 44 100 100 100 100 84 66 41 22 19 26 31 29 24 27 25 24 32 40 51 65 69 81 99 92 86
18 18 28 29 29 29 31 33 49 43 28 21 22 22 22 16 20 30 43 92 100 100 99 79 54 33 18 18 23 32 34 37 39 43 46 52 66 78 85 88 90 88 74 74
17 19 28 26 29 33 32 40 41 41 35 19 24 23 23 17 17 26 37 100 100 100 96 71 54 29 19 19 24 35 42 52 65 72 71 73 76 85 89 79 75 80 79 74
18 19 26 24 31 32 36 42 41 41 37 20 31 26 26 21 18 26 32 78 100 100 89 71 53 35 22 22 22 25 35 52 58 67 76 90 99 94 83 73 55 44 40 42
17 18 24 23 29 31 39 36 37 37 37 26 30 30 27 23 18 26 35 40 100 100 92 67 52 35 23 22 23 25 30 44 57 60 67 84 89 82 57 49 52 51 50 51
19 19 21 23 31 32 32 31 31 36 35 32 31 35 25 24 20 23 29 30 60 100 98 81 55 38 26 21 27 31 28 32 50 64 78 88 87 55 59 60 63 68 74 86
18 19 22 24 25 25 27 26 30 36 37 37 29 33 30 25 21 29 29 28 52 100 100 83 56 48 35 23 26 32 35 33 34 39 50 50 60 69 63 70 82 86 86 78
19 15 19 20 22 25 26 28 32 36 37 32 23 31 34 26 22 25 34 24 38 100 100 90 59 51 40 32 32 37 38 38 43 50 58 62 59 63 66 63 65 66 63 65
18 26 23 23 23 24 25 25 28 32 32 30 27 30 34 27 23 22 28 29 39 75 100 96 75 62 52 45 43 42 44 47 52 56 55 56 59 63 75 77 78 84 84 91
18 23 25 24 22 24 25 25 25 31 30 30 29 28 29 25 21 22 27 32 43 46 96 97 79 78 69 58 54 54 58 67 72 73 77 82 87 94 96 100 96 82 72 66
16 19 21 23 24 23 25 25 25 29 32 30 29 27 25 24 22 23 25 33 40 48 64 56 80 91 91 85 84 84 87 89 92 98 99 100 100 100 100 79 58 55 64 62
16 16 17 20 23 24 26 24 22 29 29 25 26 27 24 22 19 26 29 31 34 34 38 41 78 100 100 100 100 100 100 100 100 100 100 100 98 83 63 56 58 59 60 72
17 16 17 18 20 20 22 22 25 28 26 24 23 25 20 20 21 30 31 32 32 29 40 57 74 98 100 100 100 100 89 86 89 85 88 84 69 60 60 60 61 73 75 60
17 18 18 20 23 24 25 25 26 26 23 21 21 22 20 21 24 33 34 34 35 36 49 88 100 100 100 100 91 87 97 89 83 86 72 62 67 70 66 69 72 62 42 38
20 19 18 19 19 17 18 18 17 18 18 19 21 22 22 24 30 34 34 35 35 37 94 100 100 100 100 99 100 96 87 80 72 66 73 73 66 64 67 59 43 36 33 32
20 18 17 17 16 15 14 14 16 17 19 21 20 19 24 30 38 38 36 40 42 71 100 100 100 100 100 99 86 76 73 76 72 71 65 65 64 54 40 35 35 32 33 42
25 22 20 21 18 17 17 18 19 19 20 22 25 26 26 39 43 40 45 60 76 82 100 100 100 98 83 78 67 64 64 70 66 63 65 64 46 39 36 30 33 43 50 60
36 31 28 29 23 24 28 25 26 27 27 30 35 38 38 40 46 57 62 85 96 100 100 99 85 69 65 61 57 59 62 67 72 69 55 44 38 33 31 37 42 49 55 57
36 35 31 29 33 39 32 31 33 37 41 40 46 49 51 62 64 77 76 92 100 100 92 75 64 64 64 56 60 82 79 74 60 51 40 36 36 33 37 41 46 57 66 66
53 49 51 51 41 32 32 38 49 50 49 49 41 42 74 84 84 84 90 90 80 68 62 61 72 64 70 82 83 76 67 55 47 39 48 48 36 40 40 46 59 68 58 31
100 96 84 73 70 73 69 59 63 70 99 84 80 89 92 83 82 70 66 71 83 79 75 67 76 82 78 77 68 61 56 48 52 62 53 41 44 40 48 54 63 57 31 16
100 100 99 100 100 95 90 80 81 82 78 80 77 73 81 94 96 94 94 97 95 82 71 82 80 81 77 71 62 52 50 61 62 52 50 45 37 50 60 67 60 41 15 11
84 91 96 90 89 91 96 100 100 100 90 85 86 82 92 92 88 94 100 82 65 68 72 74 84 77 64 55 50 55 64 67 67 52 42 45 55 61 70 61 45 20 13 9
100 98 82 77 81 78 75 77 86 92 90 87 83 89 96 98 98 89 72 69 71 74 86 94 79 61 50 48 52 61 64 56 46 39 45 53 62 69 71 51 25 14 10 7
62 84 97 100 100 100 100 100 97 97 95 95 92 97 100 99 84 71 77 78 82 92 80 61 50 47 55 62 62 52 45 42 39 46 54 62 67 70 57 41 18 11 8 7
60 64 71 71 74 81 91 95 95 86 82 82 87 85 75 70 74 75 83 90 84 70 53 44 50 60 66 57 47 45 42 40 46 54 63 69 73 58 41 19 13 8 8 8

GFSCGP_250_rhum_009.txt.gz
RH
16 18 20 21 27 26 34 31 25 20 43 48 28 19 27 23 19 18 16 22 27 35 66 96 100 100 71 62 42 32 20 24 28 31 32 27 30 24 26 33 40 47 56 65
14 17 20 24 26 26 27 32 21 25 54 49 34 19 22 25 20 16 16 21 29 35 83 99 99 86 63 59 33 26 19 23 28 32 39 48 49 49 49 55 65 80 90 88
16 18 20 23 23 26 28 36 26 32 59 43 41 22 24 23 19 18 16 18 26 28 71 100 100 96 72 59 45 36 21 19 24 31 42 50 61 71 75 80 84 90 84 75
17 20 21 23 23 27 30 40 24 29 47 34 40 34 23 23 22 19 18 17 19 27 52 89 100 96 87 63 45 37 26 23 23 32 49 60 62 67 73 81 74 71 71 57
15 20 20 22 25 29 35 33 22 26 42 33 44 43 32 27 29 24 21 19 18 23 30 75 100 98 90 67 46 34 29 24 24 26 29 37 43 49 55 61 64 64 50 54
15 23 21 22 25 28 29 25 27 30 35 38 39 46 32 29 34 27 22 22 18 18 25 32 85 100 84 87 53 37 33 29 28 28 26 28 30 34 38 43 46 48 58 59
17 25 23 21 23 26 28 27 28 31 36 46 42 53 30 36 36 29 25 22 21 20 22 27 40 77 88 100 69 47 39 37 34 31 37 40 43 47 53 59 66 67 68 71
16 20 25 24 20 24 30 30 32 37 43 49 38 51 38 32 31 29 26 24 21 25 26 24 20 43 73 100 100 69 51 46 44 47 51 56 59 64 70 77 83 90 89 88
18 23 28 22 20 22 27 28 35 39 39 41 40 44 48 34 31 26 26 26 26 26 23 23 23 24 28 59 92 100 81 60 56 59 67 78 86 90 93 94 94 95 100 100
18 24 29 25 18 19 23 27 26 32 35 35 39 39 40 39 29 25 26 29 29 26 21 21 21 24 29 32 68 75 94 96 90 85 88 94 96 97 97 93 93 97 100 100
18 23 29 24 19 20 21 24 26 30 31 33 33 39 34 33 28 27 27 29 27 26 23 20 23 25 28 31 39 75 90 86 88 97 99 100 97 96 90 80 80 89 89 73
19 22 30 25 22 21 21 21 25 26 26 26 28 30 29 33 32 29 28 26 26 23 23 20 28 29 29 33 40 56 68 87 91 100 100 100 99 84 74 77 71 68 59 60
18 19 25 26 22 19 19 21 22 24 27 27 29 34 30 26 28 31 30 28 26 23 22 22 28 30 32 32 33 36 84 90 90 92 100 95 81 83 77 71 63 67 76 68
16 18 20 26 31 33 32 30 27 23 23 26 27 28 26 24 29 33 30 27 25 22 23 23 28 33 32 32 34 44 77 84 99 100 92 87 85 79 74 69 74 70 71 66
16 16 17 20 25 26 28 28 25 23 24 22 26 26 27 29 33 32 26 24 23 23 25 25 30 33 37 37 34 37 76 88 100 100 91 86 83 83 89 70 63 67 59 53
15 18 17 17 18 20 22 21 22 22 23 26 27 28 27 29 31 28 23 22 23 25 25 27 34 43 38 39 39 55 100 100 100 86 90 95 96 81 59 61 61 57 54 46
13 15 18 19 18 17 18 18 18 19 21 24 26 27 27 28 25 23 23 24 25 27 29 35 42 43 42 41 67 100 100 99 88 94 98 88 68 53 55 56 56 51 36 29
18 16 16 17 17 19 21 19 20 21 21 22 24 24 22 21 21 23 24 26 30 39 42 44 46 47 53 90 100 100 95 90 99 88 63 54 53 52 54 50 39 35 35 43
27 27 25 22 24 24 22 21 20 19 18 19 20 20 19 21 25 28 34 43 52 48 52 51 56 70 94 99 95 100 100 87 80 61 49 49 56 50 44 45 44 46 49 47
33 25 24 26 28 28 24 23 21 20 24 26 26 27 26 24 25 33 36 44 47 44 55 69 86 94 82 84 100 97 90 64 53 48 56 53 42 45 49 50 48 48 49 44
50 48 45 37 40 46 30 26 24 23 31 28 29 32 33 36 40 43 45 46 63 82 95 89 73 75 94 96 93 72 52 51 56 55 44 46 50 50 47 48 49 49 47 54
62 58 58 54 53 54 45 41 43 46 44 46 42 43 44 48 65 70 83 89 88 74 77 79 94 96 94 80 55 54 61 57 44 44 50 52 50 52 50 50 52 48 59 61
100 99 93 84 84 87 83 70 64 66 68 77 86 79 96 98 82 78 75 68 69 89 100 94 90 84 69 65 69 63 41 40 47 60 60 60 59 48 54 52 53 61 66 52
84 89 100 100 100 100 100 100 100 88 100 91 93 94 72 61 82 83 63 76 93 93 93 90 75 70 73 65 47 42 46 59 74 69 66 54 51 55 54 59 62 70 45 16
93 78 86 100 100 99 92 96 96 97 93 76 74 85 84 80 71 73 80 86 86 80 80 75 74 66 47 47 54 56 68 72 68 65 55 53 54 54 60 71 73 49 19 10
62 65 73 81 75 79 72 75 78 78 80 82 83 83 84 78 72 70 73 78 84 86 81 72 58 57 62 62 69 70 66 63 56 54 55 53 54 63 70 69 52 19 10 11

GFSCGP_250_rhum_012.txt.gz
RH
9 9 10 17 27 29 39 55 49 39 44 54 50 40 44 34 29 20 17 16 16 16 19 27 34 68 98 100 94 70 49 30 28 22 19 23 34 37 33 32 28 26 30 33
9 9 13 20 29 30 41 50 40 25 45 48 51 34 46 33 26 19 19 18 16 15 20 24 42 91 100 94 77 57 47 40 32 29 22 21 27 39 48 53 55 56 60 70
9 15 13 22 27 28 35 36 26 25 42 49 54 29 34 27 24 26 23 20 17 18 17 21 28 59 85 100 93 71 65 53 37 27 28 29 30 39 41 57 74 81 84 86
11 13 13 21 26 28 36 37 20 27 38 50 50 32 34 28 22 26 22 22 20 19 19 18 25 31 71 98 90 81 74 54 40 32 30 30 31 28 36 42 50 61 65 66
12 13 15 22 27 28 36 33 18 24 37 53 46 40 35 36 28 24 21 23 22 20 18 16 17 23 34 61 74 91 88 71 50 36 34 32 30 29 29 30 34 37 39 40
14 14 17 24 29 28 32 26 19 24 39 50 40 48 26 43 37 27 23 24 24 22 20 18 16 17 25 35 71 87 98 98 86 62 44 37 38 37 36 37 39 43 47 53
16 13 19 26 29 28 27 23 20 22 34 48 39 52 23 50 43 36 27 28 28 27 23 22 20 18 18 22 36 72 89 98 91 96 89 74 57 49 49 52 54 55 60 64
14 13 21 30 28 26 23 23 23 23 37 48 42 64 27 39 40 40 39 33 29 30 26 22 21 21 20 18 22 28 34 42 56 81 96 98 94 83 69 63 63 66 68 76
14 15 18 26 25 25 22 22 25 26 39 50 46 64 35 36 45 41 40 36 30 30 26 24 23 22 23 21 19 23 27 28 29 32 38 51 86 99 100 99 98 100 99 100
12 15 18 22 24 24 24 24 26 27 38 47 34 46 40 35 44 46 42 38 36 31 28 26 24 23 22 23 25 27 28 25 25 26 29 33 67 69 87 98 100 100 100 100
13 14 16 22 24 24 25 24 27 30 34 43 41 38 43 38 36 35 37 36 35 33 31 29 26 24 24 24 25 25 27 28 28 31 34 34 33 43 66 82 95 98 94 86
13 14 17 27 30 22 23 22 23 28 32 37 47 42 38 40 36 32 31 32 31 34 34 35 32 28 27 26 24 24 24 26 29 33 32 33 32 32 51 77 83 89 90 75
18 16 18 22 21 18 20 22 22 27 32 34 36 41 41 37 32 28 26 27 29 33 32 32 32 30 27 26 24 23 23 22 26 30 34 36 39 50 66 89 92 98 86 76
17 16 18 20 32 32 26 26 22 23 26 30 34 36 34 29 25 27 28 29 30 31 29 29 33 32 26 24 23 23 23 23 25 29 40 40 45 63 87 88 98 93 72 73
17 18 17 19 23 26 29 31 23 20 22 22 25 25 28 27 30 30 29 29 28 28 29 29 32 31 25 23 23 24 24 23 31 43 42 44 73 97 100 100 84 72 79 72
19 19 18 20 21 24 29 33 32 26 22 30 34 38 31 28 27 28 30 29 28 28 29 30 31 28 24 23 25 25 24 27 38 42 59 94 100 100 98 92 93 72 64 52
19 18 19 19 20 21 25 34 35 34 30 31 29 31 26 29 29 29 28 28 28 27 28 29 28 24 24 26 27 26 34 43 51 69 89 100 100 100 86 79 67 55 50 40
16 17 18 19 20 21 24 24 30 33 33 34 35 33 32 31 30 27 25 25 26 27 27 26 24 25 27 28 30 42 51 61 79 98 100 100 88 75 66 52 51 40 39 40
14 16 17 18 18 19 19 20 21 22 24 27 30 29 27 25 23 23 22 23 24 25 24 22 23 26 30 44 61 66 83 93 100 96 86 88 61 49 52 46 36 41 41 45
18 16 16 17 19 18 17 18 19 19 20 21 21 22 21 20 21 23 24 24 23 22 23 29 39 53 69 73 77 79 90 97 98 86 56 48 54 56 35 37 41 45 51 55
30 27 26 23 25 22 19 22 21 22 24 22 22 22 23 23 22 22 24 27 30 36 50 63 72 81 89 93 83 83 96 80 58 50 58 61 52 38 39 45 51 55 54 69
44 50 47 43 50 42 34 34 37 35 33 33 33 32 30 31 31 33 36 42 53 66 86 91 93 92 77 76 95 94 72 62 62 66 65 48 40 43 48 54 55 62 60 50
62 56 49 48 49 40 40 43 41 44 53 48 43 44 44 44 47 49 53 91 100 92 83 66 62 78 74 80 80 66 64 70 72 59 47 44 44 46 53 62 65 51 53 61
65 67 71 80 84 80 64 61 63 63 61 60 64 66 72 87 100 100 92 69 62 62 54 64 76 69 70 66 63 68 76 65 55 51 46 46 53 67 71 56 52 58 58 50
98 90 96 95 96 89 84 89 94 94 92 88 91 91 79 73 63 58 60 58 57 82 82 72 66 63 67 78 81 67 56 57 53 52 56 64 70 64 58 57 58 57 49 28
92 98 100 100 100 100 100 100 100 100 100 100 100 100 97 89 81 67 64 66 67 66 58 57 75 78 75 68 60 60 59 57 59 64 69 71 60 55 58 57 56 43 25 13

GFSCGP_250_rhum_015.txt.gz
RH
8 9 13 19 18 21 25 23 31 41 43 44 62 67 56 53 47 40 34 28 24 21 20 19 16 15 22 32 45 100 97 93 88 58 30 27 29 27 34 36 39 40 37 35
3 4 12 17 18 20 24 23 29 42 43 43 54 63 54 52 47 40 33 27 21 19 17 16 15 17 23 37 84 100 100 79 70 57 55 46 33 28 29 32 40 46 53 54
2 4 11 10 15 17 22 24 34 45 40 41 59 64 56 54 48 41 32 23 20 21 17 15 15 18 21 28 75 92 99 100 84 79 71 56 40 32 32 31 32 36 47 63
2 3 6 11 13 17 24 24 34 45 38 47 54 59 52 53 50 42 29 23 24 23 19 19 18 18 18 22 34 63 89 92 97 82 84 70 51 38 37 35 34 32 31 33
3 3 4 13 13 19 26 31 38 44 33 46 54 54 58 49 54 37 32 26 26 23 20 21 20 20 17 18 19 29 34 50 64 75 78 84 74 71 68 64 56 44 42 42
3 5 9 17 16 23 23 34 38 40 30 52 56 55 49 45 48 31 34 28 25 24 24 24 23 21 19 18 17 18 20 23 32 53 65 67 73 65 69 80 82 81 83 74
7 12 18 17 21 30 38 37 40 26 38 56 48 51 39 41 54 48 42 30 25 24 25 27 27 24 21 22 22 20 18 17 18 22 24 23 23 23 24 28 28 32 46 56
13 19 18 17 25 26 29 34 32 22 39 51 47 45 33 45 57 59 49 43 40 26 28 29 28 27 26 24 26 25 24 22 21 20 18 16 21 23 22 21 24 28 30 32
20 21 16 20 33 22 29 31 24 25 52 45 42 41 35 44 54 55 52 47 39 37 32 33 32 28 27 28 28 29 27 24 24 22 21 20 19 19 20 23 26 30 31 33
24 22 18 24 17 27 42 33 26 35 54 41 34 37 32 37 54 55 51 42 39 34 33 39 39 37 33 32 30 31 30 28 26 24 21 20 20 20 20 21 24 25 32 34
38 30 22 21 22 30 27 26 24 38 41 35 32 37 38 29 47 51 48 44 41 38 37 36 35 34 34 35 34 32 32 31 28 24 22 20 21 21 22 21 23 30 35 37
36 45 28 21 24 35 30 31 26 39 38 38 34 33 40 32 37 40 43 42 39 36 36 37 37 31 28 27 30 30 29 29 29 29 24 22 22 22 22 25 28 37 39 43
21 21 23 23 24 28 24 19 19 29 36 36 32 28 34 38 32 34 35 36 36 35 35 34 31 28 27 28 29 29 28 26 30 30 26 23 21 22 26 27 35 41 43 60
19 15 17 23 25 35 30 29 30 29 35 35 33 28 34 32 31 30 33 36 40 43 40 35 33 29 28 29 28 28 28 27 28 28 26 23 22 26 30 39 45 56 72 86
22 21 20 20 22 31 28 26 24 23 26 27 30 29 28 28 31 36 37 37 38 37 36 35 33 30 29 28 27 28 27 26 26 26 24 23 27 33 38 51 58 66 79 92
29 23 23 24 24 29 29 23 24 28 29 32 32 33 32 32 32 33 34 35 35 32 30 29 28 28 29 28 27 25 25 26 27 25 24 27 33 43 56 66 71 89 91 79
27 26 23 23 22 22 29 30 25 27 29 30 32 35 27 27 27 28 28 27 25 25 27 30 31 32 30 28 24 24 26 26 25 24 30 41 50 67 76 83 88 83 72 61
22 19 18 21 22 22 27 33 35 29 28 27 30 29 27 27 25 26 26 29 30 31 32 33 33 31 27 24 24 25 25 25 28 36 50 59 81 73 81 88 88 63 48 54
22 22 21 19 20 21 21 23 28 34 38 37 43 41 42 39 36 36 35 34 35 36 36 34 31 27 24 24 27 26 28 34 50 56 72 73 77 88 89 68 51 52 53 37
21 22 22 21 20 20 19 20 21 22 25 28 32 34 35 36 37 38 38 37 37 34 31 28 25 26 30 28 29 36 46 60 66 72 75 85 78 66 57 55 58 44 43 44
19 20 22 22 21 20 19 20 20 20 21 21 22 24 26 27 28 29 28 28 25 25 25 28 30 29 34 45 49 64 70 77 74 77 78 63 55 55 60 56 45 50 44 47
26 22 22 22 22 21 21 22 22 22 22 22 22 23 25 26 25 25 25 28 31 32 30 36 45 54 58 77 78 72 62 66 82 68 58 56 62 60 50 50 50 50 50 52
52 40 31 29 27 23 24 27 27 28 30 31 30 29 31 30 31 33 32 33 41 45 53 55 58 77 75 72 68 76 91 85 64 57 64 62 53 52 53 54 53 52 52 54
48 46 47 47 38 34 33 34 37 38 39 38 36 42 53 55 52 54 54 58 63 66 77 84 73 64 61 64 61 61 58 55 58 62 50 50 53 57 58 54 52 54 58 52
72 68 68 73 70 60 56 51 45 45 47 50 51 56 62 65 69 71 80 85 83 86 79 77 81 65 56 54 54 52 50 57 52 48 51 56 63 64 60 61 62 53 48 45
97 94 93 86 91 88 79 81 81 83 82 81 85 83 83 85 90 99 100 92 88 90 74 63 53 47 45 45 48 53 53 51 52 56 64 70 66 66 65 60 51 44 40 33

GFSCGP_250_rhum_018.txt.gz
RH
100 99 81 85 62 34 24 23 18 26 21 22 30 52 34 37 31 73 94 100 94 83 66 56 37 25 20 19 18 19 20 22 65 79 91 95 92 64 52 47 34 28 28 30
90 77 95 52 32 17 18 20 20 23 24 22 34 50 38 41 39 84 87 81 66 53 42 31 24 20 19 18 18 16 20 33 100 96 73 82 85 74 72 63 45 34 33 34
52 37 18 11 13 12 17 17 25 22 27 24 34 46 42 44 58 78 74 70 51 43 32 25 21 18 18 17 16 18 20 32 70 92 96 100 93 74 75 78 71 58 49 50
10 19 11 8 8 11 16 16 23 23 25 22 35 48 48 31 60 57 65 60 48 41 29 22 22 20 21 18 18 17 19 23 31 38 47 55 61 64 77 77 80 76 67 67
13 10 4 3 4 5 22 16 21 24 25 27 33 47 45 33 67 67 60 51 45 40 27 24 24 23 22 22 20 17 17 18 19 20 20 23 26 31 34 30 25 26 23 24
6 3 3 3 2 10 17 15 20 24 24 25 30 50 44 38 71 62 56 52 46 37 26 30 25 25 24 23 21 20 20 20 21 21 21 20 19 18 18 17 17 19 19 20
3 3 2 2 5 11 16 26 28 23 22 22 37 47 32 47 65 60 57 53 49 34 32 31 27 31 29 26 25 25 24 22 22 25 26 25 24 22 21 19 18 17 18 18
4 4 3 4 7 13 17 19 21 28 23 27 30 34 33 53 71 64 58 52 51 36 33 30 30 33 33 28 26 26 27 27 27 29 31 28 26 24 23 22 20 18 17 16
5 5 7 15 25 26 46 38 34 28 51 48 41 42 48 55 65 66 54 50 45 38 34 35 36 32 34 33 32 32 34 34 32 33 31 27 25 25 25 25 24 23 21 19
6 13 29 32 31 37 41 47 51 33 53 34 44 40 50 56 60 58 51 51 49 51 54 46 42 39 39 35 36 36 34 30 29 31 30 26 25 25 25 25 25 26 25 22
21 23 28 30 36 54 78 50 31 42 45 43 47 40 53 57 55 53 48 51 54 56 50 42 40 35 37 39 41 38 32 30 30 29 28 27 26 26 26 25 25 26 25 24
39 37 49 56 60 56 84 42 26 46 43 45 44 52 56 49 52 48 47 49 55 48 41 36 36 40 42 35 34 31 32 32 30 28 28 28 27 27 26 26 27 26 26 23
57 54 65 61 67 47 57 28 41 38 41 40 48 50 53 44 41 40 43 50 50 43 37 37 39 43 38 37 36 35 34 34 31 30 29 29 27 25 25 25 24 25 23 24
68 57 60 47 61 63 42 33 52 30 49 47 49 52 53 40 32 35 41 47 47 40 39 37 39 40 40 38 36 36 35 32 31 30 30 29 27 25 23 25 25 24 24 26
57 45 42 31 39 30 25 34 32 35 47 39 40 49 48 34 29 31 35 38 39 39 39 40 40 40 40 38 37 34 30 29 31 32 31 30 27 24 25 25 23 24 28 36
64 46 34 27 22 25 27 31 28 32 33 39 39 44 46 34 30 29 29 30 34 37 41 43 42 40 37 35 34 31 31 31 32 33 32 30 26 25 25 24 25 32 40 50
25 28 20 25 24 23 22 32 29 32 35 37 39 38 29 32 29 31 32 35 34 33 32 32 32 32 32 31 28 31 32 33 34 34 31 26 26 26 25 30 38 41 51 58
18 14 17 24 26 24 26 34 30 28 32 38 40 42 28 36 34 31 33 33 32 33 33 32 32 30 27 29 33 35 37 37 35 29 26 27 27 29 36 40 54 54 55 56
35 35 31 28 27 24 26 32 32 29 30 38 40 36 32 38 37 29 30 32 32 30 30 30 30 32 37 40 39 39 37 30 25 27 29 30 37 44 48 50 52 55 53 58
44 35 35 33 29 25 25 30 38 42 32 35 32 30 33 31 31 32 30 28 30 40 43 44 45 43 41 38 34 28 24 28 33 34 36 49 55 50 51 56 56 54 58 54
33 35 33 30 30 27 25 26 29 42 43 41 39 38 40 38 38 39 39 42 45 44 41 38 35 31 28 25 26 31 34 38 46 54 56 50 48 48 49 51 50 55 45 43
26 28 28 26 26 26 26 26 26 26 26 30 36 39 41 42 42 40 34 29 26 26 26 26 26 26 28 32 35 42 42 52 57 56 50 47 50 51 47 49 49 44 44 50
29 26 27 28 27 27 25 25 25 26 26 26 27 28 28 27 26 26 25 25 27 27 26 27 31 32 46 53 56 56 60 59 57 54 50 46 43 45 49 45 45 51 54 52
29 27 26 24 24 26 27 28 28 28 27 26 24 24 24 24 24 25 26 26 27 28 33 48 59 61 68 69 69 63 62 58 53 48 46 48 50 45 44 51 55 55 52 40
55 50 41 31 29 25 24 27 27 26 27 26 25 25 26 26 27 30 36 48 56 62 71 79 78 78 80 64 61 60 51 46 43 51 53 47 44 52 57 59 58 52 45 39
75 76 74 65 55 48 48 46 44 44 46 43 46 48 48 54 59 68 74 77 79 76 82 93 89 77 67 64 59 49 45 56 59 51 46 50 57 57 62 60 63 52 44 39

GFSCGP_250_rhum_021.txt.gz
RH
73 72 73 80 80 72 56 44 40 36 35 22 20 18 34 24 30 26 34 28 44 42 33 46 66 89 100 93 74 56 36 20 18 19 21 21 85 99 97 89 100 97 83 79
72 74 81 83 80 73 60 47 53 40 32 26 25 20 40 22 27 28 37 30 40 50 33 81 100 96 80 55 39 24 20 18 18 21 22 35 77 92 77 98 92 88 72 76
78 80 96 87 83 74 68 49 77 48 29 29 23 20 35 23 25 35 36 35 38 50 57 100 90 72 48 30 23 20 19 20 22 21 22 26 41 51 58 56 52 51 57 52
74 100 92 80 73 75 58 74 58 45 34 25 24 22 33 28 28 30 41 33 37 63 79 89 60 56 30 24 21 21 22 21 21 21 20 22 25 24 22 22 22 23 21 19
72 70 54 46 66 32 30 30 36 42 34 24 20 20 33 30 23 32 48 33 64 90 86 58 51 37 26 24 22 25 24 23 20 20 20 21 21 22 22 21 19 19 20 20
37 33 35 34 25 16 22 16 19 34 27 15 22 20 34 28 25 44 47 35 68 82 71 51 46 32 26 26 26 26 24 24 24 22 22 23 22 23 24 24 24 24 24 24
15 16 17 17 16 10 10 12 15 22 17 16 22 23 38 24 26 43 37 45 78 67 66 50 42 35 28 30 28 28 27 27 28 25 25 27 27 29 28 26 24 24 24 23
9 11 9 6 7 6 6 7 10 14 18 26 22 24 31 27 35 30 39 48 73 64 58 50 44 38 33 32 30 33 32 28 28 27 28 30 31 28 26 24 24 23 23 23
6 5 5 5 4 4 5 8 16 33 34 21 26 27 36 31 42 37 52 65 71 64 56 51 46 39 38 32 30 34 33 33 34 33 32 32 30 27 26 26 25 24 24 24
4 5 5 5 5 4 6 11 14 30 39 31 29 35 32 49 60 52 63 67 66 61 57 54 51 45 40 32 31 36 36 40 36 34 36 29 26 28 29 27 24 23 25 25
6 8 7 9 15 15 13 25 33 40 64 29 25 26 28 38 51 56 55 56 66 63 59 54 51 44 36 40 47 45 44 39 36 35 32 30 32 32 30 25 25 26 27 27
11 16 31 34 63 48 58 99 100 100 72 37 28 32 45 50 56 57 46 58 68 66 61 53 49 44 47 58 55 50 47 43 42 36 34 38 36 32 28 26 24 27 30 28
61 82 100 80 94 79 100 100 98 68 51 34 31 38 49 52 54 54 54 66 68 64 57 51 50 53 56 58 57 53 46 42 44 42 40 36 32 29 27 26 27 31 30 26
100 100 100 100 100 100 100 100 100 100 69 39 39 51 59 49 56 58 55 59 60 61 53 51 54 59 57 55 53 49 46 45 44 40 39 34 32 29 26 28 32 31 26 21
100 100 100 100 100 100 100 100 100 86 58 38 39 47 51 49 50 53 53 57 61 59 52 46 51 56 53 52 53 49 43 43 41 39 35 34 30 27 31 33 32 25 22 24
100 100 100 100 100 100 100 96 81 32 36 35 36 43 47 42 48 48 56 60 62 56 47 45 50 52 52 48 43 42 42 41 38 36 34 29 30 34 35 32 24 23 25 29
73 99 92 100 94 70 66 37 22 27 27 22 32 41 40 43 48 49 60 57 52 50 47 47 49 49 45 41 39 40 39 37 35 31 30 34 37 36 29 22 22 29 32 37
50 53 85 74 72 60 37 23 22 26 20 22 29 36 40 51 50 47 50 50 45 41 40 41 42 40 38 39 38 36 35 31 34 38 38 37 33 25 22 25 33 37 39 46
35 33 50 70 68 43 29 21 28 20 18 31 30 38 58 59 50 44 43 46 45 40 37 38 37 35 34 33 33 32 34 40 40 39 33 26 23 24 30 41 40 46 53 55
29 34 37 45 53 49 30 23 27 19 31 36 33 44 56 55 50 50 54 56 48 44 41 37 36 35 35 35 36 35 42 39 31 24 24 24 31 42 39 46 55 54 46 45
50 50 45 51 43 34 27 26 25 27 37 42 38 39 45 44 45 52 50 46 47 49 48 42 38 39 40 43 43 39 31 24 23 25 31 40 39 47 56 58 48 46 44 52
55 50 44 43 40 35 30 31 26 31 37 46 51 48 41 39 39 40 40 41 40 40 44 48 50 51 46 39 27 23 23 26 32 40 46 52 56 58 56 50 44 51 55 44
52 46 44 36 34 32 32 27 26 28 34 41 46 49 54 59 60 60 63 65 63 59 53 46 37 27 24 23 25 26 35 46 51 53 64 60 55 51 46 53 60 49 45 44
36 41 37 35 36 36 33 31 29 28 29 30 32 34 36 38 39 38 35 33 30 28 26 26 25 27 28 30 40 53 55 62 64 61 53 53 48 51 64 58 47 47 45 49
36 33 30 29 30 30 31 31 31 30 29 29 29 30 30 30 30 30 29 28 27 28 29 31 33 39 50 56 58 65 71 66 54 50 45 49 69 67 53 51 49 52 52 45
66 55 46 38 34 31 30 28 29 29 29 29 30 32 32 31 31 32 34 36 39 42 44 48 58 61 64 62 63 60 55 49 44 56 75 70 57 52 52 55 59 54 50 48

GFSCGP_250_rhum_024.txt.gz
RH
50 50 58 68 57 54 50 41 49 58 58 50 43 33 32 34 22 20 20 19 23 33 34 31 49 71 81 100 100 100 100 100 100 100 89 73 35 20 21 19 37 68 83 81
57 45 55 61 68 66 59 50 59 66 68 57 53 40 32 42 29 24 22 21 22 30 34 30 34 43 51 56 64 90 97 98 89 63 37 21 19 20 19 23 39 61 62 60
60 56 77 82 81 72 74 74 75 71 70 57 53 38 30 44 34 23 26 24 23 35 36 32 35 32 41 56 70 84 81 69 43 24 19 19 20 22 26 30 30 27 24 21
56 90 91 87 75 66 69 90 83 74 75 58 42 42 27 44 36 22 27 24 27 46 40 31 34 33 55 79 90 70 51 30 21 21 21 24 25 25 26 24 22 21 21 20
62 75 78 72 77 66 85 89 79 75 72 62 43 30 40 44 39 29 33 27 29 52 38 27 41 50 81 92 70 47 30 24 22 24 23 23 22 22 24 25 24 23 21 21
58 62 70 63 70 71 63 64 52 51 54 37 59 29 41 37 41 33 30 24 31 47 41 31 47 62 92 78 55 38 28 24 26 26 26 25 25 27 27 26 27 26 25 23
48 48 45 48 45 44 48 59 50 42 37 21 46 25 42 59 36 32 27 26 35 42 46 32 53 80 86 57 44 35 29 27 27 28 27 28 29 31 31 31 31 28 25 24
28 29 28 25 21 20 21 21 18 19 14 20 46 21 49 60 29 27 27 29 29 37 45 25 66 89 69 48 44 36 32 30 30 34 33 32 35 35 35 33 30 28 26 26
18 12 11 10 9 8 12 10 32 14 16 22 24 28 95 37 26 27 27 34 41 45 36 30 81 76 63 50 45 38 38 32 34 42 39 36 35 37 36 33 31 28 28 26
12 9 8 8 7 7 7 6 5 8 11 15 23 29 53 22 28 28 30 48 44 44 32 49 82 68 63 54 48 43 41 38 37 35 36 38 36 36 33 31 30 30 28 30
9 8 7 6 7 6 5 7 11 11 10 14 22 43 32 30 34 35 39 59 46 40 30 54 74 66 58 55 51 49 48 45 38 38 42 37 39 36 34 32 32 32 32 31
9 8 9 10 18 21 12 10 17 24 19 29 37 43 30 36 34 32 41 47 39 38 37 72 76 66 58 56 54 54 55 49 43 46 43 45 41 36 36 35 34 35 37 31
51 33 36 63 95 99 84 44 36 31 43 53 39 38 39 40 36 34 42 44 42 46 50 77 76 66 58 58 56 60 59 52 50 58 57 48 43 41 36 36 40 39 32 25
91 96 100 100 100 100 100 100 100 100 100 94 52 40 32 35 38 45 42 50 50 52 59 72 77 65 59 58 58 59 59 57 60 59 57 52 44 40 41 44 38 31 28 25
100 100 100 100 100 100 100 100 100 100 100 70 39 40 34 35 44 48 41 57 63 60 63 66 72 68 64 63 58 56 57 57 61 59 51 47 44 44 41 36 31 29 28 33
100 100 100 100 100 100 100 100 100 92 100 54 43 47 40 40 52 46 43 53 57 63 66 69 72 72 71 66 58 55 54 54 56 53 50 46 44 38 34 32 29 32 33 27
100 100 100 100 100 100 100 100 100 99 100 100 67 50 40 48 46 44 48 56 60 65 71 72 73 69 68 66 62 56 50 50 52 52 48 42 35 34 33 29 30 32 25 22
100 96 100 100 100 100 100 100 97 92 99 76 51 42 39 53 50 54 60 59 64 74 74 72 70 71 71 69 64 55 50 50 50 47 38 35 34 31 28 32 30 23 23 30
88 91 100 100 86 98 89 94 76 67 59 48 46 42 42 55 56 66 63 68 75 78 74 70 68 67 66 63 58 54 48 44 40 36 34 32 30 32 34 26 22 24 40 42
75 81 78 79 67 82 71 50 48 44 41 40 39 41 49 49 49 53 70 74 75 75 69 65 66 69 63 53 48 47 45 38 35 34 32 34 39 30 23 23 34 41 48 43
63 53 61 63 71 62 62 54 46 34 38 38 37 36 42 49 59 70 71 70 72 72 70 68 68 70 69 60 51 43 41 37 35 40 44 33 24 23 28 39 47 52 40 39
76 63 66 56 68 67 59 54 49 41 33 31 31 33 44 53 61 68 66 67 66 63 61 60 59 57 53 47 43 40 39 47 46 33 26 24 25 37 46 53 43 40 54 66
93 81 73 82 87 70 56 54 47 41 37 33 29 34 50 56 60 64 68 71 70 65 60 55 48 42 43 53 54 54 39 29 25 24 24 34 43 54 47 40 46 68 62 54
61 55 56 55 58 60 56 50 46 39 34 34 32 39 54 67 73 73 67 63 59 55 53 57 68 66 54 40 30 26 25 25 25 31 40 54 49 42 42 65 70 61 58 61
60 55 53 50 46 47 43 43 38 36 32 32 33 40 48 53 55 59 63 62 59 57 53 44 33 28 25 24 25 26 29 33 40 52 51 45 43 58 70 64 58 61 62 56
43 40 39 42 41 37 36 34 33 30 29 28 29 30 32 35 37 36 34 31 28 26 25 25 26 27 26 29 41 43 48 52 46 42 42 53 67 67 64 64 65 61 56 54

GFSCGP_250_rhum_027.txt.gz
RH
61 50 66 79 62 47 45 45 45 44 44 35 42 35 33 32 23 26 26 24 25 19 18 18 22 29 31 31 35 100 100 100 100 100 100 100 100 100 100 100 100 79 44 23
76 75 87 67 63 62 55 52 52 49 44 36 41 39 34 38 36 29 33 28 28 23 21 22 22 26 30 30 32 77 100 100 100 100 100 100 100 100 100 89 57 38 19 21
94 95 98 78 58 46 50 47 47 46 41 40 46 46 37 40 49 41 40 35 30 27 25 28 30 32 30 31 32 54 72 95 100 100 100 100 100 88 66 41 22 20 23 28
64 100 85 68 55 47 54 47 43 50 46 43 45 47 44 41 47 56 54 44 34 34 29 31 35 42 37 31 31 36 49 67 86 96 83 68 51 38 25 20 22 27 29 24
68 86 68 60 68 49 41 51 50 53 48 49 51 34 54 44 45 56 54 50 42 39 34 38 33 33 37 35 34 28 35 66 100 74 52 33 26 22 25 26 28 26 25 26
57 57 55 59 59 47 44 51 56 57 56 31 62 29 60 80 74 71 53 44 35 39 36 39 35 31 40 41 38 29 43 92 79 50 35 29 26 26 25 25 24 28 29 30
49 53 52 52 51 43 40 43 43 40 34 18 51 43 46 100 97 97 73 46 30 36 37 42 37 35 37 40 32 32 58 84 62 44 36 30 30 28 28 29 32 33 34 32
45 49 50 47 42 41 39 39 32 30 27 24 49 32 31 99 100 100 84 50 34 34 41 42 35 33 37 40 34 39 67 76 52 44 36 31 30 28 29 32 33 35 34 35
56 45 36 34 29 30 29 26 33 20 20 23 26 32 37 57 88 100 70 51 36 36 41 44 42 29 44 43 39 48 68 68 51 44 37 35 34 34 34 36 37 37 37 40
32 31 26 18 12 11 10 11 10 8 9 10 18 20 29 59 89 90 66 55 33 39 43 48 36 30 52 51 46 60 70 62 50 46 41 40 40 38 36 36 38 38 39 42
35 23 13 11 11 9 8 7 7 6 7 7 12 15 39 79 81 78 60 54 31 42 45 59 37 34 53 63 56 73 72 60 51 48 46 45 46 46 43 38 41 47 45 40
23 17 14 12 10 9 7 6 7 7 6 7 9 21 41 56 63 60 74 48 31 41 42 49 34 33 47 67 68 73 67 63 56 52 52 55 55 54 51 48 47 50 47 44
44 45 27 16 39 86 46 20 12 11 9 9 11 9 15 29 43 53 56 31 34 38 47 53 40 45 53 66 70 70 65 62 59 58 58 58 59 59 54 53 53 51 51 45
92 99 89 91 98 95 100 81 38 30 29 21 23 30 30 40 56 56 44 34 36 40 50 47 38 46 54 67 70 68 66 63 60 60 60 60 62 61 59 56 55 54 48 44
100 100 100 100 100 100 100 100 92 80 68 52 50 65 47 78 71 48 42 43 36 49 64 52 46 51 65 70 71 72 70 64 60 60 61 60 59 58 57 55 54 53 50 46
100 100 100 100 100 100 100 100 100 100 97 96 100 100 86 79 82 50 35 42 46 57 60 45 50 51 57 74 75 73 70 62 60 61 62 61 59 57 54 50 49 48 47 42
100 100 100 100 100 100 100 100 100 100 100 100 100 97 75 78 61 40 38 43 51 65 54 45 48 58 70 74 79 74 67 63 62 68 69 67 62 58 56 49 47 44 38 36
100 100 100 100 100 100 100 100 100 100 98 100 100 100 92 70 46 39 42 45 59 67 57 59 74 83 78 71 76 78 73 72 76 75 72 69 66 60 52 46 42 40 35 36
100 100 100 100 100 100 100 100 100 100 100 100 98 76 77 61 44 42 46 50 63 76 79 83 89 84 76 73 76 76 75 73 72 72 70 65 56 49 46 45 40 37 40 29
100 100 96 100 100 100 100 100 100 100 100 100 86 100 73 57 46 49 55 72 82 83 83 86 85 76 71 72 76 76 70 67 67 68 68 61 55 51 43 38 42 32 25 25
96 85 97 98 100 100 97 88 89 100 96 89 99 93 71 52 55 60 79 84 80 79 76 78 76 74 76 78 76 76 72 68 70 71 63 55 46 42 45 35 26 26 33 39
77 82 88 89 76 78 79 78 75 65 80 86 85 72 66 52 48 52 68 77 80 81 79 76 77 76 72 72 73 72 71 70 64 55 47 47 48 36 27 26 32 36 40 35
96 82 88 80 87 88 88 91 96 90 83 78 69 59 62 54 44 48 64 73 79 81 80 77 75 75 75 74 74 68 62 55 49 55 52 35 28 28 34 38 39 34 36 50
100 100 100 100 100 100 100 100 96 82 75 69 68 66 54 47 45 48 64 72 75 79 83 82 80 78 73 67 66 60 63 62 50 33 28 28 36 42 38 35 37 51 57 60
96 100 100 99 96 83 71 62 63 60 55 55 58 56 56 48 39 40 46 55 68 77 80 74 69 69 72 78 78 62 40 31 28 31 40 43 39 36 40 54 55 57 65 61
76 78 80 52 53 49 45 45 46 45 41 39 38 41 46 44 38 36 42 55 69 76 78 81 83 81 69 45 32 28 30 41 47 46 41 35 42 58 59 58 68 62 55 54

GFSCGP_250_rhum_030.txt.gz
RH
100 100 100 100 100 87 60 71 48 53 53 48 44 38 41 44 31 29 28 25 23 22 24 23 25 28 27 23 23 23 28 26 24 29 52 62 70 70 67 92 100 100 92 87
100 100 100 100 98 78 64 61 48 49 50 40 40 35 41 44 38 34 31 29 25 22 23 25 26 27 30 31 25 23 29 30 26 25 59 79 100 100 100 100 100 100 100 100
100 100 92 87 87 78 67 63 62 48 55 41 37 35 37 47 43 39 35 32 33 30 25 27 29 29 30 32 32 27 29 31 29 26 43 100 100 100 100 100 100 100 100 99
77 90 66 66 70 67 65 62 59 53 44 44 40 32 40 40 45 49 45 37 39 36 31 30 30 32 33 31 32 31 34 35 33 31 47 100 100 100 100 100 100 96 81 41
66 70 70 59 65 59 59 85 76 70 46 40 41 21 41 42 47 65 62 52 48 62 51 34 33 34 32 33 32 30 38 39 34 29 51 68 91 99 97 84 63 38 31 26
78 70 70 75 73 58 53 57 54 41 39 28 37 26 31 65 72 92 75 61 56 63 57 42 36 35 31 34 38 34 34 40 36 34 37 50 84 84 69 45 35 26 26 26
82 93 80 64 55 35 28 27 26 24 25 23 28 27 29 63 100 89 86 74 62 60 52 56 44 40 38 36 42 39 36 39 36 34 35 55 85 73 49 38 32 30 28 28
75 72 53 34 28 27 31 36 36 35 31 26 24 23 34 54 83 93 74 81 72 72 66 64 53 43 43 42 41 35 37 39 36 37 40 72 93 64 47 40 34 32 30 30
53 46 50 59 57 46 37 31 34 20 17 17 18 25 37 39 61 85 91 84 84 76 66 65 56 51 43 45 46 42 36 40 37 40 50 81 85 59 47 41 37 36 38 37
44 70 69 54 30 26 24 23 22 18 13 10 11 16 24 40 58 84 97 96 73 83 77 66 56 52 46 43 45 50 41 39 39 45 55 80 78 58 50 45 43 43 45 45
62 72 74 46 31 16 10 7 7 6 7 5 5 6 14 27 51 76 97 88 84 84 79 75 54 52 50 40 45 51 44 39 41 49 60 78 73 59 51 48 47 47 50 52
69 92 100 84 41 18 15 9 8 7 6 5 4 7 7 13 27 59 95 89 74 83 92 81 70 48 46 38 47 53 41 42 46 54 66 76 73 59 54 52 52 54 59 59
100 100 100 89 56 27 23 11 8 6 6 5 5 3 5 7 13 32 52 84 72 79 95 71 61 42 42 43 50 46 43 44 50 55 64 79 71 62 58 58 60 62 62 62
100 100 91 81 82 76 49 36 25 15 10 6 6 7 5 5 9 17 31 56 54 79 70 62 48 40 43 44 50 51 50 43 45 54 71 76 69 65 61 63 64 63 63 63
99 91 83 82 93 99 92 74 61 45 20 14 9 10 12 8 9 18 32 48 58 64 70 52 40 42 39 44 50 56 48 45 56 74 82 77 72 66 66 64 64 63 64 65
94 100 100 99 100 100 100 98 89 77 36 29 26 24 28 35 33 29 36 57 74 76 65 46 39 40 46 54 49 50 53 69 81 92 90 79 74 71 68 65 63 62 66 72
100 100 98 100 87 100 100 100 100 98 84 75 59 75 68 70 72 66 80 70 71 68 53 40 41 46 54 52 48 60 78 90 96 97 91 83 77 73 69 66 63 70 73 70
100 100 100 100 100 100 100 100 100 100 100 100 95 94 96 94 98 100 100 89 70 55 47 43 47 63 74 65 67 81 94 96 96 92 87 82 78 74 72 74 75 69 66 63
100 100 100 94 100 100 100 100 100 100 100 100 99 97 97 100 100 98 70 57 64 49 52 51 65 90 83 75 80 85 94 100 99 92 87 85 86 81 76 69 69 67 59 56
100 99 100 99 100 100 100 100 100 100 97 100 100 100 100 100 85 83 84 55 50 54 58 65 87 92 84 80 80 84 90 94 93 88 90 82 78 75 76 74 62 61 53 48
100 96 100 97 100 100 100 100 100 100 98 98 100 100 100 100 100 100 99 65 60 60 60 84 95 92 84 84 90 95 98 100 93 84 77 79 80 75 67 66 56 52 52 33
97 98 100 100 100 100 100 100 100 83 85 93 100 100 100 100 100 83 62 54 56 56 77 94 97 97 96 96 98 100 100 90 80 81 82 76 73 74 64 59 59 37 29 30
79 75 84 82 91 96 96 82 89 95 96 100 100 100 98 100 89 64 55 51 55 61 84 94 95 97 98 95 91 89 88 86 84 80 77 79 68 68 72 45 31 30 38 35
100 90 92 82 90 100 100 100 98 96 100 100 100 100 85 85 76 60 52 53 58 66 82 89 92 92 91 89 89 88 89 87 79 80 75 74 78 53 33 29 40 36 39 53
99 100 100 100 100 100 100 100 99 90 72 74 72 67 64 59 56 60 52 49 54 64 77 83 84 84 85 85 87 85 83 82 80 77 75 53 36 32 37 37 43 59 52 50
100 100 100 99 100 100 96 87 85 76 66 57 52 52 49 53 59 53 47 49 46 46 55 68 78 81 79 78 81 84 79 72 61 43 36 35 37 38 37 60 59 50 53 56

GFSCGP_250_rhum_033.txt.gz
RH
89 100 100 100 98 95 88 80 80 96 100 98 71 44 35 45 41 44 38 40 41 40 35 27 24 23 27 29 27 21 21 18 17 19 20 22 25 29 39 24 26 43 71 87
100 100 100 100 100 100 88 84 95 82 100 95 91 58 48 62 45 51 46 38 41 44 39 34 26 24 26 28 30 24 24 21 22 22 21 21 24 31 30 22 35 71 84 100
100 100 100 100 97 91 98 90 86 82 75 63 62 57 67 59 48 53 54 48 44 48 42 39 31 25 24 26 28 29 25 25 25 24 23 22 21 32 30 34 67 87 99 100
95 97 89 94 95 99 97 100 79 71 64 54 48 36 65 58 57 52 56 56 56 55 49 44 34 27 28 26 26 30 30 28 27 28 25 24 22 32 34 32 98 100 100 100
100 100 100 100 100 77 68 63 62 56 42 38 43 33 39 64 91 73 65 57 58 61 55 46 37 32 28 24 25 30 35 33 31 30 29 27 24 33 31 41 99 100 100 100
96 93 95 83 72 58 54 54 52 50 45 30 46 37 42 78 100 95 76 66 56 58 54 52 48 36 32 28 28 32 37 35 32 32 33 28 30 31 34 48 63 89 90 78
87 88 89 80 76 77 76 66 52 45 42 30 38 26 39 64 92 100 73 60 57 54 58 59 58 46 35 33 33 36 41 37 33 34 36 29 29 31 35 49 74 82 81 58
96 100 86 78 83 80 68 58 52 28 24 17 15 11 22 49 44 97 94 62 56 56 50 62 57 51 41 40 42 41 47 42 37 36 40 32 28 33 39 43 64 86 77 58
100 99 99 84 68 69 54 36 25 23 24 17 19 22 22 40 28 54 61 74 59 66 59 61 68 55 42 50 46 51 53 49 42 45 43 34 32 40 40 43 73 91 83 62
98 85 68 68 67 47 41 32 24 17 11 10 8 11 19 43 24 38 38 80 73 64 87 82 80 61 52 51 48 54 54 50 44 44 51 39 34 43 43 49 76 92 81 63
74 67 68 57 57 49 46 37 32 14 5 4 5 7 10 17 25 31 32 52 85 59 66 83 78 77 62 62 51 51 61 53 47 49 48 44 38 43 47 49 79 93 80 66
72 69 64 63 67 70 66 70 44 39 20 8 4 5 3 9 11 17 21 39 56 76 58 82 84 86 81 79 65 46 52 60 52 52 52 50 43 47 49 54 82 92 82 70
67 65 64 82 82 87 65 60 51 32 22 13 6 3 3 3 6 12 15 26 41 70 55 71 79 87 90 86 81 52 50 61 54 53 57 52 43 48 52 61 79 86 83 74
75 78 91 96 91 73 93 80 56 52 34 19 10 5 3 3 5 8 12 16 34 50 52 52 75 91 92 84 78 65 49 57 52 62 68 55 50 53 61 69 73 80 81 73
92 90 84 85 70 88 99 100 85 63 49 29 16 6 5 5 5 6 9 16 28 47 49 53 68 86 89 90 78 59 45 54 56 69 64 56 63 70 69 72 75 81 78 77
91 83 85 82 100 100 100 96 74 88 84 33 20 11 8 6 8 11 14 15 31 45 60 69 68 74 83 84 72 47 43 51 58 68 65 70 73 71 74 78 82 89 86 82
96 100 72 88 100 100 100 94 85 84 87 63 47 34 21 15 18 25 31 37 50 57 64 72 71 63 70 65 55 40 46 55 68 72 75 75 75 79 82 89 97 93 92 87
98 100 99 100 100 100 100 97 100 100 94 80 70 92 78 62 58 50 51 71 89 100 100 89 64 57 60 59 51 42 53 61 63 77 85 82 88 91 94 97 97 96 94 91
78 99 100 100 100 100 93 88 100 100 100 100 100 80 83 87 90 87 99 100 100 100 97 73 72 72 66 53 46 49 59 63 70 89 88 92 95 97 100 100 99 97 94 87
77 78 100 86 100 100 100 98 91 100 100 100 100 100 100 100 100 94 98 89 88 98 97 100 89 63 49 45 51 60 66 74 89 88 89 98 100 100 99 99 98 96 83 76
75 100 100 99 100 100 100 100 94 100 100 100 100 100 100 94 100 100 100 100 100 100 98 83 66 58 55 59 63 73 89 93 95 95 100 98 96 99 100 100 92 84 78 71
64 94 100 100 100 96 100 100 100 88 100 100 100 100 100 100 100 100 100 100 99 74 61 61 62 64 67 68 85 99 100 100 100 99 98 98 100 100 97 91 85 76 69 60
65 64 73 78 81 90 100 100 97 95 93 100 100 100 100 100 100 100 100 100 93 68 63 64 67 70 72 93 100 100 100 100 98 97 100 100 97 93 88 81 73 62 58 58
75 85 79 84 85 86 92 92 91 92 95 100 100 100 100 100 100 100 100 100 89 82 62 64 70 81 97 100 100 100 100 100 100 99 95 90 86 82 74 63 57 56 43 39
98 98 100 100 99 100 100 100 97 100 100 97 100 100 100 100 100 100 96 81 74 70 66 66 74 87 97 99 100 98 96 96 94 89 84 80 73 64 57 54 45 41 40 35
100 100 100 93 83 84 79 96 100 92 81 98 100 100 100 100 100 99 96 99 91 70 60 63 65 73 84 90 92 91 89 84 80 74 65 59 56 53 43 42 41 37 38 62

GFSCGP_250_rhum_036.txt.gz
RH
100 100 100 100 100 100 99 91 88 83 72 66 76 81 100 100 100 100 92 54 47 38 40 46 46 31 21 23 31 26 22 22 23 22 19 17 16 17 18 21 23 27 24 25
100 100 100 100 100 100 100 100 96 90 91 61 73 64 85 100 100 100 100 93 72 51 38 42 44 47 40 30 33 34 26 22 21 22 23 21 18 16 25 30 23 20 18 21
100 100 100 100 100 100 100 90 98 95 90 77 77 74 82 72 98 100 100 100 96 79 52 41 43 43 39 38 38 36 27 24 20 20 22 24 22 20 20 22 22 20 21 23
77 87 94 96 100 98 89 85 89 92 95 85 74 48 80 90 100 100 100 98 93 81 66 46 43 47 42 36 36 34 27 24 22 18 21 24 23 23 24 27 27 24 23 25
74 87 91 97 83 75 81 94 85 70 64 58 60 47 48 80 84 94 88 76 71 67 60 56 46 47 47 41 40 38 30 28 24 19 19 26 27 25 25 34 30 28 25 27
91 89 91 85 80 75 78 80 81 83 76 49 60 40 37 54 54 63 68 62 51 50 52 52 44 49 52 42 45 50 39 32 26 22 20 25 30 29 32 47 35 30 29 30
88 96 98 95 89 83 81 75 66 61 56 53 53 41 47 62 43 52 52 57 49 43 50 55 54 49 59 53 46 46 38 33 27 24 24 28 33 33 73 62 42 36 33 34
100 100 94 87 79 73 71 73 75 64 58 61 53 54 42 49 44 42 40 47 54 41 46 54 58 61 58 56 55 52 40 36 31 29 29 33 38 35 44 73 61 41 41 40
100 99 88 83 80 79 85 96 76 65 59 47 46 41 34 25 21 23 22 25 46 48 34 55 69 68 66 58 57 60 47 40 35 35 35 44 44 40 48 46 52 43 50 47
98 97 97 86 93 76 79 78 66 59 49 43 37 30 22 11 9 12 12 12 20 26 34 43 63 68 71 59 57 58 49 48 47 44 48 59 52 45 51 54 50 43 47 50
100 98 99 89 75 77 73 63 62 56 50 42 35 42 12 7 8 8 12 11 13 16 17 40 54 75 67 64 66 65 54 55 52 50 60 69 60 50 51 54 57 44 46 53
100 99 82 76 75 66 62 54 73 79 64 44 34 60 14 4 5 7 10 14 18 16 13 27 49 72 65 70 74 65 51 58 56 53 61 79 72 55 57 62 63 50 50 56
96 85 81 71 63 54 82 76 60 59 69 56 17 22 8 5 4 4 6 10 17 22 19 22 60 74 63 79 78 57 60 64 70 64 58 72 76 68 64 67 72 60 58 57
88 84 71 61 70 79 65 72 99 100 91 82 35 16 8 6 4 4 4 5 12 26 26 26 64 75 58 82 66 67 68 74 77 77 63 60 73 74 71 73 79 71 60 53
87 71 75 77 79 64 87 85 99 91 98 70 29 13 7 6 4 4 3 4 10 26 36 40 53 61 59 66 68 81 85 92 98 92 79 59 67 66 71 76 83 74 58 57
73 79 81 76 89 76 88 100 100 75 91 57 31 24 16 7 6 4 4 6 11 30 46 54 54 63 70 74 72 88 99 100 100 100 83 55 60 61 73 80 84 71 70 71
83 76 82 100 82 81 100 100 100 100 87 76 81 46 19 16 10 9 11 12 16 40 56 65 56 64 79 86 90 88 100 100 100 99 91 61 58 61 64 76 86 87 87 83
93 78 74 100 98 100 100 100 100 100 100 82 96 96 60 24 18 17 19 22 25 57 69 77 71 81 96 100 99 98 100 100 97 92 86 56 51 57 62 81 91 91 94 92
94 71 77 100 100 96 100 100 100 100 99 98 87 99 100 84 51 62 65 54 59 76 99 100 100 100 100 100 95 82 87 86 93 86 66 50 54 61 70 87 97 100 98 96
95 91 85 82 92 100 98 93 100 100 100 100 82 97 96 100 100 89 100 100 100 100 100 100 100 100 98 99 98 84 90 97 92 64 51 54 59 64 76 94 100 100 98 96
94 82 78 86 100 100 100 100 100 99 100 100 100 90 98 100 98 100 100 90 100 100 90 94 91 90 91 92 86 87 88 73 57 52 56 60 66 75 96 100 100 97 96 85
88 68 62 76 82 85 96 88 100 99 100 100 100 100 100 100 100 100 96 99 100 99 96 97 94 87 77 73 70 65 65 64 62 63 66 78 94 100 100 100 97 86 78 76
94 69 64 70 75 82 89 85 98 94 100 100 100 100 100 100 100 100 100 100 100 100 100 100 100 99 100 100 95 85 77 73 73 82 98 100 100 100 94 88 83 76 74 78
86 80 72 74 88 90 98 100 93 89 99 100 100 100 100 100 100 100 100 100 100 100 100 98 90 90 95 95 93 91 89 95 100 100 100 100 96 91 89 83 76 78 79 76
88 85 89 93 96 97 93 87 78 89 88 97 96 100 100 100 100 100 100 100 100 99 98 98 99 99 98 97 98 100 100 100 100 100 100 100 96 89 82 79 77 72 58 54
91 89 95 100 100 100 76 84 99 90 96 80 82 91 96 100 100 100 100 100 100 100 100 100 100 100 100 100 100 100 100 100 99 97 91 85 82 80 72 60 52 51 52 48

GFSCGP_250_rhum_039.txt.gz
RH
100 100 100 100 98 92 92 94 88 90 85 80 70 71 74 72 66 62 68 75 91 96 70 66 68 66 51 36 30 29 31 31 24 20 18 17 18 22 23 16 15 15 14 14
100 100 100 100 100 100 100 99 92 83 78 76 76 75 72 71 65 66 72 77 92 100 100 86 80 73 72 57 35 30 30 31 28 22 18 17 20 24 22 22 25 29 24 18
100 100 100 100 100 100 100 97 99 96 91 87 84 76 78 81 96 86 84 80 81 100 100 100 90 73 76 75 62 40 34 33 34 30 24 20 22 23 24 28 26 30 35 46
100 100 100 100 100 100 100 100 100 96 96 94 96 76 94 100 100 94 96 93 88 86 99 100 100 81 62 70 80 52 44 40 37 34 37 32 27 25 24 24 28 31 32 41
88 84 81 81 76 87 88 100 100 100 97 92 99 86 95 100 100 100 95 89 79 63 59 79 86 82 74 70 67 68 41 46 42 38 33 35 31 28 27 25 24 35 35 34
79 92 99 99 99 100 100 100 100 100 96 81 99 89 90 97 88 90 87 68 60 56 56 44 45 59 62 61 73 72 56 52 45 45 36 36 33 30 25 25 25 34 38 42
98 100 98 94 92 93 89 81 74 73 71 61 61 52 61 92 72 53 43 43 50 54 51 45 48 52 55 60 60 74 68 55 52 47 43 40 40 35 30 27 25 32 41 41
76 50 50 57 62 66 67 70 73 55 65 64 56 61 71 69 72 49 44 37 36 37 40 45 43 41 43 45 45 61 62 65 65 54 49 50 50 39 34 29 31 35 58 64
45 64 73 82 87 86 87 73 81 71 68 64 72 78 63 71 80 42 45 33 29 31 38 38 44 36 43 44 50 56 58 71 75 65 52 57 51 42 37 40 43 45 73 88
88 89 90 91 76 68 75 88 92 87 72 74 70 64 66 65 46 36 30 15 12 17 22 30 37 47 42 55 54 59 61 73 82 78 62 66 58 53 52 40 37 47 61 79
83 80 84 70 73 97 100 99 80 74 74 62 58 68 54 38 27 17 14 7 9 10 13 13 16 25 39 49 59 65 68 85 98 91 68 64 67 55 51 47 61 64 68 68
96 99 92 96 100 98 91 78 80 66 61 74 73 87 42 35 19 17 9 5 9 15 7 9 12 16 21 35 51 64 74 87 100 83 75 76 67 58 54 57 62 73 79 75
99 99 97 100 97 92 87 68 61 81 70 91 81 96 23 24 16 9 4 3 7 5 4 6 10 15 23 27 37 56 74 88 100 84 80 75 65 62 54 57 67 90 80 71
100 100 100 99 95 81 56 58 72 70 86 97 95 85 33 16 9 8 5 3 3 2 3 6 10 16 24 25 33 62 76 100 98 78 86 81 65 67 69 71 67 78 88 82
100 100 99 95 72 59 56 83 96 97 97 99 100 81 24 8 7 6 4 3 3 3 3 9 14 20 22 30 62 86 100 98 77 78 92 69 67 78 79 79 71 70 77 81
99 100 90 71 62 60 62 78 100 100 100 100 100 98 39 21 12 8 5 4 3 4 5 12 22 28 30 58 95 100 100 86 92 89 79 75 77 79 87 98 100 96 70 72
97 91 74 74 68 76 94 93 98 96 99 100 90 96 52 44 28 12 7 5 4 5 12 23 31 30 48 90 100 100 90 98 100 96 92 93 95 98 100 97 89 91 69 65
95 76 74 61 87 99 84 91 82 100 100 91 100 100 82 54 36 24 13 9 9 22 35 37 33 52 93 100 100 97 100 100 100 100 100 97 96 100 100 100 100 99 68 60
88 77 72 64 99 97 87 88 77 95 100 100 99 100 85 97 76 96 85 76 62 54 52 50 66 96 100 100 100 97 100 100 100 100 99 100 100 100 100 100 100 72 63 58
84 87 96 74 72 92 94 86 94 92 100 84 100 100 100 91 93 97 100 100 99 86 88 94 100 100 100 100 100 100 100 100 100 98 98 100 100 100 100 87 65 62 58 61
93 86 88 71 60 72 100 100 100 100 100 100 88 100 100 100 100 93 92 100 100 100 100 100 97 100 100 100 100 100 100 100 100 100 98 94 98 81 68 69 67 68 72 75
100 96 93 80 64 60 89 100 91 97 100 100 100 100 100 100 100 100 94 100 100 92 100 100 100 100 100 96 88 87 88 87 87 88 83 73 76 82 83 86 88 89 95 100
94 98 100 66 58 66 76 88 88 84 93 100 100 100 100 100 100 100 100 100 100 98 100 100 98 96 94 94 95 93 87 83 84 90 98 100 99 98 100 100 100 100 100 98
85 75 79 73 66 72 84 83 76 82 79 97 94 100 86 93 96 100 100 100 96 97 97 92 94 94 89 89 92 94 97 100 100 100 100 100 100 100 100 100 100 96 96 99
83 75 75 79 78 95 96 84 83 97 77 83 85 86 76 94 98 100 100 100 100 99 98 99 100 100 100 100 100 100 100 100 100 100 100 100 100 100 100 100 100 100 99 93
84 95 87 87 96 100 98 80 98 88 90 88 65 76 92 91 94 93 96 100 100 100 100 100 100 100 100 100 100 100 100 100 100 100 100 100 100 100 100 100 94 85 79 71

GFSCGP_250_rhum_042.txt.gz
RH
100 100 100 84 70 70 87 100 100 100 100 97 76 69 70 67 58 69 63 65 69 65 64 72 78 88 94 95 87 59 37 40 37 32 28 27 23 25 30 24 21 23 22 23
100 100 100 100 99 96 84 70 70 71 80 71 76 67 66 68 64 59 66 63 68 70 69 64 60 65 76 90 100 100 84 50 46 39 37 27 28 32 31 27 23 21 24 25
99 100 100 100 100 98 96 94 88 79 74 77 78 70 69 69 71 72 70 70 68 70 68 65 63 56 57 76 93 100 100 75 57 56 37 36 31 36 33 34 31 25 25 28
96 100 100 100 100 90 89 99 100 95 88 84 86 86 91 81 86 95 91 82 75 74 74 70 63 59 54 64 83 100 100 100 80 71 52 45 37 37 46 43 42 49 30 33
99 93 100 100 100 94 94 100 100 100 100 100 100 89 94 96 96 87 98 89 90 76 68 75 81 79 59 56 70 91 100 100 100 76 68 52 58 56 66 62 54 45 38 35
75 96 99 98 100 96 87 93 85 86 92 91 100 98 95 100 100 100 93 87 85 77 76 85 94 87 55 62 71 74 88 99 99 88 79 66 69 53 64 51 40 37 35 38
69 82 85 100 100 99 100 100 100 88 84 92 81 73 96 100 100 100 89 75 72 75 85 92 90 82 55 53 62 64 69 75 79 89 80 74 65 67 61 61 49 41 35 36
89 77 92 88 84 92 92 90 75 71 79 86 86 84 96 100 98 91 68 59 51 51 45 44 48 58 57 53 44 51 56 55 59 58 63 63 73 69 67 65 58 46 38 37
77 84 74 75 78 75 75 77 93 98 94 84 76 67 61 66 77 76 54 45 37 30 30 33 38 38 40 44 46 45 44 47 47 57 53 60 64 82 70 70 68 56 48 46
93 88 92 92 86 86 90 68 54 51 48 60 54 56 65 65 61 63 58 59 44 36 30 26 25 30 35 36 38 35 40 46 49 50 52 55 64 71 78 94 91 63 56 52
82 90 92 78 60 49 55 70 68 66 74 57 68 75 73 65 64 60 47 37 33 24 17 12 11 19 23 29 30 44 39 38 44 42 49 60 77 84 98 100 93 73 61 70
72 62 47 48 60 73 97 73 80 79 82 80 71 72 58 62 45 26 19 21 15 12 9 9 10 12 11 16 22 30 32 37 48 56 65 69 71 90 100 100 96 80 78 80
48 48 53 75 98 94 82 78 80 89 78 70 71 82 62 48 36 24 21 14 9 7 6 6 10 8 12 16 20 22 21 30 46 66 65 71 80 100 100 100 99 90 90 73
73 76 89 89 82 73 70 84 72 68 72 67 72 71 92 67 43 23 16 10 7 5 4 6 5 5 11 15 16 13 20 31 43 53 65 74 90 100 100 100 93 95 95 75
83 90 86 74 75 85 75 65 68 76 78 67 79 86 93 59 33 24 15 8 6 5 4 3 4 5 7 11 14 18 26 33 41 52 67 91 99 100 100 100 97 100 86 73
90 89 76 81 84 75 67 65 70 83 81 90 85 90 86 84 42 19 10 5 4 4 4 4 5 6 11 13 16 24 31 43 51 64 75 100 100 100 100 97 97 93 73 78
85 85 86 87 81 71 62 88 78 84 93 100 100 94 89 86 35 44 19 8 6 5 5 5 10 12 16 23 38 44 50 57 65 84 100 100 100 96 99 100 98 84 89 94
94 99 98 76 67 66 70 69 84 82 93 100 98 100 99 95 59 87 60 33 22 20 22 28 36 41 42 40 41 52 70 88 100 100 100 100 100 100 100 100 100 98 100 100
100 100 80 70 65 93 99 77 84 100 99 98 100 100 100 97 80 100 98 71 72 67 59 53 47 50 65 81 97 100 100 100 100 100 100 100 100 100 100 100 100 100 100 100
100 86 68 73 69 90 74 72 98 100 100 94 85 100 100 98 100 100 100 100 100 91 100 100 100 100 100 100 100 100 100 100 100 100 100 100 100 100 100 100 78 80 93 100
94 78 79 80 84 78 61 100 100 99 83 95 79 83 98 100 98 100 98 100 100 97 100 100 100 100 100 100 100 100 95 100 100 100 100 100 100 83 94 100 100 100 95 73
95 82 88 80 71 70 65 72 79 75 78 96 96 84 70 100 96 100 100 100 100 98 100 100 84 100 100 100 100 100 91 100 100 100 82 98 100 100 100 100 88 87 99 100
87 94 97 79 88 72 81 76 63 68 80 82 68 68 68 94 100 100 97 92 98 95 96 98 86 76 89 92 100 100 93 85 96 100 100 96 88 91 98 100 100 100 100 100
98 98 98 91 81 98 81 82 85 69 82 76 58 61 60 83 86 99 95 100 95 92 99 95 100 100 96 97 98 96 95 94 94 99 100 100 100 100 100 100 100 100 100 100
94 96 94 80 80 90 88 94 99 97 78 70 64 64 56 68 85 90 91 99 100 100 100 99 100 100 99 100 100 100 100 100 100 100 100 100 100 100 100 100 99 98 96 93
90 100 97 72 87 86 92 96 100 97 95 95 100 80 67 70 79 90 92 97 95 97 94 96 96 96 99 100 100 100 100 100 100 100 100 100 100 99 89 83 80 75 70 66

GFSCGP_250_rhum_045.txt.gz
RH
91 100 99 100 99 100 100 100 100 100 100 100 100 100 100 100 92 93 96 90 92 91 77 58 63 60 59 63 62 64 60 56 62 57 44 41 36 40 39 38 36 34 31 25
90 100 100 94 80 92 100 100 100 100 100 100 100 100 100 100 100 100 100 100 100 79 62 56 58 69 77 78 70 67 66 68 72 73 74 62 58 62 72 89 55 57 48 32
92 90 93 98 100 94 83 89 93 100 100 100 100 100 100 100 100 100 100 99 75 62 61 59 64 64 69 73 74 74 72 70 69 60 58 69 67 65 65 74 69 58 48 37
100 100 100 100 100 92 91 81 85 82 82 85 92 95 100 100 94 86 76 70 70 77 79 72 73 68 66 60 63 67 69 68 68 68 52 53 69 74 76 66 74 67 73 80
99 100 100 92 84 90 86 84 77 76 72 71 71 65 89 78 83 88 85 92 88 80 75 73 71 65 64 65 73 70 67 73 71 70 55 58 74 85 81 67 64 78 82 73
100 100 94 89 90 97 100 90 73 75 77 74 82 66 73 96 100 100 100 94 85 87 78 69 66 66 71 74 72 71 71 69 65 63 65 59 76 86 88 75 67 73 77 75
93 88 88 81 84 87 96 98 82 67 65 68 63 63 77 92 100 100 100 79 69 70 72 78 83 80 76 65 57 57 62 64 64 59 63 66 80 88 85 85 86 82 76 77
90 95 89 85 75 83 86 86 83 87 97 85 63 75 82 83 72 68 73 86 90 91 82 73 63 68 78 83 76 64 54 51 54 52 53 75 67 92 79 81 87 92 89 70
58 64 58 62 66 61 76 76 87 92 95 91 87 82 92 100 100 85 78 54 54 54 54 59 70 74 66 66 65 59 54 44 38 36 37 55 60 70 87 91 88 71 71 68
70 54 58 65 64 72 78 96 93 87 79 82 91 100 96 75 71 72 81 76 67 62 51 44 40 30 28 27 28 32 38 34 35 37 42 51 63 69 77 74 70 69 69 67
81 76 82 70 75 86 94 92 80 80 80 84 96 86 73 60 52 54 67 61 48 39 34 31 32 31 30 28 27 29 34 39 34 36 44 51 59 70 67 67 68 70 68 65
96 90 74 77 87 99 100 97 98 93 75 67 55 73 53 54 55 52 50 41 30 22 16 13 16 19 19 14 13 14 18 32 43 43 59 71 61 60 56 54 57 58 64 75
98 96 94 100 99 90 76 64 66 72 72 64 60 55 52 53 52 45 44 53 36 25 16 10 9 7 9 8 9 12 16 22 30 37 50 53 54 62 59 64 68 77 77 96
91 83 76 71 65 68 73 70 66 80 71 74 58 61 52 61 66 63 74 41 20 12 9 6 6 6 6 8 8 9 16 22 30 33 28 34 39 53 70 81 87 85 88 90
62 65 67 83 79 68 63 63 70 68 78 72 66 62 75 70 73 86 62 32 11 7 4 4 4 4 4 5 6 9 14 26 34 38 20 25 32 51 70 91 97 88 91 100
82 83 77 71 65 56 67 70 72 74 70 70 70 85 62 64 94 78 62 50 14 7 6 4 3 4 5 7 7 7 11 18 27 26 28 31 45 61 80 96 96 100 100 100
78 72 70 64 60 70 72 69 70 70 98 86 85 87 80 84 81 88 72 59 46 24 11 8 6 6 8 10 14 21 29 34 37 35 40 53 64 88 98 100 100 100 100 100
75 68 67 62 73 83 75 73 70 96 94 92 92 100 100 92 91 85 93 83 61 46 39 34 28 25 25 27 33 39 43 52 61 66 69 79 94 100 100 100 100 100 100 100
76 74 70 84 90 76 83 76 79 83 99 87 77 92 88 99 100 82 100 100 96 89 71 62 57 52 48 49 55 65 76 86 88 96 100 100 100 100 100 100 100 100 100 100
84 86 86 86 89 66 94 85 83 100 100 89 85 94 70 82 85 82 68 100 98 100 92 85 92 100 100 100 100 100 100 100 100 100 100 100 100 100 100 100 100 98 86 65
91 97 92 84 77 70 90 79 100 96 82 81 87 80 62 92 84 81 82 90 79 78 100 100 100 100 99 99 100 100 100 100 100 100 100 100 100 99 84 79 70 66 85 78
99 100 89 82 81 90 79 74 68 72 69 81 90 65 52 82 87 79 97 97 92 59 92 99 78 94 74 90 84 100 100 100 93 96 92 93 95 82 71 84 100 100 100 100
100 100 83 87 76 83 70 78 71 74 81 70 64 49 45 69 76 85 87 84 94 100 83 88 100 74 100 100 78 62 100 88 82 86 98 98 85 83 100 100 100 100 100 100
100 96 86 96 94 81 96 81 94 86 83 78 71 68 56 68 65 74 79 81 87 98 100 100 100 100 100 100 100 100 100 100 100 100 100 100 100 100 100 100 97 78 86 89
100 93 88 100 91 92 92 92 85 94 98 96 90 96 80 68 68 81 77 80 85 89 92 98 100 100 100 100 100 100 100 100 100 100 97 94 91 83 85 94 98 96 87 82
93 96 99 99 90 83 86 92 98 92 90 97 98 100 88 69 69 78 89 88 85 89 88 84 90 89 87 84 84 82 84 87 88 86 95 99 100 100 99 94 92 85 83 76

GFSCGP_250_rhum_048.txt.gz
RH
85 95 85 100 100 100 100 100 100 100 100 99 91 96 100 100 100 100 100 100 97 100 100 91 89 83 73 66 69 75 78 68 52 46 54 71 65 66 85 90 75 63 100 79
76 97 100 95 99 100 100 100 100 100 100 100 100 100 100 100 100 100 100 100 100 95 89 92 92 82 86 88 78 66 68 59 54 54 58 54 66 56 73 78 87 100 100 99
80 77 85 86 91 95 100 100 100 100 100 100 100 100 100 100 100 100 100 100 100 100 100 100 100 100 100 96 90 79 67 56 54 64 70 67 65 68 69 74 82 100 100 100
85 76 72 90 93 95 95 100 100 100 100 100 100 100 100 100 100 100 100 100 100 100 100 100 100 100 100 100 97 77 67 61 59 64 68 74 77 71 68 66 62 73 83 82
99 100 100 82 81 93 99 100 99 87 99 100 100 100 100 100 100 100 100 100 100 100 100 100 100 100 100 88 71 71 72 72 72 79 74 79 79 75 76 69 65 72 83 87
96 90 100 97 75 82 90 97 86 94 95 91 96 93 100 100 100 99 100 100 99 98 99 97 95 88 79 66 64 72 70 67 65 65 66 64 63 68 74 77 76 71 68 79
92 87 90 100 96 84 86 88 92 97 94 97 89 80 89 99 94 92 86 86 84 79 76 71 63 66 69 76 76 71 62 56 53 49 48 52 61 62 60 68 72 68 72 77
85 84 95 100 100 100 89 93 97 97 84 74 76 74 82 68 67 74 69 68 64 59 56 56 57 62 57 51 49 54 54 55 53 51 50 45 48 56 60 72 85 70 71 89
69 78 81 89 99 94 90 90 95 94 86 82 77 84 77 68 62 61 60 65 60 57 54 54 52 54 52 51 53 59 54 52 51 55 59 56 50 50 65 73 81 83 82 87
71 77 87 89 90 98 98 91 82 76 76 79 80 81 94 84 60 50 49 50 54 56 59 61 53 53 54 61 69 63 53 47 45 48 54 59 49 51 59 66 65 61 74 97
65 68 77 82 92 100 99 85 61 56 63 76 98 100 67 64 72 70 70 70 69 59 51 45 49 55 50 46 42 37 31 25 28 34 37 48 49 42 41 45 54 62 76 99
70 78 85 99 95 94 90 86 78 66 80 80 77 94 76 79 80 74 80 77 57 52 47 40 29 25 27 30 29 32 32 33 32 34 39 43 42 43 44 55 61 66 79 92
65 78 89 91 94 85 70 66 79 96 89 82 92 92 95 83 67 66 61 54 45 35 28 21 16 14 14 14 19 19 21 22 23 21 26 34 44 47 51 58 63 63 66 68
88 84 90 98 97 92 90 96 97 93 97 84 75 69 64 66 57 47 52 51 45 51 33 18 10 4 4 4 5 8 9 12 15 16 20 27 34 36 37 46 56 64 82 90
94 99 100 100 98 90 94 91 78 85 82 70 65 63 59 54 50 61 74 71 62 57 35 13 7 4 4 3 4 5 8 10 11 13 17 20 31 40 55 67 53 51 71 87
100 98 93 84 75 75 80 76 68 68 69 72 71 59 61 57 62 58 67 85 66 48 44 20 9 4 4 4 5 6 8 10 13 17 19 28 39 52 62 68 47 44 62 85
72 74 83 85 83 76 64 67 70 73 79 74 78 89 85 67 59 62 92 77 91 72 42 37 20 8 8 9 10 11 10 11 14 20 28 38 49 55 60 53 54 54 74 97
98 97 83 73 68 66 69 66 70 76 99 77 65 65 66 71 71 67 77 92 98 94 64 46 40 31 25 20 21 23 25 34 45 54 58 61 67 76 71 71 87 100 100 100
92 80 74 70 68 68 68 73 80 76 75 73 63 67 68 63 68 79 76 96 70 80 70 58 55 65 68 61 56 59 62 63 66 70 75 80 85 98 99 100 100 100 100 100
89 75 73 66 67 73 76 86 82 72 80 63 66 71 62 62 73 87 86 84 85 81 74 70 70 82 71 80 78 82 83 95 100 100 100 100 100 100 100 100 100 100 100 95
82 83 69 71 70 84 81 100 90 94 72 66 83 72 61 62 72 72 84 66 96 90 100 84 68 77 100 100 100 100 100 100 100 99 100 100 100 100 100 98 94 82 83 76
95 82 76 86 80 93 88 95 98 83 73 73 73 65 50 60 81 76 73 76 75 100 98 94 100 82 77 75 65 71 74 80 73 90 100 98 82 76 77 69 69 68 68 60
91 84 87 96 89 99 92 90 88 83 73 77 68 55 63 73 72 70 65 90 87 80 98 92 97 85 58 78 87 99 83 94 81 81 85 91 93 85 77 79 76 75 83 87
89 89 88 92 93 100 96 98 89 77 87 80 58 78 81 89 85 72 66 73 80 85 100 92 91 100 100 94 100 95 100 89 96 90 82 79 77 80 83 83 82 82 83 93
90 88 85 84 96 96 85 90 80 77 79 67 83 95 100 88 95 84 78 80 72 79 81 89 98 97 92 95 93 93 93 93 96 99 100 100 100 100 100 99 92 84 82 84
87 80 81 83 100 94 95 94 85 79 66 70 92 88 92 97 84 98 92 91 82 80 76 81 80 86 89 93 98 98 97 100 98 92 85 82 86 87 85 86 86 87 89 93

GFSCGP_250_rhum_051.txt.gz
RH
42 84 100 100 100 100 100 100 100 100 100 100 100 100 100 100 100 100 100 96 100 100 100 94 100 97 94 89 85 77 71 79 85 80 74 62 54 49 60 65 72 88 89 81
57 42 95 100 100 100 100 100 100 100 100 100 100 100 100 100 100 100 100 100 100 100 100 100 98 99 100 100 89 93 90 70 69 75 75 78 77 70 63 59 59 71 83 80
63 69 64 81 100 100 100 100 100 100 100 100 100 100 100 100 100 100 100 100 100 100 100 100 100 98 100 100 96 88 80 71 67 70 76 73 73 80 83 75 65 72 79 91
59 54 64 62 72 86 100 100 100 100 100 100 100 100 100 100 100 100 100 100 100 100 100 100 100 100 100 100 100 100 100 94 92 90 94 95 100 96 90 70 59 57 63 78
90 60 53 71 77 79 97 99 100 100 100 100 100 100 100 100 100 100 100 100 100 100 100 100 100 100 97 96 100 100 100 100 100 94 94 99 98 99 83 71 63 57 65 70
60 64 57 62 71 82 90 92 86 94 100 100 100 100 100 100 100 100 99 95 99 100 100 100 100 100 100 96 90 91 96 97 98 97 96 99 88 83 76 72 66 62 62 72
70 67 75 61 70 90 90 85 85 74 83 100 100 100 100 100 100 100 100 100 97 94 95 99 97 97 92 93 91 90 88 85 79 86 87 81 77 72 68 79 80 73 79 82
69 79 87 99 95 73 78 81 90 94 89 92 91 93 97 100 100 100 100 95 87 86 86 86 85 84 82 82 83 85 86 85 82 74 68 62 62 66 72 72 70 76 64 62
55 73 90 100 100 85 82 80 91 95 96 100 99 100 100 87 76 78 82 80 79 78 76 68 62 61 66 66 63 60 63 63 67 64 55 55 58 63 66 64 64 66 85 84
59 80 93 100 91 90 89 94 100 86 84 97 99 100 93 90 82 74 66 65 61 55 51 52 56 59 58 55 55 57 53 49 47 43 41 42 45 49 50 48 57 65 93 98
74 81 92 95 100 75 90 99 100 100 100 90 95 92 82 78 70 66 59 54 48 43 49 61 56 53 50 44 37 35 34 32 33 30 30 34 46 54 55 57 57 60 66 79
84 98 100 100 98 97 93 91 84 94 99 94 88 83 67 60 66 60 54 50 57 66 69 73 60 49 36 31 31 33 29 23 20 21 23 29 39 38 37 38 41 42 46 52
88 97 100 99 98 88 86 86 78 87 86 78 88 68 62 77 78 67 73 70 81 71 63 49 39 36 30 26 21 17 16 18 19 21 23 26 34 39 41 42 45 48 51 52
92 99 100 98 88 92 92 89 86 82 80 82 77 84 80 84 96 99 91 74 66 60 51 42 34 28 21 19 14 11 6 6 9 11 15 23 29 32 35 39 41 42 53 56
89 99 96 94 88 77 70 81 89 78 88 64 99 95 97 99 88 85 68 52 44 44 50 46 37 27 21 15 6 3 3 3 5 6 8 12 18 26 33 41 56 59 64 55
98 100 94 92 88 93 100 100 94 94 100 97 94 92 91 74 63 54 48 47 51 75 72 47 51 36 20 13 7 5 4 3 5 6 7 10 13 16 25 40 45 56 66 72
100 100 100 94 93 100 100 99 100 93 86 88 87 81 78 74 64 53 46 60 62 97 84 83 60 41 31 20 10 6 7 7 9 12 14 17 20 25 32 37 39 58 72 73
100 100 99 96 99 88 78 82 84 89 89 82 81 82 74 60 56 50 53 64 80 95 86 69 70 62 51 31 23 23 17 15 19 25 28 30 45 42 44 53 68 78 82 83
94 81 71 74 79 83 80 78 79 76 79 91 94 73 70 61 51 57 56 70 99 100 94 78 80 68 62 60 44 32 31 28 37 46 53 79 88 89 92 96 99 100 100 100
81 85 88 84 78 82 80 77 70 71 85 100 92 75 66 53 56 56 71 68 100 100 96 85 95 76 66 56 61 59 52 60 77 84 91 96 100 100 100 100 100 100 99 100
87 84 81 83 84 78 67 66 74 90 95 92 79 67 58 53 55 62 69 73 86 95 86 94 84 100 90 83 74 65 61 63 76 67 79 96 87 89 100 86 83 81 94 84
96 89 86 80 76 69 75 77 87 100 97 86 77 71 61 51 51 63 74 79 87 99 86 91 83 78 100 96 100 98 98 97 90 97 90 94 92 89 83 93 100 100 100 100
100 98 89 81 71 76 84 88 93 100 100 93 84 74 66 60 72 63 73 81 85 98 100 99 85 75 98 90 90 93 99 92 92 94 88 97 100 100 100 95 94 91 75 70
98 96 90 81 80 84 85 92 100 100 98 90 88 73 68 88 97 76 66 81 87 86 100 100 91 79 76 80 88 98 96 93 81 80 87 90 88 84 78 75 73 72 75 80
98 91 87 80 80 89 84 98 100 100 97 87 69 74 79 88 94 84 73 78 96 94 86 87 97 97 90 81 72 78 83 91 97 97 95 91 92 93 92 90 89 88 92 95
99 90 94 86 95 82 82 99 100 100 93 78 73 62 73 81 93 94 75 78 90 92 90 85 91 90 94 94 93 98 99 100 99 90 86 86 86 89 93 95 96 100 100 100

GFSCGP_250_rhum_054.txt.gz
RH
28 30 64 100 100 100 100 100 100 100 100 100 100 100 100 100 100 100 99 98 96 100 100 100 99 90 91 90 88 86 82 95 92 84 84 76 71 75 92 95 86 86 88 80
29 25 49 96 100 100 100 100 100 100 100 100 100 100 100 100 100 99 96 93 88 96 100 100 100 100 100 100 100 100 96 83 87 88 96 96 100 100 100 100 94 83 78 76
29 29 36 74 80 100 100 100 100 100 100 100 100 100 100 100 100 99 89 93 93 99 100 100 100 99 100 100 100 100 100 100 100 100 100 100 100 100 100 98 92 91 69 71
24 37 48 31 68 80 100 100 100 100 100 100 100 100 100 100 100 100 100 100 100 100 100 95 99 100 98 93 95 100 100 100 100 100 100 100 100 100 100 92 90 89 86 82
26 29 36 40 49 75 91 100 100 100 100 100 100 100 100 100 100 100 100 100 100 100 100 97 87 92 100 100 100 100 100 100 100 100 100 98 94 100 100 100 94 90 91 95
27 30 38 52 64 52 73 100 100 100 100 100 100 100 100 100 100 100 100 100 100 100 98 94 90 88 88 93 99 100 100 100 92 90 85 77 83 90 100 100 100 100 94 97
34 32 45 66 72 64 57 73 100 100 100 100 100 100 100 100 100 100 100 100 100 100 100 100 100 100 98 94 86 79 77 80 92 99 98 100 100 96 97 100 100 100 100 100
59 60 58 73 91 100 66 60 60 88 100 100 100 100 100 100 100 100 97 93 93 93 100 100 99 89 84 88 91 92 98 98 98 98 94 92 95 98 98 94 94 94 95 96
42 65 54 58 72 92 99 82 71 68 62 86 100 97 100 100 100 95 96 97 94 87 85 83 87 96 98 98 93 82 85 87 84 85 82 80 76 78 78 73 72 72 70 74
39 67 67 70 73 82 94 94 89 81 87 91 90 86 87 90 93 97 100 100 92 89 86 77 70 71 69 76 76 72 70 72 69 63 57 55 52 51 48 44 47 52 64 82
51 65 67 78 82 92 93 78 80 84 91 100 97 85 79 82 84 89 90 84 82 85 80 70 65 70 69 66 61 56 49 45 36 29 24 23 22 20 22 28 36 53 63 66
55 67 81 91 100 98 92 99 77 75 89 99 90 74 69 77 83 87 93 82 80 78 70 66 68 66 63 56 44 35 28 20 19 20 19 18 18 20 24 27 30 37 50 65
62 85 99 99 100 100 100 95 86 82 76 79 93 79 69 70 72 69 75 76 72 72 66 60 57 51 46 36 35 30 25 22 20 16 16 15 18 19 18 23 30 43 55 57
74 90 96 97 99 96 90 81 76 78 74 84 81 85 85 84 84 76 76 84 70 51 52 64 64 55 42 36 30 26 26 20 13 11 9 9 9 13 18 19 24 35 47 52
81 90 93 98 98 96 99 100 100 100 100 88 93 88 86 91 95 93 91 79 77 73 67 57 46 37 41 45 29 21 16 12 7 4 4 3 4 6 10 16 26 38 45 56
80 85 94 95 96 100 100 100 99 94 93 76 96 93 82 95 98 99 91 79 73 49 46 47 48 63 69 52 35 25 21 15 7 4 4 5 6 8 9 10 17 35 56 68
86 86 88 89 97 100 98 94 86 86 87 93 100 98 100 100 98 92 78 61 50 46 60 59 61 84 76 60 54 41 32 23 13 9 9 10 10 11 14 16 21 30 45 63
87 91 88 78 86 88 92 86 87 100 100 100 100 100 100 95 87 76 62 51 51 56 64 62 78 85 63 67 67 55 43 38 33 20 14 17 23 25 26 29 32 47 75 94
100 98 93 97 100 100 98 93 98 100 96 94 99 100 95 87 75 60 60 56 55 59 70 67 81 80 75 74 90 82 61 51 45 40 39 40 49 56 72 87 91 82 88 100
100 99 96 100 100 100 94 91 85 87 95 99 97 90 87 76 68 62 54 52 55 67 70 76 72 83 78 78 79 100 72 80 75 60 57 54 56 73 87 88 95 94 100 100
94 90 83 73 75 76 80 84 87 85 92 89 96 90 95 86 75 56 47 53 59 72 69 71 76 85 87 76 73 93 96 78 63 65 74 84 84 74 69 68 64 72 74 74
69 73 78 80 81 85 86 80 73 76 82 93 98 100 96 86 67 55 57 60 63 76 68 75 84 94 87 82 82 88 92 88 88 90 91 90 82 91 95 95 100 100 100 100
75 80 78 76 80 81 77 69 68 76 91 96 88 100 86 85 70 62 79 65 68 69 75 76 81 96 84 82 87 92 86 82 89 94 92 99 100 96 88 83 86 87 90 90
81 83 81 82 85 86 79 75 85 93 97 100 99 97 98 89 75 79 87 77 68 69 79 87 90 92 92 89 81 73 69 76 78 80 86 89 90 93 94 98 99 96 93 93
95 85 85 94 98 93 82 77 93 99 92 98 99 96 100 97 80 68 93 73 73 79 84 97 100 100 93 90 94 92 92 91 88 92 90 88 88 88 94 98 100 100 100 100
100 100 100 97 94 98 88 81 84 100 100 100 97 93 89 78 80 71 86 84 69 80 90 99 100 100 100 93 94 97 95 94 99 86 86 88 92 91 88 90 90 96 97 98

GFSCGP_250_rhum_057.txt.gz
RH
15 14 15 51 59 100 100 100 100 100 100 100 100 100 100 100 100 100 100 100 99 100 99 100 100 100 100 100 99 98 93 98 92 84 82 84 84 77 80 82 84 99 100 100
17 18 17 37 45 86 100 100 100 100 100 100 100 100 100 100 100 100 100 100 96 99 100 100 100 100 100 100 100 100 95 87 86 93 98 98 96 97 92 88 91 98 100 100
19 20 20 24 54 54 100 100 100 100 100 100 100 96 88 92 97 100 100 100 98 94 96 99 100 100 100 100 99 100 100 100 100 99 100 100 100 100 100 100 100 100 100 100
25 25 24 24 47 60 99 100 100 100 100 100 100 100 100 93 92 92 97 100 100 95 91 88 91 88 89 92 94 95 100 100 100 100 100 100 100 100 100 100 100 100 100 100
44 52 21 24 53 66 72 100 100 100 100 100 100 100 100 100 99 93 95 87 80 81 79 69 67 75 83 83 88 98 89 90 100 100 100 100 100 100 100 100 100 100 100 100
36 44 30 21 29 41 59 85 100 100 100 100 100 100 100 100 100 100 97 99 91 99 98 97 99 95 93 95 96 98 100 100 100 99 100 98 97 100 100 100 100 100 100 97
29 40 37 19 20 25 41 53 92 97 100 100 100 100 100 100 100 100 100 96 96 91 97 100 100 100 100 99 98 94 95 99 95 93 92 91 93 92 100 98 99 100 99 98
29 40 45 33 21 21 27 44 67 65 93 100 100 100 100 100 100 100 100 100 100 100 98 98 98 93 91 95 96 94 89 74 72 75 84 96 99 99 96 92 88 90 100 100
25 30 36 38 32 23 23 36 53 76 82 97 100 100 100 100 100 100 100 100 100 100 100 99 96 94 91 88 79 75 77 82 86 83 80 80 78 75 74 77 85 93 93 95
31 34 36 41 42 47 29 38 62 77 81 74 89 96 100 100 96 97 100 98 96 96 97 97 93 87 83 82 86 96 100 96 91 78 69 71 72 73 70 70 74 75 75 74
42 38 40 36 43 49 51 38 46 65 78 75 78 78 90 98 99 100 97 95 96 89 91 88 88 88 90 86 82 82 79 69 60 52 52 49 41 28 22 21 20 20 25 30
35 39 41 50 55 62 73 80 80 85 87 86 76 70 62 66 74 81 84 92 96 97 96 95 95 92 90 88 83 78 69 52 47 41 37 29 19 14 14 13 13 14 18 23
46 39 45 53 74 81 84 86 90 98 100 90 84 84 77 73 79 85 81 77 76 74 70 71 78 76 70 60 54 54 51 44 36 35 30 23 20 18 16 14 14 14 14 19
60 60 53 60 71 95 100 91 98 98 100 95 96 86 73 88 81 85 96 83 74 71 73 75 72 67 58 50 47 47 39 35 32 30 25 22 17 14 12 11 11 12 12 14
53 60 67 75 75 85 92 97 100 89 95 82 78 62 74 78 79 80 80 78 77 82 77 67 55 68 61 46 42 35 39 41 35 25 15 11 8 7 6 5 5 6 7 10
57 74 88 93 97 100 95 88 85 84 85 77 81 79 85 100 81 75 79 86 79 72 69 83 72 51 41 45 42 59 53 45 33 27 20 15 10 6 6 6 6 7 8 10
78 86 94 95 100 100 100 100 90 90 90 92 100 100 95 86 94 97 91 87 78 89 82 51 48 45 49 50 57 70 65 55 43 43 31 26 16 11 12 9 11 12 15 18
72 85 92 94 93 94 93 88 95 100 98 99 100 98 100 100 100 98 91 94 87 68 51 49 51 52 60 60 67 84 74 64 60 55 49 47 35 30 19 20 22 29 34 39
70 71 76 82 85 86 88 92 99 100 100 100 100 100 100 100 97 96 98 81 62 53 54 55 51 54 65 66 67 81 81 78 71 72 65 60 64 56 53 51 60 58 54 60
95 93 95 94 95 93 100 99 100 100 100 100 100 100 99 96 99 98 82 64 53 49 47 53 58 62 63 71 69 72 87 74 89 75 75 69 70 76 72 73 74 72 67 63
100 100 99 100 100 98 100 100 100 100 100 100 100 100 97 100 98 85 66 59 56 60 47 54 68 62 73 90 74 61 76 85 90 88 65 68 81 82 79 78 80 89 92 94
98 97 97 99 100 100 100 98 96 97 96 100 100 100 100 99 86 73 60 55 70 62 57 68 70 78 81 81 77 71 73 81 86 95 91 90 84 79 83 90 97 98 96 94
85 87 95 91 86 83 82 88 92 91 93 99 100 98 99 100 93 73 74 69 80 72 65 70 69 74 86 83 78 79 76 74 78 80 76 79 82 94 98 99 99 100 96 94
76 73 75 80 82 88 92 88 81 77 77 77 86 93 100 97 90 100 80 70 71 85 65 71 69 72 79 83 88 97 95 90 85 82 78 84 95 98 98 95 94 92 89 92
75 80 82 81 87 88 86 85 78 71 73 80 95 100 100 97 98 90 89 72 72 83 76 70 83 86 85 85 85 89 92 88 85 93 89 93 99 96 89 86 84 79 80 77
87 80 82 84 83 84 85 87 86 88 90 94 96 99 94 98 99 90 91 73 76 78 77 74 83 98 94 97 91 87 82 82 94 99 93 90 86 84 78 79 76 78 81 73

GFSCGP_250_rhum_060.txt.gz
RH
10 9 9 12 25 98 100 100 100 91 93 100 100 100 100 100 100 100 100 100 100 100 100 100 100 100 100 100 97 93 88 91 86 83 80 80 74 72 72 80 75 76 76 73
11 10 10 10 14 41 100 100 100 100 100 97 100 100 100 100 100 100 100 100 100 100 100 100 100 100 100 100 100 99 98 95 84 85 90 92 82 88 92 91 93 87 88 85
14 13 11 13 13 19 42 100 100 100 100 100 100 100 100 100 100 100 100 100 100 100 100 100 100 100 100 100 100 100 97 94 96 93 84 86 83 96 99 100 100 97 91 97
16 15 12 13 14 16 25 68 100 100 100 100 100 95 100 100 100 100 100 100 100 100 100 100 100 100 100 100 100 98 100 100 99 98 99 98 97 96 100 98 94 90 98 100
22 18 14 15 17 18 22 31 79 100 100 100 100 95 90 100 100 100 100 100 100 100 95 93 92 96 100 100 100 100 100 97 98 91 92 90 91 86 78 90 98 99 99 100
21 19 18 16 17 19 21 23 36 72 100 100 100 100 98 93 91 96 100 100 100 98 97 97 94 93 98 95 96 96 84 81 75 66 70 75 78 90 93 100 100 100 100 100
24 21 18 17 18 19 20 21 28 44 91 100 100 100 100 100 96 83 84 84 80 83 82 80 71 79 81 72 73 72 66 72 73 83 87 86 92 100 100 100 100 100 100 100
22 18 15 16 19 19 18 20 23 38 51 77 100 100 100 100 100 100 92 87 86 84 96 88 77 70 72 64 68 66 62 63 77 85 94 92 92 92 96 98 98 97 93 96
22 23 18 14 17 18 18 20 19 29 37 50 59 99 100 100 100 100 100 100 97 92 81 82 77 77 66 62 66 66 69 69 64 70 71 70 76 78 82 84 89 92 94 100
28 31 24 23 18 24 21 27 30 28 33 50 63 68 86 100 100 100 100 96 96 93 90 84 92 91 94 94 93 88 82 83 90 82 81 88 86 86 86 81 75 71 73 80
27 32 36 33 24 26 33 52 51 49 57 67 81 99 94 84 89 94 100 100 100 100 100 100 100 99 99 100 100 99 100 90 77 87 87 83 74 70 70 65 54 36 27 22
33 36 50 50 42 37 33 30 46 38 50 60 72 87 89 84 90 98 99 100 99 98 97 94 93 92 92 93 95 94 81 78 83 83 79 53 40 35 27 18 14 11 11 13
37 30 40 51 64 55 51 38 46 43 42 52 64 76 72 67 74 73 78 88 98 100 100 100 98 92 87 85 86 90 84 76 64 61 55 44 37 29 23 21 17 13 10 11
43 39 42 43 49 63 65 63 58 66 75 70 78 82 91 87 76 69 72 77 79 81 84 81 85 80 73 75 68 71 65 63 56 49 44 37 35 34 28 22 16 12 11 11
49 57 51 46 46 66 85 86 94 88 89 86 87 90 95 85 92 100 99 96 85 71 68 67 67 77 76 75 65 56 54 54 46 42 37 43 40 30 20 14 11 9 8 7
53 60 63 60 52 63 90 97 94 95 96 100 99 100 100 100 100 95 96 82 82 80 81 82 84 74 68 66 62 56 51 46 44 42 49 44 34 27 26 22 18 14 11 10
46 53 64 70 68 71 80 93 91 92 88 81 72 82 92 90 82 77 77 80 84 84 79 73 72 69 83 68 51 46 44 56 60 57 50 48 44 40 43 36 33 30 19 15
54 59 73 78 84 88 86 91 99 94 83 82 85 94 93 99 100 100 91 86 86 82 73 80 87 73 58 52 44 45 53 73 69 58 59 53 55 52 53 54 47 48 45 40
56 65 75 85 96 100 94 91 99 99 94 99 100 100 100 99 98 100 96 81 73 82 87 87 64 57 49 46 47 59 59 73 68 60 68 71 61 74 85 77 61 54 53 49
76 70 71 80 89 98 100 97 100 99 99 95 98 93 91 98 96 92 90 84 90 91 75 69 55 46 41 46 60 64 59 82 68 59 69 70 76 73 66 66 67 67 63 64
80 96 87 81 80 87 94 97 97 96 97 98 100 100 100 100 97 96 100 94 84 82 70 60 45 43 50 58 67 66 81 71 66 70 73 77 82 71 69 71 74 78 85 88
88 90 98 99 100 98 100 100 99 98 99 100 100 100 100 95 99 100 100 92 82 58 62 69 60 58 66 67 63 75 76 66 67 66 69 80 83 78 82 84 83 78 78 83
92 92 92 90 100 97 100 99 99 98 91 93 98 97 95 100 100 100 100 92 63 65 65 76 68 65 69 73 69 73 74 68 68 74 82 85 82 78 76 76 81 81 80 79
91 91 92 97 100 86 93 97 98 95 94 99 99 96 100 100 100 98 95 85 62 63 68 74 72 64 71 70 75 74 77 82 84 84 86 85 79 73 72 78 82 73 76 77
92 91 95 100 92 86 85 82 85 89 92 94 93 99 100 100 100 100 99 88 72 62 71 74 78 62 66 77 81 78 81 86 86 83 83 89 78 70 74 80 81 76 80 79
95 91 86 85 80 80 81 81 82 85 79 69 72 83 94 99 100 100 98 94 81 71 72 80 76 73 67 72 89 90 90 89 82 85 90 94 84 79 83 86 86 86 88 82

GFSCGP_250_rhum_063.txt.gz
RH
9 10 9 9 13 59 98 100 100 100 100 100 100 100 100 100 100 99 93 100 100 100 100 100 100 100 100 100 100 100 99 100 98 98 86 95 88 82 91 93 80 77 75 71
9 11 11 10 10 14 85 100 100 95 100 100 100 100 100 100 100 100 100 99 100 100 100 100 100 100 91 91 92 87 81 85 85 85 96 100 97 90 97 91 88 86 80 69
14 13 12 10 10 12 68 100 100 100 100 98 100 100 100 100 100 100 100 98 100 100 100 100 100 100 100 100 100 100 100 100 100 100 100 96 99 88 81 74 76 76 77 80
14 13 13 11 10 11 42 100 100 100 100 100 93 100 100 100 100 100 100 100 100 100 100 100 100 100 100 100 100 100 100 100 100 99 83 84 85 85 74 66 70 69 66 71
16 13 13 11 11 11 12 91 100 100 100 100 100 90 100 100 100 100 100 100 100 100 100 100 100 100 100 100 100 100 100 100 100 100 96 87 85 76 78 75 73 72 68 62
19 16 13 12 11 12 12 21 99 100 100 100 100 100 89 92 100 100 100 100 100 100 99 98 100 100 100 100 100 100 95 99 98 94 89 88 85 77 77 82 74 72 71 69
17 15 14 14 13 13 13 13 18 92 100 100 100 100 100 98 87 92 100 100 99 95 97 96 98 99 100 100 100 100 98 92 96 92 89 85 84 79 72 70 72 69 66 71
19 16 16 15 17 16 15 14 14 15 39 100 100 100 100 100 99 85 82 88 93 100 100 99 98 98 96 95 96 98 98 97 96 89 79 71 65 62 62 61 60 66 64 60
20 20 19 17 14 14 13 14 14 13 16 20 36 91 100 100 100 100 92 83 88 92 95 96 93 92 90 88 88 88 82 76 74 70 66 64 58 50 54 59 69 83 76 78
20 19 18 20 18 16 14 16 16 16 16 18 19 25 57 96 100 100 100 100 100 94 81 72 72 70 69 70 72 72 68 64 59 56 54 53 58 54 65 86 95 96 90 90
25 24 22 22 20 19 18 17 18 19 21 20 21 23 39 56 80 100 100 100 100 100 100 99 90 88 83 74 72 71 67 62 67 71 73 89 85 88 98 96 77 68 61 58
33 31 29 23 21 22 26 21 21 23 23 23 26 30 35 46 60 61 63 100 100 100 100 100 96 96 99 97 88 78 74 85 99 97 95 90 79 67 63 61 46 44 32 24
35 38 43 38 30 29 27 33 32 27 28 29 26 32 41 47 49 54 60 66 91 100 100 100 100 100 100 100 94 93 93 85 88 80 76 77 58 60 49 38 38 37 26 20
33 36 46 54 54 47 43 43 46 49 52 50 40 42 40 49 64 66 74 72 85 65 57 63 85 94 97 100 97 89 84 67 65 77 72 48 44 46 45 41 35 39 36 26
36 36 36 46 47 49 48 51 49 62 65 58 54 60 58 72 72 80 84 96 93 68 74 82 79 79 80 78 75 62 49 51 57 51 54 53 51 43 39 40 44 40 31 24
53 54 44 44 45 46 51 49 45 51 55 62 56 53 62 85 97 87 84 82 77 74 68 70 65 56 52 56 60 53 55 58 55 56 59 50 43 37 44 48 42 38 30 34
50 50 45 46 45 53 58 54 66 66 72 70 86 96 95 92 87 80 78 77 74 76 82 72 71 81 79 62 64 62 59 63 58 60 52 46 40 48 45 46 40 36 40 38
44 47 47 53 55 61 50 66 75 85 87 79 92 92 99 100 90 84 96 100 97 88 87 95 78 65 68 74 70 68 70 58 52 47 44 48 48 51 47 50 47 47 46 53
45 48 52 69 74 68 72 70 83 90 86 88 94 100 86 90 100 100 94 97 98 88 77 72 76 82 79 80 82 69 56 49 45 47 56 55 51 56 62 63 56 51 52 54
55 51 54 68 84 95 85 88 91 97 100 100 90 92 96 93 98 99 100 100 96 96 92 89 85 91 96 86 72 59 49 42 44 58 55 50 55 64 66 65 62 53 62 68
58 70 70 74 79 93 90 90 100 99 95 98 100 100 100 100 100 99 94 95 91 86 93 98 100 90 78 68 56 44 47 49 60 57 63 65 60 61 67 68 64 58 67 64
77 70 65 86 82 85 88 94 96 96 90 95 99 98 92 86 90 98 100 95 98 100 100 93 91 82 66 60 43 55 62 61 58 65 70 71 67 64 72 72 63 66 64 70
81 79 84 77 86 86 86 86 83 84 85 83 86 94 94 96 95 93 96 100 95 93 84 94 79 64 71 58 56 63 64 62 68 69 72 72 71 80 82 74 68 72 66 73
84 87 87 89 84 82 96 100 95 90 87 89 93 88 93 93 89 97 100 96 97 96 98 78 63 63 62 66 59 61 68 70 75 74 78 80 81 84 82 80 77 75 71 80
72 82 84 85 88 93 92 92 94 93 87 83 83 89 97 96 96 99 96 99 98 100 93 74 64 69 69 76 67 59 62 72 78 80 78 81 81 80 79 84 81 76 74 85
70 66 84 86 94 93 99 94 92 93 95 96 95 92 90 91 100 100 100 100 100 100 100 86 63 70 76 78 72 64 64 70 84 83 78 86 87 89 89 86 85 83 82 96

GFSCGP_250_rhum_066.txt.gz
RH
11 11 11 13 12 12 12 30 66 100 100 100 100 100 100 100 100 100 99 100 100 100 100 92 97 96 87 81 77 69 66 67 67 87 100 100 94 89 100 95 74 73 80 76
12 13 13 11 10 9 10 13 50 93 100 100 100 99 100 100 100 100 100 100 100 100 100 100 100 100 100 100 100 100 100 99 99 94 90 99 100 95 87 88 87 87 95 100
15 16 16 11 10 10 9 11 19 64 100 100 100 95 91 99 100 100 100 100 100 100 100 100 100 100 100 100 100 100 100 100 100 100 98 98 100 100 100 91 97 92 92 85
17 14 15 12 11 10 10 11 14 35 100 100 100 100 92 96 100 100 100 100 100 100 100 100 100 100 100 100 100 100 100 100 100 100 100 100 93 93 100 100 96 93 84 76
16 11 12 12 12 12 11 10 13 86 100 100 100 100 100 94 100 100 100 100 100 100 100 100 100 100 100 100 100 100 100 100 100 96 96 97 97 87 87 100 99 86 82 72
18 19 20 18 13 12 12 11 12 25 74 99 100 100 100 100 100 100 100 100 100 100 100 100 100 100 100 100 100 100 100 100 100 100 96 95 100 99 98 82 77 78 67 61
14 16 19 21 18 13 12 11 11 13 51 84 100 100 100 99 100 100 100 100 100 100 100 100 100 100 100 100 100 100 100 100 100 100 99 100 100 87 92 88 80 79 74 76
16 15 15 18 20 15 13 12 11 11 14 61 100 100 100 100 100 100 100 100 100 100 100 100 100 100 100 100 99 93 91 92 94 88 89 98 99 91 92 93 84 83 82 72
21 20 19 18 17 15 14 13 13 13 13 16 47 99 100 100 100 100 94 100 100 100 100 100 100 100 100 98 92 92 93 88 92 98 100 100 100 97 88 86 80 76 70 63
21 23 20 16 16 15 14 14 14 13 14 15 17 34 99 100 100 100 100 93 88 94 97 97 94 91 89 87 88 95 91 91 93 95 98 94 91 82 75 75 67 63 61 59
23 21 22 20 17 15 17 16 16 16 15 15 15 16 28 100 100 100 100 100 100 99 94 84 78 75 76 77 74 72 74 74 73 66 69 67 68 63 60 57 56 60 70 82
31 29 29 28 29 26 24 24 21 20 18 17 15 16 18 50 100 100 100 100 100 100 100 100 100 100 93 90 82 72 70 69 72 66 54 60 72 66 59 71 70 83 68 63
36 33 35 33 34 33 29 27 26 24 22 19 16 16 17 18 26 75 100 100 100 100 100 100 100 100 100 100 100 100 100 100 98 94 88 82 79 74 77 79 76 62 52 37
35 32 35 35 31 36 35 28 26 25 24 21 19 20 19 18 20 24 28 40 67 77 82 91 94 97 96 97 99 98 100 98 100 98 92 91 94 96 90 74 57 31 31 33
40 44 46 42 33 34 35 35 34 31 26 26 22 23 23 23 22 24 23 29 40 50 57 58 55 57 54 56 65 71 76 75 77 70 62 52 65 62 44 37 32 39 41 37
34 28 33 44 39 33 33 33 43 46 40 36 25 26 29 26 27 32 38 42 43 48 52 56 60 50 47 65 71 42 33 47 53 53 51 46 45 41 42 41 46 43 37 40
43 37 35 35 37 45 52 34 35 38 45 45 62 38 39 29 28 32 42 54 64 69 66 59 64 80 71 61 67 74 67 56 57 54 58 55 47 47 54 51 42 38 46 45
36 39 44 33 38 43 36 45 39 39 46 57 58 56 47 51 54 53 55 59 64 66 73 77 81 88 88 86 77 58 60 66 67 64 58 53 59 61 49 43 41 47 49 47
30 33 42 46 50 42 47 53 53 44 43 48 60 72 66 74 82 82 84 81 78 76 79 77 76 76 76 73 67 76 74 70 78 74 68 64 56 46 41 45 49 51 51 50
34 32 34 40 49 63 55 58 52 50 51 58 70 74 80 82 78 80 78 84 91 79 76 76 74 75 71 78 74 78 90 92 78 69 66 52 44 41 43 54 51 50 53 55
43 38 38 43 48 55 60 63 65 70 77 75 83 80 84 84 91 89 80 79 92 95 86 89 88 84 83 90 98 100 94 86 65 52 44 45 49 55 57 62 54 56 53 61
54 51 48 47 52 70 65 69 85 76 72 88 97 94 86 85 89 96 95 93 93 93 94 89 87 96 100 100 100 92 77 58 44 45 51 61 62 60 63 59 56 58 68 71
70 65 60 59 54 61 78 85 78 77 83 100 100 100 99 100 100 100 100 100 100 96 88 93 100 100 99 94 96 79 57 45 45 61 63 63 64 67 66 66 71 79 79 75
59 77 65 66 67 63 70 96 98 87 83 80 89 99 100 96 95 98 88 85 90 93 95 100 100 98 92 83 71 63 55 50 59 64 65 66 72 73 72 77 81 83 81 77
37 64 76 79 80 82 84 82 84 94 96 89 86 88 88 84 82 86 97 96 97 100 100 100 98 91 77 67 62 63 65 68 70 62 61 69 78 82 85 92 94 90 89 89
33 34 78 81 90 84 88 88 87 88 83 83 85 88 86 84 89 90 86 94 100 100 100 100 94 90 75 62 62 66 67 70 72 65 65 70 75 87 99 100 98 98 99 100

GFSCGP_250_rhum_069.txt.gz
RH
12 13 16 18 20 48 86 33 22 73 100 82 90 100 100 100 100 100 100 100 100 100 87 87 97 100 100 100 95 91 98 100 88 64 68 74 67 61 65 72 54 46 58 84
11 13 16 15 16 17 58 85 49 52 87 82 76 96 100 100 98 94 100 100 100 100 100 98 95 100 100 100 100 96 90 90 89 82 74 69 70 68 71 80 96 100 100 100
11 15 16 15 14 15 17 68 57 25 61 92 95 100 100 100 100 90 100 100 100 100 100 100 100 100 99 95 97 88 80 74 76 85 94 100 100 100 100 100 100 90 83 99
13 15 15 17 15 14 15 15 24 20 33 90 97 100 100 99 96 100 94 92 96 100 100 100 100 100 100 100 100 100 100 100 100 100 100 100 100 100 100 100 100 100 94 82
18 15 16 17 15 14 13 11 11 16 16 21 73 96 100 100 96 100 100 100 100 100 100 100 100 100 100 100 100 100 100 100 100 100 100 98 100 100 91 91 100 89 87 88
16 16 23 20 17 16 12 11 11 13 14 14 23 70 100 100 100 100 99 98 100 100 100 100 100 100 100 100 100 100 100 100 100 99 98 94 94 98 90 74 85 99 90 84
9 14 20 17 19 16 13 12 12 12 11 13 24 18 90 100 100 100 100 99 99 100 100 100 100 100 100 100 100 100 100 100 100 100 96 93 85 89 99 96 86 76 85 75
11 15 20 26 21 17 14 14 14 13 12 13 22 18 30 88 100 100 100 100 100 100 100 100 100 100 100 100 100 100 100 100 100 100 100 100 96 90 98 99 95 87 86 84
13 14 17 22 23 20 16 18 16 16 13 13 12 13 39 59 100 100 100 100 100 100 100 100 100 100 100 100 100 100 100 100 100 100 100 100 100 100 100 93 86 87 88 92
16 16 17 19 18 18 17 13 17 18 18 15 13 13 14 38 100 100 100 100 100 100 100 100 100 100 100 100 100 100 100 100 100 100 100 100 99 100 97 99 92 91 84 73
25 24 23 23 21 21 19 17 15 18 17 15 14 14 15 24 94 100 100 100 100 100 100 100 97 100 100 100 100 100 100 100 100 100 100 100 98 96 96 91 83 73 68 55
32 34 33 34 34 29 25 24 21 17 17 15 14 15 15 17 25 92 100 100 100 100 100 100 100 99 100 100 100 100 100 100 100 100 96 100 98 89 81 77 65 68 65 67
28 30 34 34 33 34 29 27 22 19 16 14 14 15 16 16 17 19 30 74 98 100 100 100 100 100 98 100 99 94 95 91 97 96 85 83 77 77 70 77 71 82 70 71
26 27 31 34 35 37 34 33 30 25 20 18 17 18 17 17 16 18 19 23 36 70 95 100 100 100 100 100 100 99 97 93 94 90 90 86 91 88 78 66 77 72 61 46
25 25 26 30 35 41 39 35 36 32 25 22 20 22 21 20 19 18 17 18 20 25 33 49 76 92 93 100 100 99 100 100 98 98 94 92 80 72 49 44 48 41 36 35
30 28 25 27 24 29 42 42 37 29 30 27 22 23 24 22 22 20 18 19 20 22 25 35 57 77 100 100 100 100 100 100 100 89 57 46 51 42 36 38 41 39 34 42
35 32 32 31 27 30 34 40 35 37 33 27 32 27 29 30 23 21 21 19 19 20 21 23 26 46 59 68 73 79 75 54 68 62 45 54 53 45 64 49 43 51 52 53
38 37 38 34 34 33 30 31 37 43 42 47 33 30 40 33 31 28 22 22 23 22 20 21 24 29 48 65 62 68 81 86 68 67 56 59 75 64 52 50 50 54 62 57
39 36 37 38 42 40 32 30 32 32 33 45 48 41 40 40 33 29 28 28 29 27 28 32 36 39 58 79 86 81 79 69 61 70 78 73 67 64 57 55 62 73 58 43
45 41 36 34 35 44 34 45 41 37 37 37 40 48 45 50 52 43 46 53 53 51 46 44 46 60 72 69 67 64 76 85 85 70 79 75 72 59 61 72 62 49 47 56
40 54 48 36 35 35 37 50 48 53 48 42 42 51 56 70 62 54 54 70 87 91 84 76 78 81 81 87 90 83 72 77 84 83 77 66 62 70 60 49 52 60 61 59
26 42 57 47 37 36 44 53 59 54 50 54 55 62 72 83 83 80 74 70 75 80 86 87 94 90 89 86 85 86 87 94 89 81 74 68 67 50 54 60 65 61 63 63
28 31 48 62 49 42 41 51 69 74 71 69 69 77 83 89 96 91 91 91 88 92 93 88 82 88 94 91 97 97 94 92 95 84 70 56 47 50 62 67 66 70 73 74
28 31 34 69 70 62 57 58 67 85 84 77 75 83 97 100 98 86 80 83 88 95 90 91 95 99 96 97 100 100 100 100 83 66 53 48 53 61 65 67 69 75 82 87
32 33 36 48 79 81 71 57 62 80 98 100 90 83 96 99 96 96 94 99 95 99 100 98 94 89 100 100 100 100 90 73 64 61 54 60 70 70 69 70 77 91 100 100
27 33 41 40 59 86 82 78 77 78 87 94 91 80 83 89 93 94 96 96 99 98 92 90 97 100 100 100 98 84 65 61 60 67 68 73 76 78 75 80 91 95 96 98

GFSCGP_250_rhum_072.txt.gz
RH
11 14 18 17 17 20 23 22 41 100 100 82 82 100 100 98 99 99 94 93 100 100 100 100 94 88 88 98 100 100 95 89 98 100 97 98 98 98 97 92 89 90 89 80
12 16 17 16 15 18 21 25 28 60 67 48 68 82 89 94 91 90 99 93 100 100 100 100 100 100 88 91 97 95 99 97 89 90 97 99 100 100 98 98 95 94 91 80
16 17 16 18 17 17 21 28 31 29 47 57 55 67 67 76 94 100 97 100 96 100 100 100 100 100 100 99 97 98 100 100 100 92 82 84 88 93 96 100 100 95 94 100
17 16 16 16 18 18 19 22 28 34 29 70 63 57 46 58 90 83 94 99 100 96 99 100 100 100 100 100 100 100 100 98 98 100 100 100 99 90 89 81 88 96 93 92
16 17 16 16 17 17 18 19 26 26 37 30 27 34 31 34 66 95 100 95 99 100 100 100 100 100 100 100 100 100 100 100 100 100 100 100 100 100 100 100 100 100 94 97
17 18 17 17 17 18 16 17 18 21 23 30 24 17 39 27 67 92 97 97 85 95 100 100 100 100 100 100 100 100 100 100 100 100 100 96 100 100 100 100 100 100 98 92
16 16 16 16 17 16 17 17 18 18 18 23 28 17 39 34 52 77 92 89 97 88 92 99 100 100 100 100 100 100 100 100 100 100 100 97 94 96 98 92 87 85 95 94
14 14 14 17 19 19 18 16 16 14 15 21 24 15 39 58 76 97 99 96 98 100 100 100 100 100 100 100 100 100 100 100 100 100 99 95 88 86 89 90 88 84 91 98
13 14 15 17 18 19 19 17 18 18 17 18 18 35 100 89 71 94 100 100 100 100 98 100 100 100 100 100 100 98 100 100 100 100 100 97 91 87 88 88 92 98 98 92
19 20 22 24 25 21 20 20 19 18 19 19 18 19 32 96 99 86 94 100 100 100 100 93 98 97 94 97 100 100 100 100 100 100 100 100 100 99 100 100 100 97 100 100
17 20 20 20 24 33 33 29 26 21 21 21 21 21 21 19 27 88 100 80 83 100 100 100 100 100 100 100 100 100 100 100 100 100 100 100 100 100 100 100 100 100 100 99
16 17 20 20 19 19 19 20 19 24 26 22 20 21 24 23 18 18 23 68 40 36 66 92 100 100 100 100 100 100 100 100 100 100 100 100 100 100 100 100 100 100 100 100
19 22 24 23 24 24 24 23 22 21 19 19 16 17 21 23 21 18 17 16 24 41 40 54 66 83 98 100 100 100 100 100 100 100 100 100 100 100 100 100 99 99 90 80
24 23 23 27 30 31 28 24 22 20 18 17 18 18 18 20 20 18 17 16 16 22 72 66 50 42 47 76 97 100 100 100 98 100 100 97 97 97 100 95 94 86 87 73
21 24 28 27 29 30 34 33 29 27 20 19 18 18 18 17 18 18 17 17 17 17 19 43 74 81 58 60 74 88 94 94 91 94 99 99 98 95 94 93 92 82 85 91
31 24 22 26 28 30 31 36 31 26 25 22 21 20 17 17 18 17 18 19 18 18 19 19 18 20 39 63 75 82 82 88 90 89 97 96 91 77 83 86 87 96 95 59
42 43 31 24 23 26 38 39 33 29 35 26 32 24 23 19 19 18 19 20 20 20 20 21 23 25 30 36 38 42 37 44 53 58 55 71 73 86 95 100 94 71 52 45
44 44 47 40 33 32 26 28 36 32 30 36 34 33 44 25 20 21 20 21 21 21 22 22 21 23 27 32 40 45 68 77 85 80 80 91 95 84 87 76 62 62 57 53
20 41 43 41 43 40 28 27 33 38 35 39 34 35 46 44 33 28 22 21 23 23 23 22 23 24 25 28 30 31 36 46 55 72 77 95 95 96 72 75 66 53 55 52
15 22 37 40 39 42 37 38 36 35 36 41 37 40 44 45 50 35 34 30 27 24 23 24 25 26 26 27 28 27 28 36 47 49 62 76 86 82 60 68 51 52 59 59
19 18 27 40 43 37 36 48 49 41 36 37 40 43 40 41 47 51 36 38 34 33 34 32 32 33 32 31 34 36 41 56 65 73 73 67 76 74 60 61 60 64 68 64
19 18 20 30 44 47 41 39 40 52 54 53 49 45 49 50 57 62 56 59 46 54 51 55 50 48 55 63 73 83 87 89 93 93 88 86 78 70 71 66 66 72 63 53
20 22 21 21 32 49 52 46 42 45 53 60 57 53 54 55 53 60 70 78 72 73 74 89 90 93 88 88 92 95 96 96 95 91 90 82 77 77 70 68 60 52 54 59
24 26 27 26 29 42 61 56 46 47 53 61 68 67 66 67 70 73 90 87 82 87 89 95 98 98 98 92 96 96 96 96 98 93 93 93 82 73 64 51 55 68 67 75
20 28 32 30 28 35 36 64 65 57 70 77 86 84 79 83 86 96 100 98 95 97 98 99 100 100 100 100 100 99 100 100 100 100 100 87 67 56 57 58 63 75 81 81
15 19 26 32 34 30 38 51 80 70 63 74 94 97 94 94 93 93 100 98 98 100 100 100 100 100 100 100 99 96 100 100 100 98 86 68 63 64 66 73 86 91 90 85

GFSCGP_250_rhum_075.txt.gz
RH
11 13 14 21 24 21 17 20 22 26 55 84 100 100 100 100 71 63 89 92 100 98 100 100 100 100 100 100 100 100 100 100 96 92 91 93 98 94 100 100 95 92 85 85
12 15 14 18 21 19 16 20 21 24 38 59 99 100 100 100 87 51 72 93 100 96 95 100 100 100 100 100 98 96 95 93 96 100 100 100 100 100 100 100 100 100 100 100
13 15 14 19 20 17 16 19 23 25 29 73 85 100 98 100 100 51 72 84 95 100 100 100 100 100 100 100 100 100 98 94 96 100 100 100 100 100 100 100 100 100 100 100
12 15 17 18 20 17 17 17 21 27 24 48 72 100 100 99 61 65 58 82 95 97 100 100 100 100 100 100 100 100 100 100 100 99 98 100 100 100 100 100 100 100 100 100
12 17 19 19 21 20 19 18 18 23 27 25 46 98 100 78 48 52 51 64 84 98 100 100 100 100 100 100 100 100 100 100 100 100 100 100 100 99 100 100 98 98 97 94
12 16 19 22 21 22 19 18 18 20 30 26 28 66 95 74 76 59 44 48 51 80 94 94 100 100 96 100 100 100 100 100 100 100 100 100 100 100 100 100 100 100 100 91
13 14 17 18 20 21 20 19 19 20 22 34 37 32 100 94 74 75 50 41 41 65 80 92 95 100 100 100 100 100 100 100 100 100 100 100 100 100 100 100 100 100 100 97
21 20 18 18 21 21 22 21 23 23 24 43 48 33 44 45 53 39 41 43 31 54 83 86 93 100 98 95 96 100 100 100 100 100 100 100 100 100 100 100 100 100 100 100
19 22 18 17 19 21 22 22 23 25 24 23 25 31 35 35 31 46 43 36 46 44 75 94 88 89 98 100 100 99 99 100 100 100 100 100 100 100 100 100 100 94 95 100
19 18 20 22 22 20 20 22 21 22 28 27 24 22 22 45 34 30 39 49 48 55 64 80 85 84 86 89 98 100 99 98 96 99 100 100 100 100 100 100 100 100 100 100
10 17 25 32 40 43 34 30 29 30 27 27 30 29 29 94 76 61 74 44 48 39 32 42 65 76 88 86 94 100 100 100 100 98 100 100 100 100 100 100 100 100 100 100
11 10 14 17 26 36 39 41 25 28 38 37 36 31 30 31 36 33 70 73 53 41 38 38 37 44 64 85 89 89 100 100 100 99 100 100 100 100 100 100 98 97 100 100
15 12 12 12 13 15 18 20 24 22 24 23 25 34 28 29 31 29 31 30 29 43 43 42 60 59 61 64 71 79 88 90 88 89 89 90 94 94 89 91 94 99 92 97
19 18 16 15 14 13 16 18 17 17 19 29 26 23 23 25 27 28 27 24 21 19 18 40 64 64 59 72 88 94 92 91 86 89 90 88 84 84 92 97 96 98 91 96
26 22 19 18 17 18 16 17 18 20 21 17 22 20 19 19 22 25 26 24 22 20 19 20 24 35 59 58 58 64 78 93 96 96 94 92 92 88 96 99 97 100 96 96
29 31 24 21 23 21 21 24 24 25 22 24 21 22 18 18 19 19 21 23 23 22 21 19 19 17 17 19 33 55 69 58 45 46 59 64 86 68 64 78 84 90 90 88
16 29 37 28 24 23 29 24 24 24 31 28 30 25 25 23 21 19 18 19 22 23 23 22 20 18 17 17 18 18 18 17 19 38 62 81 89 84 74 62 80 89 61 60
13 20 39 38 36 33 30 26 30 28 30 39 38 32 27 25 22 22 22 22 21 22 22 22 20 19 19 19 20 20 20 19 21 22 25 26 29 37 40 47 53 69 89 76
14 15 26 41 40 58 39 34 30 31 28 35 41 35 39 30 23 25 22 21 21 21 21 21 20 19 20 21 28 35 40 40 41 44 56 64 60 68 91 99 95 84 82 100
13 18 19 33 44 48 38 42 46 41 32 34 34 36 41 48 45 21 29 27 24 25 25 24 24 25 24 25 30 32 39 47 58 62 66 53 68 86 86 80 68 100 100 98
11 14 18 18 31 39 41 44 46 49 43 34 37 42 44 42 37 44 38 37 38 32 28 29 30 31 32 32 33 35 40 40 43 49 50 48 45 54 66 60 77 78 77 72
13 15 17 20 22 31 45 45 39 39 46 49 44 42 41 41 54 45 36 38 46 45 44 35 34 34 32 33 33 35 34 34 34 40 45 47 56 67 74 79 77 74 66 61
11 11 18 22 20 25 39 44 43 40 39 37 45 42 42 47 53 58 60 61 43 47 54 52 47 49 44 41 42 46 53 56 53 58 70 92 90 93 89 84 80 84 79 75
12 13 14 22 23 22 28 42 57 49 44 44 46 52 53 58 61 63 69 66 63 63 63 71 60 60 63 72 73 79 80 83 90 95 95 94 97 94 99 99 95 83 70 56
14 18 13 15 21 26 26 30 41 61 53 44 43 58 61 62 62 68 71 66 64 65 83 82 86 85 90 90 93 100 95 97 97 99 100 100 100 100 100 99 82 66 52 60
10 13 17 17 26 26 31 32 32 39 66 68 56 58 74 82 86 83 77 72 78 80 79 87 93 93 95 98 98 99 100 100 100 100 100 100 100 100 100 91 70 66 64 62

GFSCGP_250_rhum_078.txt.gz
RH
9 10 14 17 16 17 20 26 25 23 22 19 19 20 21 20 15 21 38 100 100 100 100 100 100 100 100 95 91 82 96 96 84 100 100 100 100 99 98 96 100 100 100 100
10 12 14 14 15 18 18 23 23 22 21 20 19 19 21 20 22 16 20 72 100 100 100 100 100 100 100 100 100 100 100 100 100 100 100 100 97 94 91 85 87 92 95 100
14 14 15 15 16 17 19 20 20 20 19 20 19 21 24 26 26 30 16 26 93 100 100 100 100 100 100 100 100 100 100 100 100 100 100 100 100 100 100 94 94 94 96 100
16 14 14 16 17 16 18 21 20 22 20 19 19 22 26 25 31 25 24 17 38 100 100 100 100 100 100 100 100 100 100 100 100 100 100 100 100 100 100 100 100 100 100 100
14 16 16 17 18 18 19 21 21 22 21 19 18 23 27 26 34 58 40 33 27 56 100 100 100 100 100 100 100 100 100 100 100 100 100 100 100 100 100 100 100 100 100 100
18 18 18 18 17 20 21 24 22 23 22 20 21 23 34 39 88 80 45 32 26 22 53 98 100 98 100 100 100 100 100 100 100 100 100 100 100 100 100 100 100 100 100 100
17 22 23 22 20 23 23 24 23 21 21 21 23 22 42 47 96 96 65 61 48 28 26 50 84 100 93 99 100 100 100 100 100 100 100 100 100 100 100 100 100 100 98 95
22 22 23 25 25 24 23 23 22 24 23 25 23 24 41 37 49 80 83 77 64 52 31 24 51 57 85 93 98 100 100 100 100 100 100 100 100 100 100 100 100 100 100 100
21 27 22 23 24 24 27 25 24 23 24 26 24 26 33 35 42 50 71 99 99 79 57 35 20 43 60 67 82 92 96 96 98 99 100 100 100 100 100 100 100 100 100 100
16 22 26 26 24 22 26 26 25 26 33 31 28 29 31 30 31 37 58 79 66 64 64 38 37 35 39 48 56 68 79 85 88 95 99 100 100 100 100 100 100 100 100 100
9 13 19 23 29 27 24 26 26 28 30 37 44 39 41 42 34 31 34 44 63 65 79 74 40 42 44 46 51 55 60 76 93 100 100 100 100 100 100 100 100 100 100 100
13 11 12 17 23 28 34 36 32 30 32 31 35 40 40 40 35 32 35 36 39 41 38 55 58 39 36 42 50 54 46 50 71 90 99 100 100 100 100 100 100 100 100 100
13 15 12 11 13 19 24 35 41 42 39 37 40 69 62 54 40 38 44 50 40 47 45 38 33 33 34 36 39 42 53 60 63 74 84 92 92 94 98 99 100 100 100 100
11 13 14 14 13 12 15 18 22 26 30 39 38 48 64 42 38 33 29 29 35 49 66 52 26 25 26 30 32 35 38 46 45 50 55 67 73 71 76 84 94 97 100 100
11 14 16 16 17 16 15 15 14 15 20 20 31 29 31 32 29 27 33 30 29 31 32 26 23 21 29 28 46 44 37 35 38 41 45 49 56 55 55 58 72 79 78 80
10 12 18 17 19 18 18 18 16 16 17 19 19 20 20 20 23 24 24 26 30 27 26 23 21 19 20 18 25 38 42 48 46 37 37 55 64 72 87 84 85 87 98 90
11 11 14 20 23 21 22 20 20 19 18 17 18 19 15 16 15 16 19 20 23 26 27 26 22 21 20 20 20 18 18 18 19 20 35 59 74 76 81 73 73 83 81 79
9 10 15 22 25 36 29 21 23 26 25 25 26 24 23 20 20 19 18 18 17 18 22 26 27 27 26 24 23 21 20 20 19 19 22 28 34 42 52 48 46 42 28 42
9 9 14 16 22 44 36 30 29 29 24 26 33 29 29 31 32 31 24 22 21 21 20 20 23 26 27 26 26 25 24 22 22 22 22 21 22 30 34 35 35 34 34 40
8 8 12 16 15 37 30 31 40 45 38 35 36 32 34 41 41 27 28 30 28 32 27 26 25 24 25 25 27 28 27 25 24 24 27 29 39 45 48 46 54 65 66 84
8 9 12 14 19 18 16 30 42 46 55 54 50 44 44 38 34 40 47 50 36 31 32 30 28 27 26 27 27 27 27 27 26 28 42 58 69 72 77 95 97 93 98 88
8 10 10 12 19 14 22 32 39 48 50 48 61 61 49 44 41 43 44 38 47 47 45 41 40 35 35 34 31 28 28 31 34 40 47 50 57 61 62 60 67 91 99 86
8 9 10 15 16 15 19 20 28 39 47 46 47 58 61 60 51 48 39 45 46 56 57 55 49 52 54 50 46 44 44 43 48 52 51 61 74 75 70 62 65 75 86 87
8 10 10 12 14 17 20 20 23 28 37 47 44 44 49 53 63 60 48 47 52 59 72 74 71 64 61 57 54 54 54 54 56 58 61 67 71 74 79 78 87 99 100 95
8 10 10 11 12 17 24 27 25 23 29 44 53 44 39 41 54 68 62 64 64 64 65 66 64 68 70 74 73 69 65 71 82 87 92 96 93 93 97 100 100 98 99 99
8 8 9 10 16 22 25 24 27 28 33 38 59 62 52 42 47 68 79 80 78 73 75 73 72 67 75 79 85 86 90 92 96 95 96 98 100 100 100 100 100 100 100 99

GFSCGP_250_rhum_081.txt.gz
RH
8 10 10 11 12 14 16 22 25 29 22 17 14 16 16 20 20 19 17 19 33 98 100 100 100 100 89 88 89 99 88 100 100 100 100 100 100 100 100 100 98 99 100 100
10 10 12 12 13 14 15 22 26 24 22 19 15 14 16 17 18 18 18 19 24 84 100 100 100 100 100 100 96 71 69 75 86 100 100 100 100 100 100 100 100 100 100 100
13 11 10 12 13 13 15 18 21 22 24 21 16 15 16 18 17 18 18 18 20 25 85 100 100 100 100 100 100 100 91 74 75 76 89 100 100 100 100 97 98 100 100 100
14 13 12 12 13 14 15 16 17 20 23 23 19 19 17 18 18 19 18 19 20 19 24 93 100 100 100 100 100 100 100 99 94 94 99 100 100 100 100 100 100 100 100 100
14 16 16 16 16 14 14 15 16 18 24 25 22 22 22 18 21 21 19 16 18 18 18 22 77 100 99 100 100 100 100 100 100 100 100 100 100 100 100 100 100 100 100 100
16 17 17 15 16 16 15 15 17 20 23 26 23 21 22 22 22 21 21 19 15 18 20 20 22 77 100 100 100 100 100 100 93 91 99 100 100 100 100 100 100 100 100 100
16 22 22 21 18 18 18 17 18 19 23 29 24 22 31 21 23 22 22 22 20 15 16 20 22 23 71 100 100 100 100 99 96 96 97 100 100 100 100 100 100 100 100 100
14 17 23 27 24 23 20 21 22 22 23 28 23 25 29 24 26 25 24 22 25 23 18 18 18 34 48 70 100 100 100 100 100 97 95 97 100 100 100 100 100 100 100 100
10 16 19 20 22 24 24 24 23 23 24 28 24 27 27 26 24 26 25 26 31 25 32 18 19 18 31 55 54 80 100 100 100 100 100 100 100 100 100 100 100 100 100 100
9 13 17 21 23 24 22 21 21 23 26 25 23 24 29 25 25 26 27 25 26 26 26 27 22 18 19 19 27 43 68 97 100 100 100 100 100 100 100 100 100 100 100 100
12 10 14 17 22 24 26 26 27 28 28 27 29 29 32 28 30 28 26 27 28 30 30 39 34 37 21 20 21 23 34 78 100 100 98 100 100 100 100 100 100 100 100 100
10 14 12 16 18 20 21 22 23 26 29 29 32 35 38 33 35 38 31 31 30 31 41 35 45 54 34 26 21 17 24 39 55 78 91 95 96 96 100 100 100 100 100 100
7 13 14 12 15 20 22 21 21 25 29 33 31 59 55 59 38 30 33 36 38 33 29 34 50 33 31 26 26 27 21 19 22 33 45 57 67 74 79 80 83 85 92 97
7 8 12 14 13 13 18 18 18 19 28 44 45 61 88 60 47 28 27 33 36 38 32 28 25 26 30 26 24 24 27 30 28 26 32 38 44 51 51 51 54 54 66 82
9 7 8 14 16 14 14 13 15 20 26 23 60 46 60 62 35 36 38 40 32 32 34 34 35 31 29 30 28 26 27 25 28 32 29 30 36 40 42 42 40 39 45 53
9 6 7 8 16 18 18 15 13 13 15 22 25 29 29 32 34 32 32 33 28 27 27 26 29 28 25 23 24 22 20 19 22 26 26 35 38 35 29 32 39 46 49 55
7 7 6 7 8 15 22 18 17 16 14 14 18 26 19 21 22 24 25 26 26 28 27 26 26 25 24 22 21 19 18 19 19 20 20 20 36 43 31 40 38 44 46 45
6 6 6 7 9 13 16 17 21 20 19 19 17 16 16 18 19 21 25 24 23 24 27 29 31 28 25 20 18 19 20 20 21 22 21 21 22 27 33 43 39 30 31 31
6 6 7 7 9 15 12 12 23 25 19 22 25 22 21 20 20 22 17 18 17 17 17 18 19 22 23 24 23 23 22 22 22 23 24 23 22 23 23 25 24 24 29 33
5 6 6 8 8 12 11 11 17 32 32 31 28 26 26 26 30 22 29 33 38 36 36 25 19 19 21 22 23 25 24 25 25 26 27 28 28 26 27 27 26 26 26 35
5 6 7 8 9 12 9 10 19 29 38 38 39 35 32 32 37 30 36 40 45 43 42 38 37 31 25 24 26 28 29 32 33 32 34 35 35 34 32 32 31 34 38 44
5 6 7 9 9 9 7 18 18 27 31 37 41 42 41 41 39 37 45 47 48 53 51 55 52 46 40 36 33 30 31 33 35 37 39 39 39 40 38 39 58 60 65 70
6 6 7 10 11 10 11 15 17 20 24 30 36 41 43 43 47 56 53 42 49 60 61 67 72 68 73 64 55 44 41 40 38 37 36 38 39 39 42 46 56 83 100 95
6 8 8 10 10 11 13 17 21 23 25 27 34 37 39 38 35 40 43 51 57 50 53 60 68 81 79 78 79 70 71 72 64 60 55 52 53 53 54 59 70 84 88 99
7 8 8 8 8 12 14 21 23 21 22 22 25 32 37 45 43 42 40 40 50 61 60 56 54 62 82 82 82 83 81 80 79 70 69 71 70 72 78 84 87 90 92 97
6 7 8 7 14 16 18 20 18 21 26 26 26 24 28 38 47 45 43 45 51 63 65 62 64 64 70 72 79 81 80 85 90 89 80 75 80 86 90 94 99 100 100 100

GFSCGP_250_rhum_084.txt.gz
RH
7 8 10 10 10 11 11 11 15 23 20 17 19 17 14 15 17 18 19 19 18 18 36 97 100 93 100 99 91 100 100 100 100 100 98 100 100 100 100 100 100 91 86 83
8 9 9 9 10 11 11 12 14 21 20 16 16 18 15 14 16 17 17 19 20 19 18 32 82 89 96 98 100 100 100 100 100 100 100 100 100 100 100 100 100 100 100 100
10 10 10 11 11 12 13 14 14 14 19 19 18 17 17 16 16 17 19 21 22 20 18 19 41 80 100 100 100 100 100 100 100 100 100 100 100 100 100 100 100 100 100 100
11 10 10 10 12 13 13 14 14 14 18 21 19 18 18 17 18 19 18 20 23 22 19 19 25 64 87 93 100 100 100 100 100 94 100 81 96 91 90 94 98 100 100 100
12 12 11 10 10 12 13 14 16 15 15 21 22 20 19 19 17 18 18 18 23 23 21 20 20 29 42 33 52 91 97 100 100 100 100 88 96 90 97 100 100 100 100 100
12 13 13 11 11 11 12 13 13 14 14 18 26 27 26 20 18 17 17 18 22 24 23 22 21 21 20 21 25 64 100 100 100 100 100 100 100 92 94 99 100 100 100 100
7 11 13 15 14 12 13 14 14 14 15 18 23 28 34 21 20 18 18 19 20 21 22 21 21 21 22 23 32 44 66 91 98 100 100 100 100 100 100 100 100 100 100 100
8 9 11 16 18 16 13 13 15 16 17 21 22 26 35 17 21 19 18 19 19 20 19 20 20 22 22 23 29 33 40 57 92 100 100 100 100 96 95 92 88 92 98 100
11 8 11 12 15 18 17 17 18 18 19 23 24 28 24 17 17 22 21 21 22 20 20 20 22 21 20 21 22 24 30 36 46 74 100 100 100 100 100 100 100 100 100 100
12 11 10 13 16 18 21 20 19 20 21 24 25 30 26 19 17 21 22 23 24 23 24 23 21 21 19 19 21 22 22 24 30 47 74 92 100 100 100 97 94 96 100 100
16 11 11 12 16 18 17 18 21 22 24 24 24 25 26 22 19 19 22 23 23 26 26 27 26 23 21 21 18 17 19 21 23 30 49 69 78 91 100 100 100 100 100 100
13 14 12 11 12 15 18 19 20 22 27 27 28 25 27 24 21 21 21 23 24 24 25 26 27 26 25 22 19 18 19 21 23 25 30 37 44 64 87 100 100 100 100 100
10 12 12 11 12 15 20 20 20 20 24 29 28 36 33 30 23 19 21 22 23 26 28 28 27 27 29 29 25 21 18 18 18 21 25 32 37 46 58 72 87 97 100 100
7 8 12 11 12 13 14 16 17 19 23 28 37 41 44 30 25 18 18 21 23 23 26 28 31 32 32 32 29 29 24 21 19 18 19 20 20 25 32 41 46 52 68 89
6 6 10 10 12 13 14 12 14 22 27 24 39 33 42 29 20 17 17 18 20 25 24 24 25 27 28 29 30 31 29 25 22 21 19 18 19 19 25 29 42 52 60 59
4 5 6 10 9 12 16 14 15 19 24 26 24 30 34 24 22 20 18 17 22 28 27 22 20 21 22 24 25 25 25 25 25 22 22 23 23 26 25 30 32 28 28 28
4 4 5 9 9 10 18 19 15 13 15 20 26 35 17 23 21 20 19 24 31 28 24 24 25 26 25 25 28 28 28 27 26 26 26 28 28 29 31 34 35 39 40 40
4 5 5 7 8 10 12 11 17 18 16 17 24 27 19 23 26 28 25 25 23 23 25 26 28 33 32 30 28 28 28 27 27 24 23 24 23 25 28 26 26 29 38 39
4 4 5 6 7 8 8 8 16 21 18 20 19 17 18 21 25 26 24 24 26 26 32 34 37 35 32 30 31 30 26 22 22 22 22 22 25 25 24 24 25 27 27 28
4 4 6 7 7 8 7 8 11 15 22 24 22 21 22 23 22 19 22 20 19 20 20 20 21 22 24 25 26 26 26 26 24 24 23 23 25 25 27 28 28 30 28 28
4 4 5 7 7 8 7 7 9 13 17 26 28 26 23 23 25 27 30 29 28 31 30 33 32 33 31 29 28 25 22 21 22 22 22 24 25 30 29 35 34 33 32 35
5 4 4 7 8 8 6 8 11 14 16 17 22 27 31 33 31 27 28 30 30 31 32 42 47 49 49 51 46 38 35 33 32 28 27 29 31 34 40 43 42 38 42 44
5 5 4 6 10 8 8 9 14 13 15 15 17 22 27 32 37 43 45 43 38 38 38 41 50 57 62 66 66 67 53 46 41 41 41 41 42 41 43 44 45 47 52 53
6 6 5 6 7 8 8 10 14 15 15 15 16 18 22 32 40 46 52 51 52 56 52 46 46 52 61 68 68 73 75 73 76 74 66 68 62 57 54 52 54 55 55 59
6 7 6 6 7 10 12 13 13 13 17 19 20 20 22 27 31 36 46 52 49 50 58 58 61 53 50 56 64 69 73 76 84 86 89 87 83 77 71 66 62 61 59 64
6 7 7 7 9 11 12 13 14 15 18 18 22 24 25 30 33 42 40 49 46 43 43 49 58 63 60 52 59 66 74 79 84 88 88 90 89 89 84 80 78 77 78 76

GFSCGP_250_rhum_087.txt.gz
RH
7 8 8 10 11 11 12 14 16 17 16 18 18 20 15 15 16 16 19 21 21 19 19 33 62 91 100 100 100 85 94 82 78 80 95 84 90 100 100 100 100 100 100 100
10 8 8 8 10 12 14 14 16 19 20 18 18 20 16 15 16 16 20 21 22 22 20 19 18 38 86 100 100 100 95 83 80 88 100 96 80 87 95 90 94 100 100 100
11 9 9 9 11 12 13 13 14 16 18 18 17 19 18 16 16 15 19 21 21 22 22 20 19 17 24 51 91 100 100 100 96 100 100 100 97 94 92 100 100 100 100 100
14 14 10 10 11 12 12 13 14 15 15 18 17 21 19 18 16 15 16 18 18 18 22 20 20 19 18 18 27 66 97 100 100 99 100 100 100 100 100 100 100 100 89 87
10 11 11 12 13 12 12 13 14 13 13 13 15 17 22 20 19 18 17 16 17 16 19 20 22 20 19 18 20 20 36 81 100 100 100 100 100 100 100 100 91 91 69 67
14 12 12 11 11 12 13 12 13 12 11 12 14 15 21 25 22 19 17 17 16 17 19 21 23 22 21 20 19 19 24 47 80 98 100 100 100 100 100 100 100 100 79 63
12 14 12 12 11 11 11 13 14 14 12 15 12 12 25 27 25 21 18 18 17 17 18 20 22 22 23 22 21 20 19 19 32 76 99 100 100 100 100 100 100 100 100 91
22 10 12 15 13 12 11 11 11 12 12 12 12 14 20 28 22 22 19 18 19 18 19 21 22 22 24 24 23 20 20 20 19 34 80 100 100 100 100 100 100 100 100 100
18 16 9 11 13 11 11 12 12 11 12 13 14 13 17 22 20 20 21 20 19 20 21 23 23 25 24 23 24 22 21 22 21 25 39 62 87 99 100 100 100 100 100 100
18 14 12 10 11 14 14 13 13 13 14 14 14 14 16 18 18 17 22 21 19 22 21 21 21 23 27 25 26 26 24 23 23 22 25 45 60 55 59 86 100 100 100 100
12 17 10 10 12 14 16 15 15 14 15 15 16 17 18 20 18 17 19 20 21 23 24 24 22 24 28 27 25 27 26 26 25 24 24 24 24 24 29 48 72 93 100 100
8 15 12 9 10 11 14 18 16 17 18 19 19 20 22 23 20 17 18 18 17 19 25 26 26 24 24 26 27 27 26 24 23 23 24 25 25 25 29 34 43 48 69 89
9 10 11 7 9 10 16 20 21 20 17 19 20 24 24 22 22 18 16 16 17 17 21 27 28 27 28 25 24 25 26 26 24 24 23 23 23 23 24 26 32 37 34 36
9 6 9 6 8 10 11 12 18 20 21 23 23 24 26 26 21 19 16 16 23 21 21 24 26 30 30 28 28 25 26 25 24 24 22 21 20 20 20 20 21 24 25 27
8 5 6 6 6 9 9 10 12 18 27 25 25 26 26 22 20 17 18 20 20 24 21 22 24 25 27 30 31 30 29 29 25 24 24 22 22 21 22 22 22 22 22 24
6 4 5 5 6 7 10 8 11 14 22 25 24 26 21 21 21 18 19 19 20 22 25 23 21 23 22 22 23 26 29 30 30 27 25 24 24 24 22 22 22 21 23 28
6 4 5 5 6 6 9 11 13 16 17 18 23 29 19 22 21 22 20 19 20 19 18 19 21 20 23 26 25 24 24 24 26 27 27 28 28 27 26 25 25 26 27 28
7 4 5 5 5 7 14 12 10 14 16 16 22 26 17 21 22 24 20 18 17 18 20 20 21 22 22 21 22 22 24 25 28 29 30 29 29 28 28 28 26 26 27 29
9 5 4 5 6 9 12 8 7 10 12 15 19 19 18 17 18 19 21 23 23 22 23 26 28 29 30 33 33 31 28 26 27 28 28 29 27 26 26 25 26 27 28 29
9 5 5 6 6 7 9 8 9 13 13 18 20 21 21 22 22 18 21 24 25 24 28 34 34 32 33 37 40 39 36 35 33 33 30 27 26 26 26 26 26 26 26 25
8 5 5 5 6 7 7 7 9 11 16 20 23 24 25 24 24 21 20 19 18 19 22 25 27 26 26 27 28 29 27 27 26 26 26 25 24 24 24 23 24 25 26 27
10 6 5 5 6 7 6 7 9 12 13 16 22 26 28 27 27 24 22 22 23 23 23 24 23 23 25 27 27 27 28 31 28 30 28 25 23 22 20 19 20 21 23 29
8 8 6 5 5 6 6 8 10 12 14 15 18 22 27 30 34 34 33 31 28 26 27 30 33 36 38 42 46 50 51 54 54 52 51 49 42 37 34 32 32 31 33 39
8 8 6 6 6 7 7 8 10 13 13 12 13 16 19 24 32 35 41 48 49 52 53 50 40 36 36 42 48 53 57 66 64 69 71 59 64 60 57 62 62 68 58 60
8 8 6 6 6 6 8 9 11 12 12 13 14 16 18 20 24 26 31 39 45 50 53 54 58 63 62 54 52 51 54 57 66 75 77 78 81 79 79 76 74 73 76 73
8 8 6 6 7 6 8 9 10 11 14 14 15 16 18 19 21 24 25 26 28 33 39 47 49 50 53 63 72 69 56 57 61 62 72 78 80 86 86 90 89 86 85 82

GFSCGP_250_rhum_090.txt.gz
RH
4 7 10 8 11 14 11 13 15 16 17 16 14 14 14 13 16 18 16 17 20 51 97 100 100 98 100 100 99 96 97 96 88 80 69 64 64 66 82 85 100 100 100 100
8 10 10 8 8 11 12 16 16 16 19 18 17 15 18 15 17 19 22 19 17 18 19 38 59 74 68 75 88 84 92 94 95 77 84 72 88 94 100 100 100 100 100 100
13 14 13 11 10 11 12 14 12 13 14 13 14 15 17 18 19 19 20 21 20 18 18 19 20 28 42 42 46 41 47 70 85 92 78 79 92 100 100 100 100 100 100 100
11 14 13 12 11 10 11 12 13 16 15 19 13 16 18 19 18 20 19 20 22 20 18 20 21 19 20 20 17 16 17 30 88 77 88 74 91 100 100 100 100 100 100 100
12 14 14 13 11 11 11 11 13 15 16 13 12 12 18 20 18 20 20 16 18 20 19 16 22 21 20 20 21 17 16 19 52 87 100 80 88 98 100 100 100 100 100 100
18 12 14 14 14 13 12 13 14 17 16 14 15 15 20 18 21 18 18 19 18 19 20 18 16 25 24 22 23 22 19 17 21 56 74 93 89 90 99 100 100 100 100 100
23 17 10 14 14 12 12 12 12 13 13 16 14 14 20 18 22 21 21 21 21 22 23 20 15 23 26 23 24 24 23 21 19 17 18 51 85 100 100 100 100 100 100 100
19 19 16 8 14 14 13 11 11 12 12 15 12 13 15 19 20 22 20 21 23 24 24 24 17 19 24 25 24 24 24 24 23 20 19 18 22 37 76 100 100 100 100 100
20 15 18 13 8 14 13 13 11 11 12 12 14 14 14 17 16 20 22 22 24 25 25 25 19 15 19 25 24 21 21 24 24 25 22 20 19 19 28 66 93 100 100 100
18 18 10 18 12 9 12 14 12 11 12 13 14 15 15 14 13 13 15 19 21 26 27 26 21 17 19 24 23 20 21 23 25 25 26 26 24 23 22 27 53 71 90 100
15 15 9 12 19 10 9 12 16 15 12 12 13 13 12 13 13 13 13 14 18 22 23 25 21 20 20 24 24 22 22 25 26 26 26 27 26 24 24 23 22 27 52 60
15 13 11 6 14 11 8 8 11 14 16 13 13 14 14 15 15 15 14 13 14 15 18 21 21 22 22 25 25 23 23 23 23 24 26 26 26 25 25 26 24 23 23 22
13 12 8 5 8 13 11 10 11 13 16 20 15 15 15 16 14 13 15 14 14 14 15 19 26 26 25 25 26 28 28 26 25 24 24 24 24 25 25 25 26 24 23 24
13 10 10 5 5 8 11 10 9 9 12 21 22 19 15 16 15 15 15 15 16 18 17 17 24 33 31 28 26 27 27 27 26 24 23 24 25 26 26 26 26 26 25 25
12 11 8 5 5 5 6 8 9 9 13 16 23 23 20 19 17 16 16 16 18 20 20 16 16 20 28 32 31 28 28 28 29 29 26 25 25 25 25 25 24 24 22 21
10 10 8 5 5 5 5 6 8 11 10 15 22 26 24 21 20 18 17 18 19 19 21 18 17 16 15 19 23 26 30 34 34 32 31 29 28 27 25 24 24 24 22 21
9 8 8 6 5 5 5 6 8 12 11 13 19 24 18 22 23 22 20 18 20 21 21 18 19 21 21 19 21 24 26 27 28 30 31 30 28 27 27 26 26 26 26 26
9 7 8 5 5 5 6 7 8 10 14 13 16 20 15 19 24 27 24 21 21 21 21 21 21 22 22 23 23 23 25 25 25 25 26 26 27 27 27 28 28 28 27 27
8 7 7 7 5 5 5 6 6 8 13 14 17 18 15 18 24 25 30 32 30 28 26 24 23 24 23 24 24 24 24 23 22 24 25 27 28 30 30 30 30 29 28 27
8 7 8 6 6 6 6 5 6 8 10 12 14 15 15 17 19 21 22 25 28 28 28 28 31 32 35 36 38 37 34 34 34 34 34 33 32 32 31 29 29 29 28 27
7 8 8 8 6 6 6 5 6 8 12 11 12 14 16 19 21 21 21 21 25 28 29 38 38 39 40 42 40 42 43 42 46 42 34 33 30 27 27 27 26 25 24 24
9 7 6 8 6 6 6 6 7 11 13 12 13 13 15 16 18 19 22 22 22 22 22 22 23 23 22 22 25 28 33 35 31 30 27 24 24 22 23 21 20 19 19 18
16 7 5 6 7 5 6 6 7 10 13 14 14 14 14 16 19 20 22 26 26 26 24 22 22 22 23 21 22 24 25 23 22 22 23 26 28 32 33 31 32 29 27 24
30 16 6 6 6 6 6 7 7 10 12 13 15 17 16 19 21 22 26 32 36 36 34 32 30 27 25 26 27 28 32 36 38 41 46 50 56 60 65 58 56 55 52 48
56 21 9 6 6 5 6 6 7 8 10 12 16 17 18 21 23 27 33 41 45 46 47 48 47 45 47 46 44 39 39 44 51 53 52 59 64 69 73 75 76 78 78 76
71 29 9 6 6 5 5 6 7 8 10 12 14 17 18 22 24 27 29 29 29 33 39 43 46 48 49 50 52 55 57 59 58 52 55 56 60 65 72 74 76 81 83 82

GFSCGP_250_rhum_093.txt.gz
RH
6 6 14 13 12 13 12 12 13 19 26 26 21 22 18 18 19 25 42 36 22 20 40 60 99 76 100 98 90 100 100 100 100 100 100 100 96 81 97 84 84 94 99 93
5 12 11 11 12 12 11 11 11 11 23 19 18 15 15 13 16 22 24 35 32 21 18 31 38 66 97 100 97 80 100 100 100 100 100 100 100 100 94 100 100 100 100 100
5 8 21 15 12 14 13 9 12 18 15 17 13 13 11 12 14 17 22 22 34 31 21 20 24 37 75 100 95 91 88 88 100 100 100 100 93 97 99 96 97 100 100 100
11 7 10 19 16 14 14 12 10 11 14 12 11 14 12 10 12 13 17 20 20 30 29 22 20 22 55 99 100 95 76 88 79 92 96 91 100 96 90 100 96 100 100 100
21 15 8 11 18 17 14 13 9 10 11 12 14 13 15 15 11 17 24 27 26 22 26 34 27 21 22 36 69 99 100 82 82 94 94 97 99 100 97 100 100 100 100 100
25 24 17 9 12 16 17 16 16 10 9 9 11 13 22 26 36 25 26 30 30 29 26 32 36 31 24 22 22 25 46 76 78 69 86 84 69 68 90 82 91 90 100 100
19 24 22 18 10 12 13 15 15 13 10 11 16 14 33 23 26 23 22 28 30 26 26 25 28 34 32 30 27 24 22 21 22 23 22 34 52 38 42 33 44 78 100 100
15 16 24 19 16 10 11 13 14 14 13 15 15 11 25 23 13 17 19 24 29 25 24 22 20 24 27 29 30 28 24 24 22 21 21 22 18 20 22 22 22 27 73 100
12 10 17 18 14 15 10 14 12 13 15 15 13 15 21 20 14 15 18 18 21 24 25 22 20 23 24 26 28 29 26 25 24 25 24 23 23 21 22 22 21 22 52 78
13 8 11 14 15 12 16 10 12 13 12 13 15 15 17 18 15 12 15 16 16 20 27 24 23 22 24 24 25 31 30 25 23 24 25 24 22 24 26 24 22 24 23 26
14 9 8 10 11 9 10 13 11 14 12 12 13 14 16 16 17 14 15 15 14 16 20 22 22 22 23 26 24 25 28 29 26 24 24 23 25 25 24 26 27 24 24 26
14 8 7 10 9 7 7 14 12 11 13 14 14 15 15 15 17 15 13 14 16 15 16 20 20 22 27 30 27 23 25 30 28 26 23 24 23 26 27 27 26 28 29 28
16 7 6 7 8 6 5 10 17 11 10 15 17 16 16 16 14 15 13 13 14 15 15 16 20 26 29 32 29 23 24 28 28 25 24 24 25 25 26 25 24 25 28 28
24 9 6 6 7 6 5 5 11 13 10 10 18 21 16 17 16 15 14 13 14 15 17 18 18 19 21 25 24 24 27 29 28 27 25 25 26 26 26 24 24 25 26 26
26 13 6 6 6 5 4 4 5 12 13 10 12 15 18 17 16 15 14 13 14 14 16 19 20 20 20 20 18 18 24 29 30 30 28 27 26 26 26 25 25 26 26 26
20 16 7 5 6 5 5 5 5 8 10 12 11 13 16 18 19 18 15 14 14 17 18 19 18 18 18 16 16 19 21 23 28 32 32 31 30 31 31 31 29 28 26 26
21 15 7 5 6 5 5 5 5 5 8 14 16 16 12 14 16 18 19 18 16 15 16 17 18 18 18 18 17 18 21 24 25 27 31 33 35 34 32 31 30 29 29 29
22 12 8 5 6 6 5 5 5 6 6 9 16 16 12 12 15 20 21 21 21 20 18 18 18 21 20 21 20 19 19 20 22 25 27 28 29 30 31 30 31 32 32 32
25 11 7 5 5 6 6 5 5 6 6 7 11 15 16 14 15 18 17 24 25 24 24 23 22 22 22 23 23 24 26 25 24 24 26 29 29 29 31 35 37 35 33 33
35 14 10 8 5 6 6 5 6 6 6 7 10 13 16 17 18 17 20 20 24 25 26 28 29 30 30 31 32 31 32 32 30 28 29 30 30 30 30 31 32 32 30 30
56 28 14 10 7 5 5 6 6 6 7 8 10 14 17 16 16 17 19 23 25 27 28 29 29 30 34 38 43 50 50 50 49 50 47 43 38 36 32 31 31 28 27 25
58 47 21 11 10 5 4 5 6 5 6 7 9 12 17 18 17 16 17 19 23 27 31 31 31 34 42 44 35 37 38 39 41 42 43 41 38 38 35 34 32 31 26 25
62 60 39 19 10 6 4 5 5 6 6 6 6 9 13 16 16 16 18 20 22 23 25 25 25 26 26 26 26 23 22 24 27 31 35 38 38 38 36 32 29 26 24 22
60 67 71 27 14 6 4 4 5 5 6 6 6 8 11 12 13 17 18 20 23 24 25 26 26 27 27 26 25 23 23 23 23 23 23 24 24 24 25 27 29 34 41 42
56 70 74 58 18 10 5 4 4 5 6 7 7 8 10 11 13 15 18 20 23 26 27 28 30 33 34 34 34 33 32 30 30 29 29 29 29 30 34 40 49 51 53 57
56 63 73 67 30 10 5 4 4 5 6 6 8 8 10 11 14 17 21 25 26 28 32 34 36 42 45 44 45 46 48 48 49 51 54 56 53 49 47 49 54 57 61 64

GFSCGP_250_rhum_096.txt.gz
RH
3 4 16 18 13 9 9 8 15 20 20 24 24 21 25 25 33 44 55 54 43 36 30 42 83 90 100 100 95 100 100 92 100 100 100 100 91 97 100 100 100 100 100 99
5 4 5 13 16 16 12 10 11 15 14 21 19 22 20 22 24 34 43 48 50 48 37 31 26 26 40 62 93 90 100 100 86 90 85 95 100 100 100 100 100 100 100 100
9 8 6 8 12 15 17 14 12 14 16 12 18 20 14 22 22 20 38 43 45 50 52 43 35 26 21 24 51 69 99 99 100 100 97 98 95 93 100 96 98 99 100 100
20 16 10 9 11 12 13 13 13 12 12 14 13 20 19 13 21 15 23 37 40 45 44 52 52 41 29 23 21 26 41 68 94 97 92 88 95 97 100 100 99 99 100 100
14 19 23 11 12 10 13 11 10 13 12 13 14 16 16 13 17 20 18 28 38 37 35 39 50 54 44 38 28 21 22 25 36 59 70 88 90 100 100 100 100 100 100 100
18 15 21 25 13 14 11 11 12 10 11 9 15 15 17 18 17 16 17 17 27 34 39 36 33 37 49 48 37 57 55 38 36 45 42 33 74 94 98 100 97 98 100 100
19 14 15 22 25 14 13 12 12 12 10 10 11 12 19 21 23 21 21 20 21 29 34 41 39 35 36 45 50 43 33 42 56 51 58 61 64 80 86 90 100 100 100 100
19 12 10 14 20 23 15 11 12 10 9 10 13 12 18 16 18 22 26 26 25 28 35 40 42 40 39 40 44 49 49 41 31 33 31 43 82 71 62 61 78 100 100 90
22 15 9 9 14 16 23 17 15 15 11 9 9 12 22 23 16 20 24 30 32 32 29 37 49 53 48 43 43 43 42 45 45 41 34 30 27 39 65 84 89 76 48 43
18 14 9 8 9 12 15 18 16 13 14 12 8 9 12 18 16 16 22 25 26 30 31 32 36 42 47 49 44 38 36 35 32 38 42 40 36 32 28 25 25 25 28 26
16 14 9 6 7 8 10 12 15 16 13 14 13 11 12 12 14 14 14 18 21 26 29 29 30 28 33 37 39 37 34 32 31 29 28 31 34 35 35 35 33 31 30 29
15 12 9 5 5 7 6 8 10 13 15 13 14 15 14 13 11 11 11 10 14 19 22 24 24 25 28 30 28 29 29 29 28 27 25 24 22 22 23 27 31 32 31 30
18 14 10 5 5 6 6 6 5 9 18 17 15 17 16 15 12 11 10 10 10 12 14 18 20 20 20 22 25 28 26 26 28 28 26 25 24 23 23 25 31 33 31 27
27 16 16 8 4 4 5 5 5 5 9 19 18 20 19 17 16 14 13 11 11 12 12 13 16 18 18 19 19 21 24 26 27 28 27 26 25 25 24 25 28 30 30 28
34 19 20 8 4 4 6 5 5 5 6 14 24 20 16 18 20 17 16 15 13 13 14 13 14 17 18 18 18 18 20 23 25 27 28 29 30 30 30 28 30 32 32 28
40 23 17 11 4 4 5 5 5 5 6 9 21 26 18 15 17 19 18 16 17 16 17 18 19 19 18 18 19 18 18 18 19 20 21 24 26 25 27 29 34 37 36 34
38 29 15 14 7 4 5 6 5 5 6 6 14 30 18 14 13 15 16 18 18 18 18 18 19 17 17 20 22 23 22 22 21 20 20 22 23 24 23 23 27 35 40 41
36 29 12 9 12 6 4 5 5 5 5 6 8 18 20 20 16 13 15 20 22 21 21 19 19 20 20 21 23 24 24 23 20 19 20 22 23 23 23 26 29 32 34 39
43 26 16 11 13 10 5 4 5 5 5 6 8 8 11 18 19 20 17 17 22 25 27 26 23 21 20 20 21 22 23 23 22 21 20 21 22 25 28 30 31 32 33 34
44 35 41 20 14 13 10 4 4 5 5 6 6 7 9 13 17 18 19 18 21 22 26 30 32 30 29 28 24 22 22 23 24 24 24 25 27 28 28 29 32 33 34 36
48 48 46 41 20 12 12 6 4 4 5 5 6 7 8 9 13 15 18 20 20 22 26 29 32 36 36 36 36 34 33 34 34 37 39 40 41 39 37 35 34 33 32 32
44 47 51 51 32 19 13 10 5 3 4 5 6 7 8 9 10 12 17 20 20 22 26 29 33 39 40 43 44 46 52 56 60 56 48 44 41 38 36 35 35 34 31 29
40 46 62 55 54 25 14 15 9 4 4 4 6 7 8 10 11 11 14 19 21 21 24 29 29 29 36 40 42 45 48 47 45 43 38 35 32 31 33 34 34 33 33 32
41 48 60 67 60 42 20 14 14 5 4 4 5 6 7 9 11 12 13 16 18 20 23 29 31 30 28 31 33 32 33 33 29 27 25 25 26 28 28 27 28 27 26 27
45 50 55 68 69 52 25 17 13 8 4 4 4 5 7 7 10 12 13 16 18 19 22 25 27 28 29 29 29 29 29 29 30 30 29 28 26 25 25 26 27 28 29 30
49 47 52 64 72 63 36 21 15 9 4 4 4 4 6 7 8 11 13 16 17 20 24 26 28 31 31 30 31 32 36 38 38 38 38 39 40 40 43 45 46 48 51 54

GFSCGP_250_rhum_099.txt.gz
RH
5 4 4 10 10 9 12 17 20 14 12 20 21 26 32 28 39 65 64 52 41 97 100 100 100 78 78 96 100 100 95 100 100 100 100 100 98 100 100 92 90 89 97 100
14 8 6 6 10 12 12 14 22 20 15 16 23 21 47 51 44 44 75 63 50 43 89 100 100 100 98 93 83 100 100 96 77 99 100 100 100 100 95 93 98 99 96 100
18 21 10 9 5 7 15 18 23 22 18 16 18 20 33 22 29 35 53 68 61 46 38 61 98 100 100 100 100 100 100 90 81 82 95 94 100 99 86 86 91 83 67 69
23 20 22 11 14 8 7 14 20 21 22 19 17 22 17 18 24 28 39 54 66 58 50 44 48 81 100 100 98 100 89 91 88 93 88 90 97 85 100 94 93 86 87 93
22 23 18 22 14 13 12 8 7 16 16 19 18 19 19 16 21 25 34 38 44 54 55 53 46 40 51 82 99 100 100 90 80 99 100 100 100 97 99 100 100 100 86 90
18 19 20 16 20 18 13 14 11 9 14 15 20 21 22 19 22 18 26 27 31 41 43 46 50 56 47 43 42 42 50 73 98 90 92 97 97 96 98 100 100 100 100 100
18 18 16 12 14 20 22 12 13 10 9 9 14 12 20 18 17 15 21 28 29 30 37 45 45 50 62 59 54 52 46 41 36 48 55 55 53 82 82 93 100 100 100 100
17 17 14 13 10 12 17 19 11 11 11 10 11 8 12 13 15 19 18 21 29 34 36 37 43 47 49 54 60 64 60 54 48 43 60 61 47 44 51 74 82 76 80 98
16 16 12 10 8 10 12 16 21 15 12 11 10 10 12 13 12 16 17 26 31 26 27 34 38 46 53 60 58 60 68 68 68 68 69 59 50 45 44 47 61 71 74 96
18 15 14 8 6 7 10 10 12 16 14 10 12 11 11 12 11 11 13 19 26 32 30 25 26 34 44 46 63 66 68 71 74 74 71 71 68 67 67 61 53 50 60 73
23 14 15 10 5 5 6 8 10 11 15 15 12 13 13 14 13 12 13 15 21 24 25 25 28 31 34 39 52 57 59 60 62 60 59 63 67 66 61 58 56 53 50 46
27 15 15 14 6 4 4 6 7 9 10 15 13 12 14 15 18 14 11 14 15 21 26 26 23 24 28 33 42 48 50 53 62 63 57 50 44 42 46 47 47 46 47 49
29 20 15 16 9 4 4 5 5 7 8 13 16 17 13 15 18 15 14 12 15 16 19 23 24 26 25 27 30 36 44 53 54 52 46 40 37 35 34 33 34 34 36 42
34 28 18 18 13 5 3 4 5 5 6 12 18 18 15 12 14 15 13 12 13 18 16 17 20 22 23 26 29 31 34 38 39 41 42 40 36 33 30 29 28 27 27 28
39 37 26 16 18 9 4 4 5 5 6 6 12 14 13 12 10 10 12 12 11 12 12 14 16 18 20 23 25 27 29 30 31 33 35 34 32 31 28 25 24 23 22 23
40 42 34 15 15 11 5 4 4 5 5 6 7 8 12 14 14 13 13 15 15 13 12 12 13 14 16 18 19 20 22 22 22 25 25 25 25 24 23 21 20 21 23 26
40 46 35 16 9 10 9 5 4 4 5 6 7 7 7 9 21 22 19 14 15 17 17 17 15 15 15 15 15 15 16 18 20 20 20 20 20 20 20 21 22 24 27 28
44 46 33 23 10 10 12 11 6 4 5 6 6 5 6 6 14 24 26 24 20 19 17 16 15 15 16 16 16 17 17 18 18 18 19 19 19 19 19 20 20 22 23 23
40 47 38 33 18 11 12 10 10 7 4 5 6 6 6 6 8 15 28 34 32 24 22 21 20 19 18 17 17 19 19 19 19 19 19 19 19 19 19 20 23 25 26 26
41 44 49 36 33 17 13 14 12 11 6 4 5 6 7 7 8 9 13 30 39 40 32 30 32 31 28 24 22 22 23 23 22 22 21 21 22 24 24 24 24 27 29 31
44 47 42 51 49 27 21 16 12 10 9 5 4 5 6 8 9 9 11 16 29 33 37 33 30 30 29 28 29 30 29 27 26 26 26 26 25 25 25 27 27 28 30 32
44 43 44 49 54 49 29 14 15 11 10 8 4 4 5 7 9 10 9 12 17 26 29 33 34 34 33 32 29 29 34 38 41 41 40 38 37 39 39 38 37 36 34 33
48 45 50 48 55 57 24 16 16 12 9 8 5 4 4 5 8 10 12 12 13 21 29 33 33 34 38 39 39 40 43 49 51 52 52 54 56 57 56 48 41 38 38 36
44 45 45 51 54 62 41 24 20 10 8 7 5 4 4 5 6 8 10 12 15 17 24 34 40 39 40 45 47 45 45 49 51 50 51 51 52 50 47 44 38 35 33 32
45 47 52 50 58 64 59 42 24 14 10 7 6 3 4 4 6 8 10 11 13 20 26 29 35 37 39 40 38 36 36 36 37 37 35 34 36 36 34 30 29 28 27 28
47 44 52 52 55 67 68 55 37 18 11 7 7 4 4 4 5 6 9 10 12 18 27 32 38 39 35 32 32 32 32 32 32 33 33 32 32 31 31 31 32 32 32 31

GFSCGP_250_rhum_102.txt.gz
RH
14 15 10 10 11 11 23 25 25 32 19 12 22 34 40 31 32 42 71 98 100 100 100 100 100 100 100 100 100 100 86 94 89 100 100 100 100 75 89 94 93 96 98 98
21 20 18 19 11 12 20 23 28 26 21 24 11 22 43 32 34 33 54 82 100 100 94 100 90 100 100 100 100 100 100 100 100 100 91 100 98 76 69 71 68 93 95 94
26 28 20 17 23 15 16 18 19 27 24 30 14 12 20 37 34 33 38 62 88 100 99 96 98 100 100 100 100 100 100 100 100 100 100 100 100 91 100 100 100 100 100 100
30 32 29 21 14 23 13 18 17 20 23 26 26 19 28 32 34 35 39 38 66 99 100 100 86 89 100 100 100 100 99 100 100 86 100 100 100 100 100 100 100 100 100 100
24 30 34 29 22 13 24 14 14 13 16 17 22 29 25 25 27 40 58 43 39 54 79 93 100 73 98 100 100 100 100 100 100 100 100 100 100 100 100 100 100 100 100 94
22 27 30 30 25 16 14 23 14 13 13 11 16 29 30 23 47 31 27 44 51 48 52 65 84 94 98 97 99 100 100 100 100 100 100 100 100 100 100 100 100 100 100 100
20 23 24 26 24 14 12 10 22 14 12 14 16 11 43 36 38 35 30 35 53 54 39 38 58 65 85 100 100 90 87 100 100 100 100 99 100 100 100 100 94 100 84 80
20 19 22 18 19 15 9 10 11 22 14 16 16 13 41 25 41 43 39 32 34 34 44 45 37 47 63 66 96 100 100 94 86 100 100 99 94 100 100 98 77 91 90 99
22 16 19 16 14 13 8 6 8 12 24 13 13 13 18 17 23 46 49 40 35 40 38 43 45 45 41 49 69 66 74 99 100 100 100 100 100 100 100 100 100 100 100 100
22 15 16 15 11 10 7 5 6 7 10 19 13 12 16 17 14 18 28 30 30 36 42 52 52 54 50 51 46 51 63 67 70 79 84 86 88 94 98 93 84 72 62 55
24 18 14 15 12 8 6 4 5 6 7 10 18 14 17 18 14 13 13 19 21 23 28 36 52 61 58 68 78 81 85 84 61 55 58 60 59 60 59 64 65 64 62 58
25 25 13 16 15 10 6 4 4 5 6 8 10 17 15 17 16 13 14 18 14 14 16 18 24 38 46 52 62 80 99 99 90 87 90 100 100 93 99 91 81 84 83 71
30 25 18 13 16 14 8 4 3 5 5 6 9 18 20 15 15 16 13 13 12 14 15 15 14 15 22 31 40 45 47 54 57 70 82 87 98 99 96 93 89 85 82 79
33 27 22 14 15 15 11 6 3 4 4 5 8 12 19 20 13 14 16 14 15 15 13 15 16 15 18 19 20 25 34 44 50 58 65 62 59 61 64 74 73 69 66 62
34 34 25 17 14 14 13 8 5 3 4 5 5 8 11 15 18 14 17 16 14 16 16 16 14 18 24 26 27 24 25 28 31 34 39 42 45 47 48 51 57 50 44 41
37 36 32 24 12 15 13 11 9 5 3 5 5 5 5 7 12 18 18 15 15 17 17 18 17 16 15 18 24 27 30 30 29 33 32 33 35 36 34 35 37 38 39 38
38 38 37 33 17 12 10 11 10 9 6 3 4 5 5 5 9 13 18 19 20 19 17 17 20 22 22 19 18 18 22 23 24 27 28 32 33 36 38 35 34 33 36 35
39 38 38 41 30 12 12 10 9 8 8 6 4 4 5 6 7 10 18 23 24 23 21 19 19 20 20 21 18 18 19 19 20 21 23 25 28 31 33 33 34 33 31 28
42 39 38 44 42 21 11 14 12 11 9 8 6 4 4 6 7 8 9 12 23 32 31 28 23 19 18 16 15 16 15 16 19 18 18 19 20 21 23 24 24 23 22 22
46 39 40 44 54 32 17 13 14 11 10 7 8 5 4 4 6 7 8 9 10 18 26 29 29 28 25 21 19 19 19 19 20 20 18 17 17 18 19 19 19 20 21 21
44 41 40 45 52 41 26 19 13 12 11 8 7 7 4 4 4 5 7 9 10 11 18 29 37 40 39 36 34 31 30 29 27 27 25 22 20 20 20 21 21 21 22 25
46 45 44 53 50 49 32 27 19 13 9 9 6 6 6 4 4 5 6 8 9 11 16 35 53 55 54 48 42 38 38 37 36 35 34 31 27 26 24 23 24 25 26 28
46 48 53 56 52 52 46 50 24 19 14 11 9 6 5 4 4 5 6 8 9 10 12 20 39 57 61 62 53 43 35 38 42 40 37 36 37 37 37 36 36 35 35 34
45 46 49 48 50 55 53 60 47 30 17 13 10 7 5 4 4 4 6 7 9 10 12 16 22 37 50 62 63 53 43 38 39 41 42 42 42 43 44 45 45 45 42 39
48 51 52 50 52 53 57 65 63 49 32 21 10 7 5 5 4 4 5 6 9 11 12 14 19 27 41 52 63 64 64 62 61 61 59 54 55 58 57 54 51 47 45 45
47 51 45 43 53 53 55 65 70 69 50 31 18 10 6 5 4 5 5 6 8 12 13 14 16 22 37 45 57 65 67 64 64 64 59 53 50 50 49 48 48 48 50 51

GFSCGP_250_rhum_105.txt.gz
RH
15 14 14 12 9 8 13 29 19 15 14 9 9 28 30 60 49 100 100 100 100 100 100 100 100 100 100 100 100 100 94 95 100 100 100 100 82 72 53 51 39 76 67 98
23 25 21 20 17 16 10 14 23 32 25 19 14 17 24 52 61 97 100 100 100 100 100 100 100 100 100 100 100 100 100 100 100 100 100 100 100 91 56 59 74 89 54 54
22 24 29 28 24 21 22 11 15 22 27 28 21 25 38 44 80 51 100 100 100 100 100 100 100 100 100 100 100 100 100 100 100 100 100 100 100 100 100 100 69 84 70 73
22 27 29 33 35 25 18 23 22 20 30 28 35 28 52 52 64 77 48 100 100 98 100 100 100 100 99 100 93 100 100 100 100 100 100 100 98 100 100 97 90 100 100 100
21 22 28 30 28 27 20 16 17 20 18 21 22 26 32 56 53 97 74 62 100 100 100 100 100 100 100 100 98 100 100 100 100 100 100 100 98 100 100 99 98 100 95 96
20 23 24 26 23 23 21 15 13 18 17 16 17 21 26 42 58 66 99 64 66 97 100 100 100 100 100 93 100 100 100 100 100 100 100 100 100 100 100 100 98 96 94 93
18 17 18 19 20 20 20 16 11 11 18 22 17 29 38 24 48 38 57 100 94 77 68 69 99 100 100 93 94 100 100 100 100 100 100 100 100 100 100 100 100 100 100 100
23 17 18 18 16 16 16 13 10 8 12 26 16 30 38 32 32 69 72 63 90 96 95 84 62 89 89 81 94 100 99 100 100 100 100 100 98 100 100 100 100 100 100 100
25 19 18 18 15 11 11 11 8 6 8 14 21 20 26 31 32 29 48 61 73 80 97 100 94 83 88 75 68 79 99 100 100 100 100 100 100 92 100 100 100 100 100 100
24 17 14 18 15 11 9 9 6 5 5 8 16 31 37 19 20 26 28 44 59 65 82 94 100 100 100 100 98 92 69 76 92 100 100 100 100 100 100 100 100 100 100 100
24 18 14 15 15 13 10 8 6 4 4 5 9 21 31 23 20 36 27 40 46 76 68 71 87 100 100 100 100 100 100 78 69 89 99 99 100 100 100 100 100 100 100 100
27 22 14 14 15 13 11 8 6 3 4 5 7 11 18 17 18 18 32 31 31 40 51 71 74 64 93 100 94 100 100 100 100 97 81 80 98 100 100 100 100 100 100 100
30 26 21 13 15 15 12 10 7 4 3 5 6 10 10 13 13 13 14 19 30 22 29 36 55 84 78 63 72 80 97 100 100 100 100 100 95 88 100 100 100 100 100 100
35 34 25 15 15 16 13 9 8 6 3 4 5 6 7 11 16 13 11 13 21 22 26 22 25 41 72 91 99 96 85 81 86 91 88 87 92 87 89 99 100 98 95 95
40 41 31 23 15 15 12 11 9 7 6 4 3 5 6 7 10 15 16 12 14 22 21 27 23 27 30 46 64 79 96 98 100 100 96 93 96 87 82 80 85 96 92 88
45 45 35 28 20 13 11 11 10 8 6 6 4 3 4 5 9 12 18 20 16 16 18 22 25 24 19 26 32 37 46 60 74 80 87 92 100 100 98 99 100 100 97 90
46 45 39 33 23 12 8 13 10 10 8 6 7 5 3 5 6 9 12 19 27 24 22 26 26 32 34 21 23 19 21 25 30 39 45 56 61 68 69 73 75 79 81 80
46 45 44 38 26 18 12 11 11 10 8 8 6 7 6 4 5 6 8 12 21 31 30 24 28 34 34 31 23 22 27 26 27 25 25 26 28 32 36 36 37 38 39 42
47 41 44 42 35 29 20 18 11 9 9 8 7 6 6 5 4 5 6 6 11 20 34 38 31 23 26 28 26 24 22 22 24 27 29 31 26 26 26 33 35 38 38 37
48 43 43 39 37 37 42 22 18 13 11 10 7 6 5 5 4 4 5 6 7 8 15 30 38 36 29 24 24 25 24 24 20 22 22 23 26 29 32 33 36 34 33 32
48 41 39 38 38 38 38 31 20 15 13 8 8 7 6 4 5 4 3 4 6 7 8 10 24 35 40 40 34 30 28 27 28 33 36 29 25 24 24 25 24 23 23 23
49 45 44 39 38 42 50 40 26 18 14 12 9 10 7 5 4 5 4 4 5 6 8 8 8 10 18 29 38 40 38 37 40 40 36 31 27 24 21 19 19 19 20 21
51 48 46 43 37 39 48 48 34 28 22 15 12 11 9 6 4 4 4 4 4 6 7 9 9 10 11 14 23 39 48 50 51 50 48 43 39 36 33 30 27 25 25 25
51 50 45 42 40 42 43 52 49 46 52 30 19 17 12 8 5 4 4 4 4 5 6 8 10 11 13 19 31 36 42 51 56 59 57 54 50 45 42 41 39 36 34 33
56 53 47 48 42 42 47 52 61 72 64 53 31 21 18 13 7 5 4 4 5 5 6 8 10 12 13 14 26 36 41 51 65 77 85 83 77 66 59 53 46 44 41 40
54 53 48 49 44 44 46 49 54 69 63 52 44 28 23 20 12 7 5 5 5 6 6 7 9 11 15 17 20 30 43 56 63 75 83 88 89 84 76 71 65 56 48 43

GFSCGP_250_rhum_108.txt.gz
RH
11 10 9 10 9 6 8 10 15 12 9 7 7 12 13 18 17 31 50 44 86 100 100 100 100 100 100 100 100 100 100 100 100 100 100 100 100 100 100 100 100 88 72 80
14 13 15 13 15 13 9 7 15 22 21 18 9 9 15 27 41 32 36 55 100 100 100 100 100 100 100 100 100 100 97 100 100 98 100 100 100 100 100 100 91 85 77 68
16 20 16 15 15 17 16 13 7 11 18 17 19 18 17 39 49 42 49 60 100 100 100 100 100 100 100 100 100 100 100 100 100 100 100 100 100 100 99 89 95 94 75 66
15 19 21 22 21 17 16 16 12 8 9 14 23 23 34 46 77 73 65 62 100 100 100 100 100 100 100 100 100 100 100 100 100 100 100 100 100 99 99 100 100 100 93 76
17 17 21 23 24 22 20 19 17 12 9 8 20 30 56 72 95 100 100 100 100 99 100 100 100 100 100 100 100 100 100 100 100 100 100 100 100 100 100 100 100 100 92 85
18 20 20 20 21 20 19 18 17 15 11 8 12 24 48 65 93 100 100 100 100 100 100 100 100 100 100 100 100 100 100 100 100 100 100 100 100 100 100 100 100 100 100 100
18 18 20 18 17 18 17 14 15 13 14 12 8 18 42 77 83 100 100 86 90 100 100 100 100 100 100 100 100 86 85 100 100 100 100 100 100 100 100 100 100 100 95 94
19 18 17 16 14 14 13 12 11 11 12 9 9 10 26 55 76 98 100 100 100 100 100 100 100 100 100 94 96 99 99 95 100 100 100 99 100 100 100 100 100 100 100 100
20 17 16 16 14 11 9 9 10 9 8 8 6 12 13 32 56 72 100 100 100 100 100 100 100 100 100 100 100 89 91 88 100 100 100 98 100 99 91 100 100 100 100 100
21 19 15 15 15 11 7 6 8 7 6 6 6 10 9 13 46 53 79 100 100 100 100 100 100 100 100 100 100 98 77 71 64 91 100 100 100 100 100 100 98 91 100 99
25 19 16 13 15 12 10 7 6 7 4 4 5 6 9 7 16 41 42 72 100 100 100 100 100 100 100 100 98 93 94 96 76 61 63 76 93 100 100 100 100 85 81 93
28 22 17 14 14 14 12 9 6 6 5 3 4 5 6 8 6 18 32 40 72 100 100 100 100 100 100 100 100 100 100 100 100 99 97 87 100 99 100 100 100 100 100 100
31 28 20 16 14 15 15 9 6 5 6 4 4 4 5 6 9 6 21 32 47 82 100 100 100 100 100 100 100 100 100 100 100 100 100 100 100 100 100 100 100 100 100 98
35 31 26 18 14 15 15 11 8 5 5 6 4 4 5 5 6 11 7 16 33 56 86 98 100 100 100 100 100 100 100 100 100 100 100 100 100 100 100 100 100 100 100 100
40 33 32 25 19 16 16 14 11 9 5 5 6 4 5 6 6 7 11 8 9 26 40 66 94 100 99 88 86 100 100 100 100 100 100 100 100 100 100 100 100 100 100 100
38 36 35 32 26 16 13 12 13 8 7 6 4 6 5 5 6 8 8 10 10 8 13 31 48 67 94 100 98 100 84 88 90 91 93 100 100 100 100 100 100 100 100 100
39 37 36 34 29 18 11 12 12 14 11 9 6 4 5 6 4 5 6 9 12 15 9 10 23 35 47 82 96 100 100 100 100 100 100 100 100 100 100 100 100 100 100 100
38 36 40 34 34 29 19 13 14 12 10 9 8 6 4 4 6 4 4 6 8 11 16 19 13 12 14 28 44 60 84 100 100 100 100 100 100 100 100 100 100 100 100 100
37 35 37 36 37 36 34 22 18 14 14 12 8 6 5 4 4 6 4 4 6 9 12 16 21 25 23 22 23 23 34 51 69 87 96 100 100 100 100 100 100 100 100 100
40 37 36 37 41 42 39 31 24 16 12 14 9 6 6 5 4 4 5 4 4 6 8 11 16 23 28 29 27 25 27 24 27 32 42 60 74 90 96 100 100 100 100 94
42 39 37 40 42 42 44 43 36 27 22 17 11 8 8 6 6 4 4 5 5 4 6 8 13 19 22 29 34 35 31 28 29 29 34 29 28 37 46 54 61 65 66 62
48 45 41 40 41 39 44 45 52 37 26 21 20 17 12 8 6 5 4 4 4 4 4 5 8 9 16 23 30 35 40 43 41 42 36 27 24 24 21 23 22 21 22 24
52 49 43 42 43 42 38 48 52 39 36 32 27 24 23 15 9 5 5 4 3 4 4 4 5 6 8 11 16 26 36 43 48 51 50 45 38 32 31 31 28 25 23 22
54 52 45 44 43 43 38 45 46 49 50 40 38 31 25 25 20 13 7 4 4 4 4 5 5 5 7 9 10 12 15 23 33 41 48 51 52 51 47 42 38 34 32 30
55 55 50 48 45 46 43 44 49 50 47 48 43 36 29 23 22 16 14 7 4 4 4 5 5 6 7 7 9 11 14 17 20 31 46 55 60 60 58 57 54 50 47 44
56 59 54 50 46 46 44 46 45 48 43 47 51 52 32 32 27 21 23 14 12 6 5 5 5 6 7 8 10 12 13 16 20 27 35 41 48 55 61 66 69 70 69 69

GFSCGP_250_rhum_111.txt.gz
RH
6 5 5 6 5 4 5 6 5 5 7 6 4 5 4 5 9 11 12 14 13 15 23 100 100 100 100 100 100 100 100 100 93 99 100 100 100 100 100 100 100 100 100 100
8 7 8 9 9 9 8 6 9 5 6 12 9 8 6 6 7 14 16 16 14 14 27 100 100 100 100 100 100 100 100 99 100 100 100 94 97 100 100 100 100 100 100 100
11 11 10 11 12 12 12 11 7 10 9 10 15 14 15 11 10 14 18 18 17 16 33 100 100 100 100 100 100 100 100 100 90 100 100 100 100 100 100 100 100 100 100 100
13 14 16 15 11 13 13 13 10 7 10 9 10 16 23 20 22 14 21 20 19 17 62 100 100 100 100 100 100 100 99 99 100 100 100 100 100 100 100 100 100 100 100 100
18 17 16 16 16 13 12 12 13 9 6 11 12 12 21 39 51 23 19 27 20 78 100 100 100 100 100 100 100 100 100 92 100 100 100 100 100 100 100 100 100 100 100 100
18 18 16 16 14 13 13 11 10 11 8 6 12 13 22 40 49 40 25 34 23 100 100 100 100 100 100 100 100 100 100 100 100 100 100 98 100 100 100 100 100 100 100 100
16 16 16 13 13 11 10 10 9 9 9 7 10 13 20 40 47 52 36 41 29 100 100 100 100 100 100 100 100 100 100 100 100 100 100 100 100 100 100 100 100 100 100 100
16 17 17 13 11 9 8 7 7 8 8 7 7 11 17 45 62 53 54 43 26 98 100 100 100 100 100 100 100 100 100 100 100 100 100 100 100 100 100 100 100 100 100 100
17 15 16 14 11 8 6 6 6 7 8 7 8 7 14 25 38 62 80 65 43 89 100 100 100 100 100 100 100 100 99 100 100 100 100 100 100 100 100 100 100 100 100 100
19 16 15 14 12 9 7 6 5 6 7 6 7 7 8 13 34 62 89 96 71 62 100 100 100 100 100 100 100 100 100 100 100 100 100 100 100 100 100 100 90 99 100 100
22 18 13 12 13 12 10 6 5 5 6 6 5 4 7 10 16 55 84 100 100 77 90 100 100 100 100 100 100 100 100 100 100 94 99 100 100 97 100 100 100 98 100 100
25 18 14 10 13 13 12 9 5 5 5 6 5 3 5 12 13 24 45 100 95 100 99 100 100 100 100 100 100 100 100 100 100 100 96 100 100 100 100 100 100 100 100 100
29 22 17 13 12 13 13 12 7 4 4 5 6 4 4 5 13 13 21 41 96 100 91 100 100 100 100 100 100 100 100 100 100 100 100 100 100 100 100 100 100 100 100 100
30 26 20 15 12 13 13 14 12 9 4 4 4 5 4 4 5 12 13 16 39 85 99 91 100 100 100 100 100 100 100 100 100 100 100 100 100 100 100 100 100 100 100 100
31 31 26 21 20 12 12 12 12 11 9 5 3 4 5 4 5 7 18 19 29 86 93 77 100 100 100 100 100 100 100 100 100 91 100 100 100 100 100 100 100 100 100 100
32 34 30 29 26 18 12 10 11 12 10 9 6 4 3 4 5 5 6 19 26 40 88 98 100 100 100 100 100 100 100 100 100 100 100 100 100 100 100 100 100 100 100 100
32 35 35 35 29 23 16 12 12 14 13 13 12 10 4 4 4 5 5 7 11 20 39 92 100 100 100 100 100 100 100 100 100 100 100 100 100 100 100 100 100 100 100 100
34 36 38 35 33 30 24 19 14 16 16 15 14 13 9 7 4 4 4 5 6 11 22 47 79 95 100 100 100 100 100 100 100 100 100 100 100 100 100 100 100 100 99 98
42 38 38 36 36 34 32 22 19 22 17 19 16 12 11 9 7 5 4 4 5 5 8 20 31 78 86 100 90 100 100 100 100 100 100 100 100 100 100 100 100 100 100 100
46 41 41 36 35 39 35 30 32 22 17 15 16 15 9 7 6 6 5 4 4 5 4 8 12 25 70 89 89 99 100 100 100 100 100 100 100 100 100 100 100 100 100 100
48 44 43 39 37 42 40 39 37 36 24 20 18 15 14 10 10 8 5 5 4 3 4 4 5 9 18 28 39 81 100 100 100 100 100 100 100 100 100 100 100 100 100 100
50 48 44 42 40 41 44 41 42 40 34 28 20 18 18 19 14 10 7 6 5 4 3 4 5 5 6 9 16 31 44 51 71 90 100 100 100 100 100 100 100 100 100 100
55 52 48 42 44 43 42 45 42 44 39 39 31 25 25 22 19 21 15 8 6 5 4 3 4 5 5 5 7 10 16 22 27 40 51 56 70 75 70 67 81 84 90 93
57 55 51 48 46 44 40 43 42 53 51 41 34 29 27 24 25 23 23 23 13 9 6 4 4 3 4 5 5 6 8 10 13 19 23 27 31 34 39 45 52 53 63 71
58 58 52 50 49 45 42 42 46 47 46 46 42 36 33 29 28 24 22 24 26 23 14 9 6 4 4 4 4 5 5 6 7 9 12 18 24 27 30 33 36 36 34 32
64 60 56 52 50 47 43 42 47 46 48 45 42 43 46 44 34 29 24 25 21 20 26 22 10 9 6 5 5 5 5 6 7 8 10 12 16 24 32 38 45 51 56 59

GFSCGP_250_rhum_114.txt.gz
RH
7 5 3 3 3 2 2 2 2 3 2 2 2 2 3 7 3 6 10 10 14 14 34 11 17 22 41 100 100 82 100 92 100 100 89 100 98 100 100 100 100 100 100 100
8 6 5 4 4 4 5 4 3 4 3 2 2 3 9 19 4 7 16 20 12 32 10 12 15 25 28 87 100 100 100 100 98 100 87 97 100 96 90 95 100 100 100 100
8 7 7 6 5 6 6 6 5 5 4 3 2 3 9 62 12 9 14 20 12 11 12 16 15 28 37 94 100 100 100 100 100 98 100 92 100 100 90 80 93 100 100 100
12 10 10 9 7 7 7 7 7 6 6 4 4 4 5 23 70 48 17 13 11 10 16 22 22 30 100 100 100 100 99 100 100 100 100 95 100 100 87 83 100 100 100 100
14 13 12 10 9 8 8 7 7 8 6 7 4 3 6 8 57 86 56 25 13 15 21 23 30 88 100 100 100 100 100 100 100 75 88 100 100 100 100 97 99 99 100 100
17 14 11 9 9 9 8 7 6 6 6 5 7 3 4 8 11 37 69 37 17 18 27 24 35 100 100 100 100 100 100 100 100 100 100 100 100 100 100 92 100 100 100 100
18 15 12 9 8 8 7 7 6 5 6 7 5 6 4 4 9 15 16 18 17 20 28 30 89 100 100 100 100 98 100 100 100 100 100 100 100 100 100 100 100 100 100 100
18 15 14 12 9 7 6 5 4 4 5 7 6 7 4 5 9 13 16 18 19 21 29 53 88 100 100 100 100 100 100 100 100 100 100 100 100 100 100 85 100 100 100 100
16 14 13 12 10 7 5 4 4 4 5 6 6 8 8 5 5 10 16 20 23 24 30 31 73 100 100 100 100 100 100 100 100 100 100 100 100 100 100 98 94 100 100 96
16 14 12 12 9 8 5 4 4 4 4 5 6 9 10 8 5 7 10 19 26 24 30 30 39 99 100 100 100 100 100 100 100 100 100 100 100 100 100 100 99 100 100 100
17 14 13 11 11 9 8 4 4 4 4 4 5 8 11 10 7 7 11 16 22 23 28 32 48 100 100 100 100 100 100 100 100 100 100 100 100 100 100 100 100 100 100 100
22 15 11 12 10 10 9 8 4 3 4 4 5 7 9 10 10 8 9 17 18 26 30 37 68 100 100 100 100 100 100 100 100 100 100 100 100 100 100 100 100 100 94 80
24 18 17 10 11 11 12 11 8 4 4 4 4 6 6 10 11 11 9 14 18 26 32 72 100 100 100 100 100 100 100 100 100 97 100 100 100 100 100 100 100 100 100 100
27 20 18 11 10 12 12 13 11 7 4 4 4 4 5 5 9 14 14 11 15 20 42 50 98 100 100 100 100 100 100 100 100 100 100 100 100 100 100 100 100 100 100 100
32 25 21 14 13 11 11 13 12 11 7 4 4 3 4 6 4 5 12 18 13 14 22 39 50 60 95 100 100 100 100 100 100 100 100 100 96 100 100 100 100 100 100 100
34 31 27 22 19 17 11 10 11 13 14 12 5 3 4 4 5 6 5 6 14 15 13 16 49 48 74 100 100 100 100 100 100 100 100 100 100 100 97 100 100 100 100 100
38 35 31 32 24 23 16 14 12 14 15 17 17 10 6 4 5 5 7 6 6 11 20 15 15 43 70 100 100 100 100 100 100 100 100 100 100 100 100 100 100 100 100 100
40 40 36 36 31 28 23 19 15 13 16 17 16 15 14 10 5 5 5 7 8 7 8 16 25 16 26 48 97 100 100 100 100 100 100 100 100 100 100 100 100 100 100 98
44 42 40 40 36 32 28 23 23 16 18 19 18 16 15 13 11 7 5 5 6 8 9 8 12 21 22 25 34 76 100 100 100 100 100 100 100 100 100 100 100 100 100 100
48 47 44 41 39 33 32 29 25 23 22 22 19 15 15 14 13 12 8 6 5 6 6 9 14 13 25 36 25 22 28 68 99 100 100 100 100 100 100 100 100 100 100 100
50 48 48 44 42 37 35 34 29 27 29 28 22 20 16 14 14 14 12 9 9 6 5 5 7 9 17 23 36 36 29 36 66 100 100 100 100 100 100 100 100 100 100 100
49 52 51 47 43 41 38 35 33 30 32 34 32 23 19 21 20 17 20 17 11 10 7 5 5 5 8 11 23 62 69 61 56 54 66 94 100 100 100 100 100 100 100 100
57 53 54 51 46 43 40 38 36 33 36 33 35 32 28 25 21 21 21 18 22 14 10 9 7 5 4 6 9 9 13 34 69 84 76 66 81 93 88 100 100 100 100 100
66 61 58 54 52 47 44 42 40 39 39 36 38 35 31 30 28 26 24 25 24 26 22 13 11 10 8 6 5 6 9 10 19 31 80 96 97 100 100 100 100 100 100 100
81 72 65 60 58 53 48 44 42 44 41 44 40 38 36 33 41 43 40 34 28 28 28 29 26 14 12 10 9 7 5 6 8 9 14 31 42 45 84 100 100 100 100 100
90 83 79 72 64 60 51 48 45 45 44 41 46 45 40 38 45 53 43 35 24 30 29 30 26 26 26 22 17 12 8 7 5 5 7 8 10 14 19 23 29 57 90 94

GFSCGP_250_rhum_117.txt.gz
RH
13 10 7 5 4 3 2 2 2 2 1 1 1 1 1 1 1 1 1 2 5 7 14 91 100 100 100 98 83 73 100 100 100 76 91 100 100 98 85 100 98 97 100 100
11 7 5 4 3 3 2 2 2 2 2 2 2 1 1 1 1 2 2 3 7 16 20 12 62 100 75 66 53 100 100 100 97 87 100 100 100 100 100 100 100 98 100 100
9 8 6 5 4 3 3 3 2 2 2 2 2 2 1 1 2 2 3 9 20 20 20 19 51 74 63 59 90 100 100 100 100 100 100 100 100 100 100 100 100 100 100 100
12 10 8 6 4 4 3 4 4 3 3 3 3 2 2 2 2 4 8 15 22 21 24 19 33 26 37 86 100 100 100 100 100 99 100 100 96 100 98 100 100 100 100 100
12 11 10 7 6 4 4 3 4 4 4 3 4 3 2 2 4 6 8 23 32 38 34 15 11 20 32 70 41 68 100 100 99 100 100 100 100 94 95 95 100 100 100 100
13 11 10 8 5 4 4 3 3 4 3 4 5 4 3 3 6 8 19 26 55 76 30 9 16 28 48 88 37 28 100 100 100 100 100 100 100 100 100 61 99 100 100 100
14 11 9 7 5 4 4 3 3 3 3 4 7 7 5 6 8 26 15 25 40 53 50 15 44 48 86 76 47 84 100 100 100 100 100 100 100 100 87 99 100 100 100 100
17 14 11 8 6 5 3 3 3 3 3 5 7 7 7 8 20 54 27 22 31 35 17 21 41 31 41 29 90 100 100 100 100 100 100 95 100 100 100 100 100 100 91 100
15 13 10 7 5 4 3 3 2 3 3 4 6 8 8 8 12 24 50 40 35 34 23 17 40 46 30 32 58 98 100 100 100 100 100 100 100 97 100 100 100 100 100 100
13 13 10 8 6 5 4 3 2 2 3 4 6 9 9 10 7 40 61 76 42 27 26 21 26 100 56 35 80 90 100 100 100 100 100 100 100 100 98 96 100 100 100 100
14 13 12 9 8 7 6 5 4 3 3 4 6 8 11 10 11 20 52 76 38 37 31 20 30 100 75 49 87 100 100 100 100 100 100 100 100 100 100 100 100 100 100 85
15 12 13 14 11 7 8 6 4 4 3 3 4 6 9 11 11 12 12 31 61 58 43 46 56 100 100 62 66 100 100 100 100 100 100 100 100 100 100 100 100 100 100 100
20 16 15 15 14 13 11 9 5 4 4 3 4 5 5 8 14 15 14 12 19 16 52 54 54 94 94 78 78 100 100 100 100 100 100 100 100 100 100 100 100 100 100 100
27 22 18 18 16 13 13 12 10 5 5 6 5 4 5 5 5 10 15 16 13 12 28 49 29 74 97 99 80 79 100 100 100 100 100 100 100 100 100 100 100 100 100 100
32 31 26 24 17 15 14 14 14 12 6 6 7 6 6 5 5 5 5 10 16 14 10 15 26 24 84 100 100 88 100 100 100 100 100 100 100 100 100 100 100 100 100 100
38 37 32 28 24 21 18 16 14 15 13 11 8 7 8 6 5 5 5 6 6 12 14 9 10 17 30 69 66 94 100 100 100 100 100 100 100 100 100 100 100 100 100 100
42 42 38 34 30 27 22 19 16 14 15 15 17 15 13 10 9 7 6 5 6 7 12 16 10 15 19 32 63 100 100 100 100 100 100 100 100 100 100 100 100 100 100 100
46 46 44 40 35 32 29 26 21 18 15 15 16 16 16 16 14 10 9 6 5 6 7 12 16 12 17 24 68 100 100 100 100 100 100 100 100 100 100 100 100 100 100 100
49 50 50 46 41 37 34 32 29 25 20 18 18 18 15 14 15 14 14 10 8 6 6 6 11 22 18 15 19 35 69 100 100 100 100 100 100 100 100 100 100 100 100 100
53 51 53 51 47 44 40 38 36 32 26 21 19 18 18 17 16 16 14 11 12 12 7 6 6 7 12 32 26 18 23 30 49 88 100 100 100 100 100 100 100 100 100 100
61 55 53 55 53 50 46 43 42 39 34 27 24 21 23 20 15 18 18 17 16 16 15 12 7 5 6 8 17 46 40 30 28 41 78 89 100 100 100 100 100 100 100 100
70 65 60 57 58 58 53 49 46 45 42 37 32 25 26 25 21 18 14 19 23 21 16 20 18 12 8 6 6 9 21 54 78 71 69 85 100 100 100 100 100 100 100 100
76 70 71 70 64 63 63 57 53 48 46 41 37 30 33 32 30 26 23 19 23 24 26 24 21 20 15 11 8 6 6 8 13 31 73 75 99 100 100 100 100 100 100 100
95 90 85 83 77 76 71 66 62 54 49 47 43 37 37 40 40 36 33 27 31 23 25 24 28 25 21 22 19 14 10 6 5 7 10 14 31 58 70 85 97 100 100 100
98 99 96 90 88 84 81 75 70 64 55 55 49 43 42 44 48 50 44 42 39 33 27 26 27 32 36 35 28 22 17 16 12 9 6 5 7 11 20 39 62 73 97 100
98 95 100 98 92 91 88 82 78 71 61 58 57 51 47 46 48 52 55 47 45 39 38 30 28 30 27 27 27 28 30 28 19 15 13 11 8 6 6 7 9 10 17 35